GFSSGP_sfc_thetae_000.txt.gz
Theta_e
315 314 311 306 294 290 285 287 292 291 290 293 296 296 294 293 296 291 304 304 306 307 313 323 337 339 341 343 343 344 346 346 346 347 347 347 347 347 347 348 349 348 348 348 348 347 346 347 347
312 313 307 296 289 285 285 288 290 292 294 294 295 293 293 291 296 298 299 303 303 305 308 321 333 332 335 336 337 338 341 343 343 344 345 346 346 347 347 346 347 347 347 347 348 348 348 348 348
311 309 301 291 286 285 286 289 290 291 293 292 293 294 292 292 295 296 298 301 300 299 303 316 325 324 326 327 328 329 332 334 337 339 339 339 340 342 344 345 345 345 346 346 347 346 349 348 349
306 303 295 289 287 289 290 290 292 293 292 295 292 290 293 296 296 297 298 298 295 297 299 310 318 319 320 321 322 322 325 327 329 331 332 333 336 337 338 340 342 343 344 345 346 346 347 347 348
300 296 290 286 287 290 290 291 293 292 290 291 291 289 290 294 295 295 294 295 294 294 297 301 313 314 315 317 318 318 319 321 323 322 323 327 330 331 333 334 335 338 341 343 344 345 346 345 347
297 293 287 285 286 290 290 292 292 290 291 292 291 289 290 294 293 292 293 292 293 293 296 298 305 309 310 312 313 313 314 315 316 316 318 319 318 322 325 325 327 332 335 338 341 343 344 344 345
295 291 286 284 286 289 292 294 292 291 291 291 293 288 289 291 293 293 291 291 292 293 294 294 295 301 305 307 308 309 309 310 311 310 311 312 314 318 313 314 317 320 322 325 330 337 340 342 343
294 293 286 286 287 289 292 292 291 291 291 292 291 288 286 290 293 292 290 290 290 292 292 292 292 295 296 297 305 305 306 306 307 307 307 306 309 309 308 308 311 314 316 316 321 327 333 336 340
297 291 287 287 288 291 293 291 289 289 290 288 289 289 291 292 292 289 287 288 288 291 291 291 291 291 293 295 297 299 302 302 303 304 305 303 303 303 301 305 308 310 311 312 318 321 320 328 331
293 289 290 291 290 290 292 291 291 289 287 287 286 288 290 290 288 287 285 285 285 286 288 290 289 290 291 295 292 292 294 294 295 297 299 301 300 302 300 301 304 307 307 309 315 313 311 309 313
291 288 292 293 294 294 293 290 291 290 287 289 287 287 288 287 286 286 285 285 285 284 286 288 288 288 289 290 290 290 290 291 292 293 296 298 298 297 297 296 296 301 303 304 306 306 305 306 306
292 293 293 296 296 293 291 291 290 290 291 290 289 289 286 286 285 285 285 285 285 285 285 286 287 287 288 289 288 288 289 290 289 291 294 295 294 294 294 293 294 297 299 300 302 303 303 303 304
292 292 295 295 295 294 293 292 291 290 289 288 288 287 286 285 285 285 285 285 285 285 285 285 286 286 287 288 287 288 288 288 289 290 292 293 292 292 291 291 292 294 298 298 298 300 300 300 302
291 293 294 294 294 293 292 289 289 289 286 285 287 285 284 285 285 283 284 284 284 285 285 285 287 287 287 287 286 287 287 288 289 289 290 292 292 289 289 289 290 292 294 296 297 298 299 299 299
292 290 291 290 292 292 292 289 288 288 286 285 284 283 284 284 284 284 284 284 284 284 285 285 287 287 286 286 287 287 287 288 288 288 289 290 289 288 286 287 289 290 292 293 296 296 297 296 298
289 288 286 289 291 290 289 286 291 287 285 284 283 282 283 283 284 283 284 283 283 283 284 285 288 286 286 286 286 286 287 286 286 286 287 287 288 287 285 285 286 289 287 288 291 295 296 295 296
287 284 284 288 291 289 288 287 290 286 285 284 283 283 283 282 282 282 283 282 283 283 283 284 285 285 285 285 285 285 285 285 284 284 285 285 285 286 284 284 285 285 285 286 288 290 293 294 295
284 283 284 283 287 287 286 288 292 287 284 286 285 283 282 282 282 282 282 282 282 282 283 283 284 284 284 284 284 283 283 283 283 282 283 284 284 284 283 283 283 283 283 283 284 285 287 291 295
286 283 283 285 287 286 286 287 291 291 285 285 283 282 283 283 282 282 282 282 281 282 282 282 283 283 283 282 280 280 280 281 280 281 283 283 283 283 282 282 281 281 281 281 283 284 285 287 292
284 283 283 285 286 286 285 285 289 291 287 287 287 283 283 283 280 282 281 281 281 281 282 282 282 282 283 282 281 281 280 280 280 281 280 281 282 281 281 281 280 280 280 281 282 284 286 288 291
283 282 282 283 284 283 281 281 282 287 288 288 287 287 285 283 281 281 280 280 280 280 281 282 282 282 282 281 281 280 280 278 277 277 278 279 281 281 280 280 279 279 280 280 281 280 280 281 286
282 285 283 282 280 277 282 278 280 285 286 285 287 284 284 283 282 282 281 279 279 280 281 281 281 281 282 281 279 277 276 275 276 277 277 278 279 279 280 280 279 279 280 278 278 280 280 281 280
285 284 282 281 279 276 277 274 278 279 283 287 287 286 285 283 282 281 281 281 280 281 280 280 280 280 280 279 278 276 276 276 276 276 276 276 277 279 279 279 278 278 278 277 277 277 278 281 281
286 282 280 277 276 272 278 277 277 278 282 284 284 283 283 281 281 281 281 281 280 280 280 279 279 278 279 278 277 275 274 274 274 274 274 275 276 277 278 278 277 277 277 276 276 277 279 278 278
283 282 277 274 271 276 275 273 282 284 284 285 285 282 282 280 280 280 280 280 279 279 279 279 278 277 277 276 275 274 273 273 272 273 273 273 274 275 275 276 276 276 276 276 276 277 275 276 276
281 282 278 270 270 277 273 275 282 284 284 280 279 279 281 279 280 280 281 280 279 279 278 278 277 275 275 274 274 273 273 273 273 273 273 272 273 274 275 275 275 276 276 276 276 275 276 278 277
281 279 282 276 264 269 278 279 282 284 282 281 279 280 280 278 279 280 280 280 278 278 278 277 275 275 274 273 273 272 271 271 271 271 272 272 273 274 274 275 274 274 275 275 275 274 274 274 275
281 283 277 277 271 265 276 277 281 286 284 285 279 279 279 277 278 279 280 279 278 278 277 275 274 273 273 273 271 271 270 270 270 270 270 271 272 272 273 273 273 273 274 274 274 274 274 273 274
277 278 277 279 276 272 268 280 283 285 286 286 282 281 279 278 278 279 279 279 278 277 275 274 273 272 272 271 271 270 270 270 270 269 270 270 271 271 271 272 272 272 272 273 273 273 273 272 273
280 281 281 278 275 273 273 281 283 286 286 284 282 281 278 278 278 279 279 277 276 275 274 273 272 271 271 270 270 269 269 269 268 268 269 270 270 270 270 270 270 270 270 271 271 271 272 271 271

GFSSGP_sfc_thetae_003.txt.gz
Theta_e
318 318 314 309 299 295 291 294 297 296 296 298 299 299 299 298 299 297 307 305 305 307 312 321 334 336 340 341 341 344 344 345 345 345 345 345 346 346 347 347 348 346 347 349 349 349 349 350 349
315 315 310 300 294 290 291 294 294 297 298 297 297 297 297 297 299 301 303 303 301 304 308 318 329 330 331 333 334 335 337 339 341 342 342 342 342 342 343 344 344 345 346 346 347 347 350 350 350
314 310 306 295 290 290 291 294 295 295 296 297 296 297 297 297 299 300 301 300 298 300 305 317 323 324 325 326 327 329 331 333 331 332 335 337 338 338 338 338 339 340 343 345 346 346 348 348 349
309 306 298 293 293 293 295 295 296 295 296 297 296 295 296 299 300 300 300 298 297 297 302 312 317 319 321 321 322 323 325 325 325 326 328 327 327 331 330 332 333 335 337 340 343 344 345 345 346
302 299 293 291 292 294 294 296 296 295 296 296 296 295 294 297 298 297 296 296 296 296 299 306 312 314 316 317 317 318 318 318 318 319 320 320 324 319 318 321 324 326 328 331 335 338 340 342 344
301 297 292 290 291 294 295 296 296 295 295 294 295 293 294 298 295 296 295 295 295 296 298 299 305 309 310 311 312 313 313 313 313 313 313 315 316 312 313 315 317 319 321 322 326 331 333 336 339
299 294 292 290 290 293 295 295 294 294 294 295 295 293 294 294 296 296 296 295 295 296 296 297 298 301 305 307 307 308 308 309 310 309 309 309 309 309 309 310 313 314 315 316 321 325 325 327 333
296 295 291 289 290 292 295 295 295 296 295 295 296 294 293 295 295 295 294 293 294 295 294 294 296 298 299 300 304 305 305 306 306 307 306 305 305 305 305 306 309 311 311 312 317 318 318 317 318
301 293 290 291 291 294 294 294 294 294 293 293 295 293 294 294 293 291 291 291 291 292 293 293 294 295 297 298 298 299 301 302 302 302 304 303 302 302 301 302 304 307 308 309 313 311 311 310 310
295 291 293 294 293 294 294 294 294 293 292 292 291 292 292 293 291 290 290 289 289 290 291 292 293 293 295 295 295 296 296 296 297 298 299 301 300 300 299 299 300 302 304 304 308 308 308 307 307
295 291 294 295 296 296 295 293 293 292 291 294 293 291 291 291 290 290 289 289 289 289 290 290 291 292 293 294 294 294 295 295 296 296 297 299 298 298 297 297 296 299 300 300 302 303 303 304 305
293 294 295 297 297 295 294 293 292 291 296 294 294 292 291 290 289 288 288 288 288 288 289 289 290 291 292 293 293 293 294 294 294 294 296 296 295 295 294 294 295 296 296 298 299 300 302 303 304
293 293 296 296 296 295 294 293 293 291 294 293 291 290 290 290 288 288 289 288 288 288 288 289 290 291 291 292 292 292 292 293 293 294 295 294 293 292 291 292 293 293 295 294 295 297 299 301 302
293 294 295 294 295 295 293 292 292 293 289 289 288 289 289 289 288 287 286 286 287 287 288 289 290 290 291 291 291 291 292 292 292 292 293 292 292 290 290 290 291 291 293 291 292 294 297 299 301
293 291 292 292 293 293 293 291 290 293 288 288 287 287 287 288 287 287 287 286 287 288 288 288 289 289 290 290 290 291 291 291 290 291 291 291 290 289 288 289 289 290 290 289 290 292 295 297 299
290 289 288 291 292 292 292 289 293 290 287 288 286 285 286 287 287 286 287 286 286 287 287 288 289 289 289 289 289 290 290 290 289 289 289 289 288 288 287 287 287 288 288 288 288 289 290 292 294
288 286 286 289 291 291 290 289 292 289 286 288 286 285 285 286 284 285 286 286 285 286 286 287 288 288 288 288 289 288 289 289 288 287 287 288 287 287 286 286 286 287 286 286 287 287 288 288 290
285 285 286 285 289 289 288 288 293 292 287 289 288 286 285 285 286 285 285 285 285 286 286 286 287 287 287 288 287 287 287 287 286 286 286 287 286 286 284 285 285 285 284 284 285 286 288 288 290
287 286 286 287 288 287 287 288 291 294 288 288 287 285 285 285 287 284 284 284 284 285 285 285 285 286 286 285 284 284 284 284 285 285 285 284 284 284 283 284 284 284 283 283 284 285 286 288 290
286 284 284 286 286 286 285 286 290 292 292 294 290 286 286 285 282 283 283 283 284 284 284 284 285 285 285 284 284 284 283 283 284 284 284 283 283 283 282 282 283 283 282 282 283 284 284 283 285
284 284 283 285 284 284 282 282 283 287 289 289 289 289 287 286 284 282 282 282 283 283 284 284 284 284 284 284 283 282 282 282 281 282 281 282 282 282 282 282 282 282 282 281 282 283 281 280 284
284 286 284 283 282 279 283 280 282 286 288 288 288 287 288 286 286 283 283 282 282 283 284 284 284 283 283 283 282 280 279 278 279 280 280 280 281 281 281 281 281 281 281 280 282 281 281 281 280
286 284 283 282 280 278 279 276 282 281 284 289 290 288 288 287 286 283 283 283 283 283 283 283 283 282 282 282 281 280 278 278 279 278 278 278 279 280 280 280 280 280 280 280 280 280 279 280 280
286 283 281 278 277 273 281 280 280 281 284 287 288 288 288 285 284 284 284 284 283 283 283 282 281 281 281 281 280 278 276 276 276 276 276 276 277 278 278 279 279 279 279 279 279 279 279 279 280
284 283 278 275 273 276 276 275 284 285 285 288 289 288 286 285 282 282 282 282 283 281 282 282 280 279 279 279 277 277 275 275 274 274 274 274 275 275 276 277 277 278 278 278 279 278 278 279 280
282 284 279 272 272 279 273 275 283 285 289 286 284 284 282 283 282 282 282 282 283 282 281 281 280 278 277 276 276 275 274 274 274 274 273 273 273 274 275 276 276 277 277 278 278 278 278 279 279
281 280 283 276 265 272 280 282 284 286 285 283 282 281 282 283 281 281 282 282 282 282 281 280 278 277 276 275 274 273 273 272 272 272 272 272 273 274 274 275 274 275 276 276 276 277 277 277 278
282 283 279 278 273 268 277 281 283 284 286 286 285 283 284 283 280 280 281 282 282 282 281 279 277 276 275 274 273 272 271 271 271 271 271 271 272 272 272 273 273 274 274 275 275 275 276 276 277
279 279 279 280 278 273 272 281 284 286 287 287 288 285 285 284 281 280 281 281 282 281 279 277 275 274 273 273 272 271 270 270 270 270 270 271 271 271 271 271 271 272 272 273 273 273 274 274 275
280 282 283 279 277 275 275 281 286 287 288 287 287 285 285 283 281 280 280 281 280 279 277 275 274 273 272 271 270 270 269 269 269 269 270 270 270 270 270 270 270 270 270 270 270 270 271 271 272

GFSSGP_sfc_thetae_006.txt.gz
Theta_e
326 325 327 321 307 305 299 299 303 301 302 305 306 307 307 307 305 303 310 309 311 319 322 329 332 334 336 338 339 341 343 344 344 343 343 343 343 343 344 344 344 345 346 347 347 348 348 349 348
324 321 322 315 304 299 300 302 301 304 305 305 304 304 305 305 306 308 308 306 310 315 319 324 328 329 330 332 334 336 337 336 337 338 340 340 340 340 340 339 339 341 343 344 345 346 347 349 348
318 318 317 310 304 298 300 302 303 303 305 304 304 304 305 305 306 310 306 304 308 314 318 320 323 324 325 326 328 330 330 330 332 333 334 333 335 333 333 333 335 336 339 341 343 344 344 345 344
318 315 309 303 299 301 301 303 304 302 302 303 304 303 303 306 307 308 304 302 303 308 314 317 318 321 321 321 323 323 323 323 325 325 327 330 325 323 324 327 328 328 330 333 335 338 339 340 342
316 313 304 301 299 301 302 304 305 303 304 303 303 303 302 303 306 304 303 301 301 303 310 313 314 316 317 317 317 318 318 317 317 318 320 320 317 317 318 320 321 323 324 326 329 332 332 333 337
311 309 302 299 299 301 302 304 304 305 304 301 301 301 303 305 302 302 302 302 301 302 304 307 308 310 312 313 313 313 314 314 313 313 313 313 312 312 313 315 316 317 318 319 323 327 326 327 331
309 307 301 300 299 299 302 304 303 304 303 303 303 302 302 301 303 301 301 301 301 301 301 302 303 304 307 307 308 309 309 310 310 309 308 308 308 308 309 309 312 313 314 315 318 318 319 319 319
310 308 299 299 299 299 302 302 301 303 303 302 305 303 303 303 302 301 301 301 300 299 299 300 302 302 303 304 304 305 306 306 306 306 305 304 304 304 304 305 307 310 311 311 313 313 313 313 313
308 303 300 299 298 301 301 301 301 300 301 301 303 302 301 304 301 300 299 298 298 298 298 300 300 301 301 301 299 301 302 302 302 302 302 304 303 303 303 302 303 306 306 307 309 310 310 309 310
305 302 300 302 302 301 302 302 303 300 300 300 300 301 299 301 299 298 298 296 297 297 297 298 299 299 300 298 300 301 300 301 301 302 302 302 302 301 300 302 301 302 302 304 306 306 306 307 307
303 302 302 302 303 302 302 300 302 301 300 304 304 305 299 299 299 299 299 298 297 297 296 297 298 299 299 299 300 301 301 301 301 301 301 301 301 301 300 300 300 301 301 301 302 303 303 305 306
301 301 302 302 303 301 300 301 299 301 305 303 305 304 300 299 298 298 299 297 296 295 296 296 297 298 299 299 299 299 300 300 300 299 300 299 299 298 298 298 299 299 300 299 299 300 302 303 304
301 301 302 303 302 302 299 300 301 301 304 305 300 299 299 299 300 300 299 297 296 294 295 296 297 297 297 298 298 299 298 298 298 298 298 297 297 296 296 297 297 297 298 297 297 298 299 301 302
301 301 302 301 301 301 299 301 298 303 300 301 299 300 300 300 300 299 297 295 294 295 295 295 296 296 296 297 297 298 298 297 297 297 297 295 295 294 294 295 295 295 295 295 295 296 297 298 300
299 299 302 300 300 299 299 298 298 305 297 299 298 299 299 299 299 298 297 296 294 295 295 295 295 296 296 296 296 297 296 296 296 295 295 294 293 293 292 293 293 294 294 294 295 295 295 296 297
298 297 297 299 299 298 299 295 303 303 299 300 301 299 297 298 298 298 298 296 295 294 294 295 293 294 295 295 295 295 296 296 296 295 295 293 291 291 291 291 292 293 292 293 293 293 293 294 294
298 295 295 296 299 297 297 297 301 300 297 299 301 301 297 297 297 298 297 295 294 294 294 293 294 294 294 294 293 294 294 294 295 294 293 292 291 290 290 290 291 291 291 291 291 291 292 291 293
296 294 295 294 297 295 296 295 300 302 299 299 302 303 299 295 297 297 295 295 293 293 293 293 293 294 293 293 293 293 293 294 293 293 292 290 290 289 289 289 290 290 289 290 290 290 291 291 292
296 295 295 299 295 294 295 295 297 300 300 300 300 302 299 296 298 297 295 293 292 292 292 292 292 292 292 292 291 291 291 291 291 291 290 289 288 288 288 288 288 289 288 288 288 289 289 290 290
295 295 295 297 293 292 293 292 296 297 298 300 300 302 301 297 296 295 292 291 291 291 291 291 291 292 291 291 290 290 289 290 290 290 289 289 288 287 286 286 287 287 287 287 287 287 287 287 289
294 294 296 293 292 291 289 291 292 295 295 297 298 300 300 298 295 293 291 291 290 290 291 291 291 291 291 290 289 288 288 287 287 288 288 288 287 287 286 286 286 286 287 286 286 286 286 284 287
293 296 293 291 290 289 290 286 293 294 294 296 299 299 297 296 295 293 291 290 289 290 291 291 290 289 289 289 288 287 286 286 287 287 287 286 286 285 285 285 285 285 286 285 286 285 285 284 283
294 291 291 289 289 286 290 285 291 288 290 295 299 301 299 298 296 293 291 290 290 291 291 290 290 289 288 288 288 287 286 286 286 285 284 285 285 285 284 284 284 284 285 285 284 284 284 284 283
290 290 288 286 286 283 289 287 290 291 292 295 299 298 298 297 296 295 292 290 290 290 290 290 289 287 287 287 287 286 285 284 283 283 283 283 283 283 283 283 283 283 283 283 284 284 283 283 283
290 291 287 287 284 284 286 284 289 294 295 296 299 300 297 297 295 293 290 288 288 289 289 289 288 286 287 286 285 284 284 283 282 282 281 281 281 281 282 282 281 282 282 282 282 282 282 282 282
289 292 288 283 284 286 282 282 290 294 297 298 294 295 293 294 294 292 290 289 289 288 289 288 288 286 285 285 284 283 282 281 281 280 280 279 279 280 281 280 280 280 280 280 281 281 281 281 282
287 286 292 288 279 282 288 292 293 292 292 292 293 294 294 293 292 291 291 290 288 288 288 288 287 286 284 283 283 281 281 279 279 279 278 278 279 278 278 278 278 279 279 279 279 279 279 280 280
288 290 285 287 282 281 285 287 288 291 292 292 291 293 296 295 293 291 290 289 289 289 289 288 288 286 284 282 281 280 279 278 278 277 277 277 278 277 277 277 277 277 277 277 277 277 278 278 279
285 286 285 286 285 283 281 286 291 292 294 293 295 297 298 296 294 292 290 290 289 289 288 288 287 284 282 281 280 278 277 277 276 276 276 276 276 276 275 275 275 275 275 276 275 275 275 275 275
290 289 289 284 283 284 285 286 293 294 295 294 296 295 296 296 296 294 291 289 288 287 287 286 285 282 281 280 278 277 276 275 275 275 275 275 274 275 274 274 273 273 273 273 273 272 273 272 272

GFSSGP_sfc_thetae_012.txt.gz
Theta_e
333 328 325 320 305 301 297 298 301 301 300 303 307 304 301 305 303 299 313 316 321 322 328 328 333 336 338 341 340 341 342 342 343 344 343 342 341 341 340 339 339 340 342 344 345 346 346 345 346
323 323 321 315 300 296 296 300 299 302 304 304 305 304 301 301 308 307 306 314 319 321 323 325 330 332 335 336 336 336 338 338 338 339 339 337 334 334 335 334 334 335 337 338 339 341 340 340 340
322 321 313 307 301 295 295 299 300 302 303 302 300 302 303 303 308 307 308 313 317 318 320 322 327 328 331 331 330 330 332 332 334 334 331 329 330 329 329 328 328 329 331 332 335 335 335 334 336
318 313 310 298 296 299 298 299 303 302 301 302 301 298 302 305 307 308 308 312 313 315 316 320 323 324 325 325 325 325 326 326 330 326 324 323 323 321 322 322 322 322 323 325 330 330 329 329 330
314 311 301 298 298 298 300 302 303 301 301 301 301 298 300 305 307 305 303 308 310 310 312 315 320 321 321 321 321 321 321 321 323 320 319 317 317 317 317 318 318 319 319 320 322 321 321 321 323
307 306 297 295 298 300 300 302 301 301 302 301 300 299 300 305 304 302 301 301 306 308 310 311 315 317 317 317 317 318 317 317 316 315 315 314 314 314 314 315 316 316 316 317 317 317 317 317 317
305 304 299 299 298 299 301 303 299 301 301 300 301 297 299 301 304 303 301 300 301 304 306 306 306 309 312 312 313 314 314 313 312 311 311 310 309 309 310 310 313 313 314 314 315 315 315 315 315
305 302 298 298 297 298 301 301 300 301 300 304 304 298 298 302 304 302 300 299 298 300 301 301 302 304 303 303 309 310 310 309 308 307 306 304 308 307 307 305 308 309 311 311 312 312 312 312 313
310 298 296 299 298 299 301 298 301 299 298 300 303 300 300 305 302 299 297 298 297 299 299 299 300 300 302 301 304 306 307 306 306 305 304 306 300 299 301 304 306 307 308 309 309 310 310 309 309
303 300 300 301 300 298 301 300 300 297 298 298 300 301 302 302 299 297 296 296 296 295 296 297 298 298 299 299 299 300 301 300 300 301 300 300 299 298 301 304 305 305 305 305 306 307 306 304 301
304 299 302 302 302 302 300 300 302 298 297 300 300 301 300 299 298 297 297 297 297 296 296 297 298 298 297 296 298 298 299 298 298 298 298 299 299 297 297 297 297 297 301 297 297 297 297 297 298
299 304 304 305 303 301 299 301 300 300 300 302 301 301 300 299 298 298 298 299 298 297 296 296 296 297 297 298 297 297 297 297 297 297 297 296 296 295 294 294 294 294 295 293 293 294 295 295 297
300 302 304 303 302 301 302 299 299 299 302 304 304 302 300 300 299 299 300 300 299 298 296 295 295 295 297 296 296 296 295 296 296 296 295 294 294 293 293 293 293 292 292 292 291 292 293 293 295
301 301 301 302 302 302 299 298 299 300 303 303 303 300 300 300 300 300 300 300 300 299 296 295 295 295 296 295 295 295 295 295 295 295 293 293 293 291 291 291 291 291 291 291 291 291 291 292 293
301 296 299 300 301 299 299 295 296 301 300 300 301 301 300 300 301 301 302 300 301 299 296 295 294 295 294 295 295 295 295 295 294 294 293 292 292 290 289 290 289 290 290 290 290 290 290 290 292
295 295 291 298 300 298 297 291 299 302 300 299 298 298 300 300 301 301 301 301 300 297 295 295 296 295 294 293 294 294 293 293 293 293 292 292 291 290 289 289 289 289 289 288 288 288 288 288 289
295 289 292 296 300 297 295 292 298 299 299 297 297 298 299 300 301 300 301 299 298 296 294 294 293 293 293 293 293 293 292 292 291 291 290 291 291 290 289 288 288 288 288 287 288 287 287 286 287
289 290 293 292 296 296 293 293 297 299 298 297 298 299 299 300 300 302 300 300 298 296 294 293 293 292 292 292 291 291 291 291 290 290 290 290 290 290 288 287 287 287 287 286 287 286 286 286 287
295 293 292 296 298 294 293 294 296 298 298 297 299 300 300 299 300 301 301 298 297 295 293 293 291 291 292 290 289 288 289 289 288 289 290 289 289 288 287 286 286 286 285 285 286 285 285 284 286
293 291 291 295 297 293 292 293 296 297 298 299 299 300 300 297 298 298 298 297 296 294 293 292 292 291 292 291 290 288 288 288 288 289 289 289 288 288 286 285 284 284 284 284 284 285 284 284 285
292 290 291 291 294 291 288 288 291 295 298 299 299 300 298 297 297 295 296 296 294 292 292 292 292 291 291 290 290 287 286 286 285 286 286 287 288 287 286 285 284 284 284 283 283 283 283 281 282
289 294 294 292 288 284 289 283 289 292 293 295 296 298 295 296 297 296 294 294 293 292 292 292 292 291 291 290 289 285 284 282 284 285 286 286 287 286 285 285 284 283 283 282 283 284 282 281 280
291 292 290 290 288 286 286 283 287 292 291 293 295 298 297 297 297 295 295 294 293 292 292 292 291 291 291 290 289 286 284 284 284 284 284 284 284 285 284 284 283 282 282 282 282 282 282 281 280
292 290 289 286 285 280 286 285 284 288 291 292 294 296 295 296 295 294 294 294 293 291 291 291 290 290 290 289 288 286 285 284 283 282 282 282 283 283 283 283 282 281 281 281 281 281 281 280 281
289 287 280 278 277 280 287 284 289 291 292 293 294 295 295 296 293 293 292 291 291 291 291 291 290 289 289 288 287 286 286 285 283 283 282 282 281 280 280 281 280 280 280 280 280 280 279 279 279
287 288 281 275 277 282 282 281 286 294 296 295 295 294 295 294 294 293 292 291 291 291 290 290 289 288 288 287 286 286 286 286 284 283 282 281 280 280 280 279 279 279 279 279 279 278 278 279 279
288 284 289 282 277 277 285 287 291 292 293 293 292 292 292 293 294 293 292 291 290 290 290 290 289 289 288 287 286 286 285 283 283 281 280 280 279 280 278 278 277 278 278 278 277 277 277 278 278
287 289 282 283 273 272 282 284 286 288 290 290 290 290 291 292 293 293 293 292 291 291 290 290 290 288 288 287 286 285 284 282 281 280 279 278 278 277 277 277 277 277 277 277 276 276 277 277 277
283 283 285 286 283 278 278 283 287 289 290 290 290 292 293 293 292 293 294 293 291 290 290 289 288 287 287 285 285 283 282 281 279 279 278 277 277 277 276 276 276 276 276 276 275 275 275 275 275
289 288 288 283 281 280 283 284 294 290 291 292 292 293 293 294 295 293 293 292 290 290 289 288 288 287 286 285 283 282 280 279 278 277 276 277 276 276 276 275 275 275 274 274 274 273 274 273 273

GFSSGP_sfc_thetae_015.txt.gz
Theta_e
325 326 318 313 300 295 291 295 296 297 296 298 302 301 300 301 301 296 312 318 323 326 328 331 338 339 341 343 344 344 344 345 345 344 342 340 339 338 338 337 337 338 339 340 343 343 341 340 342
320 320 314 306 295 290 292 294 295 298 300 300 302 301 300 299 305 307 306 317 320 323 324 326 336 337 339 338 338 339 338 340 341 340 338 335 335 335 335 333 333 334 335 337 339 338 336 335 336
318 318 307 300 294 290 290 294 296 298 299 299 298 300 299 301 303 306 307 315 317 318 321 326 332 335 335 334 335 336 335 335 336 334 332 331 329 328 327 326 325 326 327 331 334 332 331 331 332
312 307 302 293 291 294 293 294 298 298 298 299 299 295 299 304 306 306 309 314 313 315 318 326 328 330 330 329 330 331 331 334 329 327 325 325 323 322 321 321 321 321 322 325 324 323 322 322 324
307 303 295 291 292 294 294 299 299 298 297 298 298 296 297 302 304 306 309 312 310 311 314 318 325 326 326 325 325 325 326 327 323 321 320 319 318 318 319 319 319 318 319 320 319 319 318 318 318
300 299 291 289 293 295 296 300 299 298 297 297 296 295 298 302 301 301 304 307 309 309 311 313 321 323 322 322 322 321 321 320 319 318 316 316 316 315 316 316 316 316 316 317 317 317 316 316 316
298 297 293 292 294 295 297 298 297 297 297 298 299 296 295 298 299 298 299 302 306 307 307 306 309 314 318 319 319 319 317 316 315 314 313 312 311 311 310 312 313 314 314 315 315 315 314 315 315
300 296 291 291 293 294 297 297 298 297 298 300 301 296 295 299 301 298 296 296 300 303 303 303 304 304 304 306 316 316 314 312 311 310 309 309 309 308 307 307 310 311 312 312 312 312 311 310 311
303 292 290 293 294 294 297 296 297 298 296 298 301 298 299 301 300 296 294 294 296 299 299 299 301 301 301 302 308 312 310 309 308 306 307 305 298 299 301 306 308 308 308 309 309 308 307 306 305
298 293 295 298 295 294 297 297 297 295 295 296 297 297 300 299 298 296 293 293 293 294 296 297 297 299 299 302 301 299 301 300 300 299 298 299 297 298 301 304 305 304 303 304 305 305 303 300 296
298 294 298 299 299 298 297 295 298 296 294 296 297 298 298 296 296 296 295 295 295 294 295 296 297 296 297 296 297 296 297 296 297 296 297 297 296 295 295 294 294 294 297 293 295 294 294 294 294
296 300 301 302 300 298 296 298 297 297 299 301 300 300 299 297 296 296 295 295 294 293 295 295 295 296 294 296 297 296 296 295 295 295 296 295 293 292 292 292 292 291 291 290 290 291 292 292 293
297 298 301 301 300 299 299 297 296 297 299 300 301 299 298 298 297 297 297 297 295 295 294 294 294 295 295 295 295 295 295 295 295 293 294 294 292 290 291 291 290 290 290 289 289 290 290 291 292
297 298 298 299 299 299 298 295 297 298 300 300 300 298 297 298 297 296 295 296 296 297 295 294 295 295 296 294 293 294 293 294 294 292 292 293 291 290 290 290 290 289 289 289 289 289 289 289 290
297 295 295 297 297 297 298 294 294 301 297 298 298 298 297 298 298 298 298 298 299 298 296 294 294 294 295 294 293 293 293 293 292 292 291 291 291 289 289 288 288 288 288 288 288 288 288 288 289
292 291 288 294 296 297 296 290 296 299 296 297 297 295 296 298 299 300 300 299 299 296 294 294 296 294 294 293 292 293 292 292 292 291 290 290 290 289 288 287 287 287 287 287 286 286 286 286 286
288 285 287 292 297 295 293 291 296 297 295 296 295 295 296 297 297 300 300 299 299 297 295 293 294 293 293 292 292 292 290 291 290 290 289 289 289 289 287 287 286 287 286 286 287 286 285 284 285
285 285 289 289 292 292 290 292 296 296 294 295 294 293 295 298 299 300 299 300 299 296 294 293 293 292 292 292 290 290 289 289 289 288 289 289 288 288 287 286 286 287 286 285 285 284 285 284 284
289 287 286 293 295 293 293 293 295 297 294 293 296 297 298 298 301 297 299 299 298 294 292 292 291 292 292 291 289 288 289 288 287 287 288 288 287 287 286 286 285 285 284 284 285 284 284 283 284
290 288 288 292 293 291 291 291 295 294 296 297 296 297 299 299 296 296 296 296 295 292 292 291 291 291 292 292 291 288 288 286 287 287 287 288 287 287 286 285 284 284 283 283 283 283 282 283 283
291 288 289 288 291 290 288 286 290 294 296 298 299 299 300 299 295 294 293 295 294 292 291 291 291 291 292 291 289 286 286 285 285 285 286 286 287 286 285 284 284 283 283 282 282 282 282 281 281
288 292 291 290 285 284 286 282 287 291 292 294 297 297 297 293 294 293 293 291 293 292 292 292 291 290 291 290 290 287 287 286 288 288 286 285 286 285 285 284 283 282 282 282 282 283 281 281 280
290 291 289 287 285 284 285 282 285 290 289 292 296 297 297 295 294 293 294 295 294 292 291 291 290 290 290 290 290 288 287 287 282 283 285 284 284 284 284 283 282 281 281 281 281 281 281 281 280
291 288 287 285 283 280 283 284 284 285 290 291 295 296 296 295 294 294 294 293 291 290 290 290 290 289 290 289 289 288 287 283 282 283 284 284 283 283 282 283 281 281 281 280 281 280 280 280 280
288 285 278 276 275 279 285 282 288 289 291 293 294 295 296 293 292 290 291 291 290 288 289 290 289 288 289 289 288 287 287 285 283 283 284 283 282 281 281 281 280 279 279 280 280 279 279 279 278
285 287 279 272 277 282 281 278 285 292 294 294 294 295 292 293 292 291 291 291 290 290 288 289 288 289 288 288 288 287 286 286 285 284 284 284 283 282 281 280 279 279 279 278 278 278 278 278 279
285 283 288 281 270 275 284 285 290 289 291 291 292 288 291 292 291 291 289 290 290 289 289 289 289 289 288 288 288 286 286 286 285 283 283 283 282 281 280 279 278 278 278 278 277 277 277 278 278
287 288 281 281 272 270 282 279 285 289 293 294 288 289 290 291 291 291 290 290 289 290 290 289 290 289 288 287 287 286 286 286 285 282 282 280 280 279 278 277 277 277 277 277 276 276 277 276 277
283 284 285 284 281 279 278 283 286 288 288 288 289 289 290 291 291 292 292 291 291 289 289 289 288 288 287 286 286 285 284 284 283 282 281 280 279 278 277 277 276 276 276 276 275 275 275 275 275
287 287 287 282 281 280 282 283 295 291 290 289 291 291 290 292 293 291 291 292 289 289 288 288 288 288 287 287 285 284 282 281 281 280 279 278 278 277 277 276 276 276 275 275 274 274 274 274 274

GFSSGP_sfc_thetae_018.txt.gz
Theta_e
323 319 318 312 298 294 290 294 294 295 295 297 301 299 299 300 300 295 311 322 326 327 332 335 341 344 346 346 346 346 346 346 345 344 343 341 338 337 337 337 337 338 338 339 342 340 337 336 338
318 318 312 304 294 288 291 294 295 296 298 299 299 299 297 298 304 307 310 321 325 325 327 331 340 341 341 340 341 343 342 342 342 341 337 336 336 335 334 333 333 334 335 336 337 335 334 334 335
316 315 306 298 292 289 290 293 294 296 297 297 296 298 299 300 303 306 308 318 321 321 323 328 338 340 339 338 339 339 337 338 339 335 334 332 331 329 327 326 325 326 330 331 330 328 326 326 328
309 305 300 294 291 294 293 295 296 296 296 297 297 297 299 303 305 307 310 317 317 317 320 330 336 336 336 336 336 335 335 335 332 330 329 327 325 323 322 322 321 322 324 323 322 321 320 320 320
305 301 294 290 290 293 295 296 297 296 295 297 297 295 297 301 304 306 312 314 313 314 317 323 333 332 332 333 333 332 334 329 327 324 322 321 321 321 320 320 319 319 320 319 319 318 317 317 317
299 297 290 288 291 295 294 297 297 296 295 295 295 293 297 299 302 305 309 309 312 312 314 318 326 329 328 328 328 328 329 325 323 321 320 319 318 318 318 317 317 318 318 318 317 317 317 317 317
298 295 291 290 293 294 296 297 295 296 295 297 296 295 296 296 300 302 306 306 308 309 310 310 314 320 325 325 325 324 324 322 320 318 317 316 314 314 314 314 315 316 316 316 316 314 313 313 313
299 294 290 290 291 293 295 296 296 296 297 298 300 295 296 298 299 298 301 303 304 305 306 306 306 308 309 314 322 321 320 318 317 315 314 312 311 310 311 311 313 314 314 313 312 311 310 309 310
300 290 288 291 292 293 295 294 296 296 295 296 300 297 297 299 296 294 293 297 300 303 303 302 303 303 303 306 312 317 317 315 315 312 312 305 299 300 302 310 310 310 310 310 309 307 305 303 304
297 289 291 296 295 293 296 296 295 294 294 294 297 297 298 298 295 294 292 294 297 299 299 301 300 299 300 305 305 303 304 302 300 299 299 296 296 297 301 305 306 305 304 305 305 304 301 297 294
297 292 296 298 297 297 296 294 297 294 293 296 296 297 297 295 295 295 294 294 296 297 298 299 299 298 298 300 299 297 297 296 297 296 296 296 296 296 294 293 293 292 295 291 293 292 292 291 292
294 298 298 300 300 297 295 296 295 295 300 299 299 297 296 295 296 296 295 294 293 293 296 297 296 298 296 295 296 295 295 295 294 295 296 294 292 291 291 291 290 290 289 289 289 290 290 290 291
296 297 299 300 299 297 298 297 295 295 298 299 299 297 297 297 297 297 298 296 294 293 295 295 295 296 296 294 295 294 294 295 294 293 295 293 291 290 290 290 289 288 288 288 288 288 289 289 290
295 297 297 297 298 297 297 295 296 300 297 298 298 296 296 298 297 296 294 295 294 295 294 294 295 295 295 294 294 295 294 294 293 291 292 293 291 289 289 289 289 288 288 287 287 287 287 287 289
296 294 294 296 296 295 296 293 293 301 295 297 297 296 296 297 298 297 298 297 296 296 295 293 295 295 294 294 294 294 294 294 293 291 291 291 290 289 288 288 287 287 287 287 287 287 287 286 287
291 290 287 292 294 295 295 290 295 298 296 297 296 296 295 297 297 299 299 298 297 297 295 294 296 295 295 294 294 294 293 293 293 291 290 290 290 289 287 287 287 287 286 286 286 285 285 285 285
286 284 285 290 295 294 292 290 296 295 294 295 296 294 296 297 296 298 299 298 297 298 296 294 294 294 294 293 293 293 292 292 292 290 289 288 289 288 287 286 286 286 286 285 286 284 284 283 284
284 283 286 287 291 290 289 290 296 296 293 293 294 293 293 296 299 301 298 299 298 298 296 295 294 294 294 293 291 290 290 289 290 290 289 288 288 288 286 286 286 286 285 284 284 283 284 283 283
286 285 285 289 292 290 290 291 294 298 294 292 295 297 296 294 299 299 297 297 297 297 295 294 293 292 293 291 290 290 290 289 288 288 289 288 287 287 285 285 285 285 284 283 283 283 282 282 282
289 287 287 291 293 289 290 290 293 295 296 297 297 296 297 299 300 296 294 294 296 295 294 293 293 292 293 293 293 291 291 287 289 288 288 288 287 286 285 284 284 283 283 283 283 283 281 281 282
288 287 288 288 289 288 286 287 288 292 295 297 297 298 299 299 300 297 293 293 295 294 292 292 293 292 293 293 291 286 286 285 285 286 286 287 287 286 285 284 283 283 282 281 282 281 281 280 280
287 291 290 288 284 283 286 282 285 289 291 293 295 297 298 299 299 298 292 291 292 293 292 292 292 292 292 291 290 289 289 288 289 288 286 285 286 285 285 284 283 282 282 281 281 282 281 280 279
290 289 288 285 283 282 282 281 284 289 288 291 295 296 298 299 294 295 292 294 294 292 291 291 291 291 291 290 290 289 288 289 284 284 284 285 284 285 284 284 282 281 281 281 281 281 280 280 279
289 287 286 283 282 279 284 283 283 285 289 290 294 296 297 298 299 293 293 292 290 288 290 290 289 290 290 289 289 289 289 285 283 284 285 284 284 284 283 283 281 281 281 281 281 280 280 280 280
287 285 278 276 275 278 284 281 288 288 291 292 293 294 295 297 292 291 290 290 288 288 288 289 289 288 289 288 289 289 288 286 285 284 285 284 283 282 282 282 281 280 280 280 280 279 279 279 278
285 287 279 274 278 282 281 279 286 291 293 293 293 295 293 292 291 292 290 290 289 289 288 289 288 288 288 288 289 289 288 287 286 285 285 285 284 284 283 282 280 279 279 279 279 278 278 278 279
283 282 289 280 269 273 283 285 289 288 290 291 291 290 290 290 291 291 289 289 289 288 288 289 288 289 288 288 288 287 288 286 286 284 284 284 284 283 281 281 280 279 279 278 278 277 277 278 278
286 287 280 280 272 270 281 279 285 287 291 289 289 289 288 289 290 290 289 288 288 288 289 288 289 289 288 288 288 287 287 286 286 282 282 282 282 281 280 279 279 278 278 278 277 277 277 277 277
283 283 283 283 282 280 278 282 288 286 287 287 288 289 289 289 290 291 291 290 289 288 288 288 288 287 287 286 287 286 285 285 285 282 282 281 281 280 280 279 278 278 277 277 276 276 276 275 275
286 286 287 282 280 280 283 283 295 294 294 292 293 291 289 290 291 291 292 291 289 289 287 288 288 288 288 288 286 286 285 284 284 282 282 280 280 280 279 279 278 277 276 276 275 275 275 274 274

GFSSGP_sfc_thetae_021.txt.gz
Theta_e
320 317 315 310 296 294 289 293 293 294 294 296 299 298 298 298 299 294 309 321 327 330 333 336 341 348 348 348 348 348 347 347 346 344 341 339 339 337 337 337 337 337 337 341 341 338 336 335 336
316 316 311 302 293 286 289 293 294 295 296 298 298 297 297 298 304 306 312 321 327 329 331 332 339 346 347 347 347 347 346 345 344 341 340 338 338 337 334 334 335 335 336 337 335 333 331 331 332
313 312 305 297 290 288 289 292 293 295 295 295 297 298 298 299 302 306 312 322 323 324 327 331 340 342 342 342 342 343 342 342 341 338 337 336 333 331 328 328 327 331 332 330 327 325 323 323 323
308 304 298 294 291 294 294 295 294 295 295 297 295 297 298 303 304 307 311 320 319 320 323 332 339 340 340 340 340 338 338 339 337 336 333 331 328 326 325 324 324 326 324 323 322 320 320 320 319
303 299 292 289 289 292 293 295 296 296 294 295 297 295 296 300 303 307 316 318 316 316 320 326 337 336 337 338 337 336 336 335 333 332 329 326 324 323 322 322 322 321 321 320 319 318 319 318 319
298 296 290 287 289 294 295 296 296 294 294 294 294 296 297 298 302 306 312 312 315 315 317 321 330 333 334 336 335 335 334 332 329 327 324 323 322 321 320 320 320 320 320 319 319 318 317 318 316
297 294 289 287 290 293 295 296 294 294 293 296 295 293 296 296 301 306 308 309 311 313 314 315 319 324 329 331 332 334 331 328 325 323 322 321 319 319 318 318 318 319 318 318 315 315 314 314 314
298 294 289 288 289 292 294 294 294 295 296 296 299 295 295 298 300 303 305 306 307 308 310 310 311 315 315 318 325 327 327 325 322 320 319 318 316 316 315 318 317 317 316 315 312 311 310 310 309
297 289 286 289 290 293 294 293 295 295 295 295 298 296 296 297 297 299 298 301 303 305 306 306 307 307 308 310 315 320 322 322 320 318 316 311 301 303 304 312 315 313 312 312 309 307 305 303 304
296 287 289 292 293 292 294 294 294 296 293 293 296 296 297 295 296 297 296 300 300 302 303 303 303 303 303 308 308 307 309 307 305 303 301 297 296 298 302 307 310 309 308 308 306 304 301 296 292
295 291 294 297 298 296 295 293 295 293 293 295 296 297 296 294 294 297 298 301 302 303 302 302 302 300 300 302 302 301 300 299 298 297 295 294 295 297 295 294 292 292 295 291 292 291 290 290 290
293 297 296 298 299 296 294 295 293 294 300 298 298 295 295 294 294 295 295 296 297 298 300 300 300 299 297 298 300 298 297 295 295 294 295 293 293 291 291 290 289 289 289 288 288 288 289 289 290
294 296 298 298 298 297 296 296 294 295 299 297 298 296 296 296 296 296 297 296 294 295 298 298 298 298 297 296 297 295 295 296 294 293 294 293 291 290 290 289 288 287 288 287 287 287 287 287 289
294 295 296 296 296 296 296 296 294 299 296 297 296 296 295 295 297 295 294 295 293 295 295 297 297 298 297 295 296 296 295 295 293 292 293 292 291 289 289 288 288 287 287 287 287 286 286 286 287
295 293 293 293 295 295 295 292 292 300 295 296 295 296 295 296 296 296 298 297 297 296 295 294 296 296 296 295 294 294 294 295 293 292 292 292 291 289 288 288 287 286 286 286 286 286 285 285 286
289 289 286 291 292 292 294 288 296 297 295 295 296 294 294 296 296 299 299 298 297 296 294 294 297 295 295 295 294 294 294 294 294 291 290 291 290 289 287 287 286 286 286 285 285 284 284 284 284
284 282 284 288 293 292 291 289 295 295 293 294 294 295 295 295 295 297 299 299 298 297 296 293 295 295 295 294 294 293 293 293 293 290 290 289 289 288 287 286 286 286 285 284 285 283 283 282 283
282 282 284 285 290 289 288 289 294 297 293 293 294 295 296 297 299 300 297 299 298 297 296 295 294 295 294 294 292 291 291 291 290 291 290 289 289 288 286 285 285 285 284 284 283 283 283 282 282
285 284 283 288 291 288 289 290 293 296 296 292 293 296 297 298 301 300 297 296 296 295 295 294 293 293 294 292 290 291 291 290 290 291 290 288 288 287 286 285 284 284 283 283 283 282 282 282 281
288 286 285 290 292 287 288 288 292 293 295 297 297 296 297 298 298 299 294 293 294 295 295 295 293 293 293 294 294 292 293 289 291 290 289 288 287 286 285 285 284 283 282 282 282 282 281 281 281
286 284 287 286 288 287 285 287 288 291 293 296 297 298 298 298 298 299 294 292 293 294 294 294 293 293 294 294 292 286 286 285 285 286 287 287 287 286 285 284 284 283 282 282 281 281 281 280 280
286 289 289 287 283 282 285 280 285 289 291 291 294 296 296 297 297 297 296 291 291 294 294 294 293 292 293 293 291 290 290 289 288 290 288 287 286 285 285 284 283 283 282 281 281 282 281 280 279
288 288 287 284 281 281 281 279 283 286 286 290 293 295 296 297 296 297 296 293 293 292 292 292 292 291 292 292 292 291 290 291 287 286 285 286 285 285 284 284 282 282 282 281 281 281 281 280 280
288 285 284 282 281 278 282 282 283 283 287 288 291 293 295 297 295 294 292 292 291 289 289 290 290 290 291 291 291 290 290 286 284 284 285 285 285 284 283 283 282 281 281 281 281 281 280 280 280
287 283 277 275 274 277 282 280 287 289 289 291 293 293 293 292 292 292 291 291 289 287 287 288 289 289 290 289 290 290 289 287 287 285 286 285 284 283 282 283 281 281 281 281 281 280 280 280 279
284 284 278 271 274 281 280 280 288 290 292 291 289 290 291 291 291 290 291 290 288 287 286 288 288 288 288 288 289 289 289 288 288 286 287 286 286 285 283 283 282 280 280 280 280 280 279 279 279
282 281 285 280 271 272 282 285 292 288 289 288 289 287 288 289 289 289 290 289 288 287 286 286 286 288 288 287 289 288 288 288 287 285 285 286 285 285 282 283 281 280 280 280 279 279 278 278 278
285 286 280 279 275 270 280 280 284 288 292 294 289 288 288 289 289 290 290 289 288 287 286 286 286 288 287 287 288 288 288 287 286 283 284 285 284 284 282 282 281 280 280 279 279 278 278 277 277
282 282 282 283 282 279 277 282 293 291 288 287 287 288 289 291 292 291 291 291 289 288 286 286 286 286 287 287 287 287 286 287 286 284 284 284 283 283 282 282 281 280 279 279 278 277 277 276 276
285 285 285 281 279 281 283 283 295 295 295 294 295 295 291 290 291 291 291 292 291 288 287 287 286 286 287 287 286 286 286 286 285 285 284 284 283 282 282 281 281 280 279 278 278 276 276 275 275

GFSSGP_sfc_thetae_024.txt.gz
Theta_e
320 315 312 308 295 293 288 291 293 292 292 299 297 297 297 297 298 292 309 321 325 329 333 340 347 349 349 349 348 347 349 348 347 346 344 341 339 338 338 337 338 338 339 342 340 336 335 335 335
314 314 309 301 292 285 286 293 294 295 295 297 297 297 298 298 303 306 310 321 327 331 331 332 343 348 349 348 348 349 348 347 346 343 341 340 340 338 337 336 336 337 337 336 334 332 331 330 331
312 310 303 295 288 285 287 292 292 294 295 295 298 300 299 298 302 306 313 321 325 327 329 331 341 347 348 348 349 348 348 346 343 342 340 339 336 334 333 332 333 335 334 331 328 325 324 324 324
307 303 297 293 289 293 293 295 292 293 298 295 299 296 298 301 304 306 312 321 322 323 327 333 340 343 343 343 343 343 344 343 341 337 337 335 334 330 329 327 330 329 327 325 323 321 321 321 320
302 298 290 287 288 292 293 295 294 294 293 293 296 295 295 299 302 306 316 320 321 319 323 328 339 342 342 341 341 340 339 338 337 336 334 333 329 327 325 325 325 324 323 321 320 320 320 320 318
297 295 289 285 287 292 294 294 294 293 293 293 296 295 296 297 301 306 314 315 317 317 319 324 333 336 339 338 340 338 337 336 335 334 331 328 326 324 323 322 322 322 321 320 320 319 318 317 316
296 293 288 286 288 292 294 294 294 292 293 295 297 295 296 297 300 307 310 310 313 315 316 319 324 330 331 333 334 334 335 334 332 331 327 325 323 322 321 321 321 321 320 319 317 316 316 315 314
297 294 288 287 287 291 294 293 293 294 295 295 297 294 295 298 302 306 307 308 308 310 313 314 316 319 320 322 329 331 333 332 330 327 325 323 322 321 320 321 320 320 319 316 314 313 313 311 310
296 289 286 288 288 292 293 293 294 296 295 295 297 296 296 296 301 303 301 302 304 307 308 309 311 313 313 314 319 325 327 326 324 322 320 313 305 306 306 313 319 318 316 314 312 310 308 306 306
295 287 288 291 291 292 293 293 294 296 294 293 295 296 296 295 299 301 300 303 302 304 305 306 307 308 308 312 311 311 313 312 309 307 304 300 299 300 303 310 316 315 313 310 309 306 302 295 290
294 291 292 294 295 295 294 292 294 292 293 294 296 297 295 294 296 300 301 304 306 306 305 305 305 305 305 306 306 305 304 303 302 301 298 296 296 299 298 297 296 294 298 293 293 290 289 289 289
293 296 295 296 297 295 293 294 293 294 300 298 298 297 295 294 294 297 299 301 301 302 304 303 303 303 302 303 304 303 302 299 298 297 294 293 293 293 293 291 289 288 288 288 288 288 288 288 289
293 294 297 297 297 296 296 296 294 294 299 298 297 296 295 295 295 296 298 299 298 299 302 302 302 303 302 300 300 300 299 299 297 294 294 293 292 290 290 289 288 287 287 287 286 287 287 287 287
293 294 294 295 295 296 295 297 293 296 297 296 295 295 294 295 296 294 293 295 294 297 300 301 301 303 301 300 300 301 298 296 294 293 294 292 292 290 289 288 287 286 286 286 286 286 285 285 286
293 291 291 292 293 293 294 292 290 298 294 295 294 294 295 294 295 296 298 297 297 296 297 299 300 301 299 299 298 298 298 296 294 293 292 292 291 289 288 288 286 286 286 286 286 285 285 284 285
287 287 285 289 291 291 293 287 296 295 292 294 294 294 293 295 295 297 299 298 298 297 294 295 300 299 298 298 296 297 295 295 295 293 292 292 291 289 287 287 286 286 285 285 284 284 283 283 283
283 282 283 286 292 291 290 286 294 293 292 292 293 294 295 296 296 295 297 298 298 297 296 294 296 297 297 297 295 294 293 294 294 292 291 291 291 289 288 287 286 285 284 284 284 283 282 282 282
282 280 283 283 288 287 287 288 292 296 291 294 296 296 295 297 299 302 297 297 298 297 297 295 294 296 296 296 293 291 290 292 291 292 291 290 291 289 287 286 285 285 284 283 283 282 282 282 281
283 283 282 286 289 286 288 289 291 294 295 295 296 296 295 297 300 301 296 295 294 294 294 294 293 294 294 293 291 291 291 291 291 292 291 290 290 288 287 286 285 284 283 283 282 282 281 281 281
286 285 284 288 290 286 286 287 291 292 293 296 296 296 297 298 297 298 294 293 293 294 294 294 293 293 294 294 294 293 294 292 293 292 290 290 288 287 287 286 284 284 283 282 282 282 281 281 280
284 283 285 285 286 285 284 285 286 290 292 294 296 296 296 296 297 298 295 290 291 292 293 294 294 293 294 294 293 286 286 285 286 287 289 289 288 287 287 285 285 284 283 282 281 281 281 280 279
285 288 287 286 282 279 284 279 286 292 292 290 293 293 292 293 294 294 294 292 291 293 293 294 294 293 293 293 292 291 291 289 290 291 291 289 288 287 286 286 285 284 283 282 282 281 280 280 280
286 287 285 283 281 279 279 278 282 285 286 289 290 292 292 292 292 293 294 293 293 292 291 292 292 292 292 293 293 292 292 293 289 289 288 287 287 286 285 285 284 283 283 282 281 280 280 280 280
288 285 284 281 280 276 281 281 281 283 286 288 290 292 292 292 292 291 291 291 291 290 289 289 289 290 291 292 292 291 292 289 286 286 287 286 286 285 284 284 284 283 283 282 282 281 280 280 280
285 283 277 275 274 277 280 279 286 287 289 290 292 292 291 290 290 290 292 292 290 289 287 287 287 287 289 289 291 291 291 287 287 286 287 285 285 285 284 284 283 282 282 282 282 281 281 280 279
283 284 278 273 272 281 278 278 285 289 291 290 288 290 289 289 289 290 291 290 289 289 286 286 286 286 287 287 288 288 289 288 288 286 287 287 287 287 286 284 284 283 282 281 281 281 281 280 280
281 281 285 281 273 273 282 286 289 288 286 286 288 288 287 289 289 291 291 290 289 288 286 285 285 286 286 286 287 287 288 287 287 285 285 286 286 286 284 284 283 282 282 281 280 280 280 280 280
285 286 280 280 275 272 280 279 284 288 291 291 288 286 288 289 290 291 290 290 290 288 286 285 285 286 286 286 287 288 288 288 286 284 284 285 285 284 283 283 283 282 281 281 280 280 279 279 279
282 282 282 283 282 278 277 281 292 288 286 286 286 290 290 293 293 291 291 290 290 290 288 285 285 285 285 285 285 286 286 285 284 284 285 285 285 284 283 283 283 282 281 281 280 280 279 279 278
287 286 286 282 279 280 282 282 294 293 293 291 290 289 288 288 287 288 288 288 288 287 288 289 288 286 286 286 285 284 284 283 284 285 284 285 284 284 284 283 282 282 281 281 280 279 279 278 277

GFSSGP_sfc_thetae_027.txt.gz
Theta_e
321 317 315 312 300 297 293 295 298 298 299 301 301 301 302 303 302 299 313 325 327 332 337 343 348 350 351 350 349 348 347 349 348 347 345 343 340 339 338 339 339 340 343 342 340 336 335 335 335
316 316 312 304 295 290 290 296 298 299 301 301 302 302 302 302 306 310 317 323 329 333 337 343 345 349 350 350 350 349 349 349 348 347 343 340 338 339 338 337 337 338 337 336 335 332 331 330 330
314 311 306 298 291 289 290 296 298 300 300 302 302 303 303 304 307 311 317 325 330 333 336 338 344 348 350 349 349 349 349 350 348 345 342 339 338 337 336 336 336 336 335 333 329 326 325 325 324
309 306 300 297 293 295 295 299 298 299 300 300 302 300 302 306 309 311 317 325 330 332 333 335 344 348 348 348 349 350 349 348 344 342 340 339 336 334 333 332 335 334 331 328 324 322 322 322 321
304 300 293 292 291 295 297 299 299 298 299 300 301 300 300 306 307 311 319 325 329 329 331 335 341 345 345 346 347 346 345 344 342 338 338 336 334 331 329 329 330 327 325 322 321 321 321 319 319
300 299 292 289 290 294 296 298 299 298 299 299 299 300 302 304 306 310 320 323 326 328 328 332 334 339 341 342 343 342 342 339 338 337 336 334 331 328 326 326 325 323 322 322 322 321 319 318 317
298 295 291 291 291 294 297 298 297 298 299 299 301 300 303 302 305 312 318 320 323 324 325 328 333 335 333 337 339 339 339 336 337 336 334 331 328 326 324 323 323 323 322 322 320 319 318 316 315
299 297 292 291 291 293 297 297 298 298 299 300 301 299 301 305 305 311 314 316 318 320 322 324 327 330 331 332 331 332 334 333 335 333 330 327 326 325 324 323 323 322 321 319 317 317 315 313 311
300 292 289 291 290 294 297 296 298 299 299 299 300 301 302 300 306 309 311 311 312 314 317 320 323 325 326 326 327 328 329 331 330 327 324 320 318 318 318 318 323 321 318 316 314 313 311 309 307
297 290 291 293 293 295 296 296 298 298 297 297 298 300 299 300 304 306 308 310 310 312 313 315 318 320 320 320 324 326 324 325 323 320 317 312 311 312 311 315 319 319 316 313 311 308 303 297 297
296 293 294 294 294 296 297 295 298 296 296 297 298 300 299 297 301 304 307 310 312 313 313 312 314 316 316 318 318 319 317 318 315 313 309 308 307 308 309 310 308 307 305 304 302 298 296 296 296
294 296 295 298 297 296 296 297 295 296 302 302 301 301 299 297 298 301 304 306 308 308 311 311 311 312 313 314 314 314 314 312 310 309 306 304 304 305 304 304 302 301 299 297 296 295 295 295 294
294 295 297 297 297 297 297 297 296 295 300 301 298 298 298 298 299 299 303 306 306 305 308 309 310 311 311 310 312 311 312 310 308 306 303 301 301 302 301 300 297 296 294 295 294 294 293 294 293
294 295 295 295 296 296 296 298 295 297 300 298 297 298 297 297 299 298 297 300 301 305 306 308 308 310 309 310 309 310 309 308 305 304 302 299 300 300 299 296 294 293 293 293 293 293 292 293 293
294 292 292 292 294 294 294 293 291 299 296 297 297 296 295 297 297 298 301 299 300 302 304 305 306 308 308 308 307 309 307 304 304 303 300 298 298 297 297 295 293 292 292 292 292 291 291 291 291
289 289 286 290 292 292 294 288 295 295 293 295 295 295 295 297 297 299 300 300 301 300 299 303 305 305 307 307 306 307 306 304 304 302 300 298 297 296 294 294 293 292 291 292 291 290 290 290 290
286 283 283 287 292 291 291 289 293 294 293 295 296 296 297 299 299 299 299 299 300 300 299 298 302 304 305 306 305 305 304 304 303 301 299 298 296 295 294 294 293 291 290 290 290 289 290 289 289
283 281 283 284 289 288 288 289 293 295 293 294 296 297 298 298 300 302 301 299 299 299 300 298 298 302 303 304 303 301 299 301 300 299 298 297 296 294 294 293 292 290 290 289 289 289 288 289 289
284 283 282 285 289 287 289 289 291 293 293 294 295 296 296 297 300 301 299 299 298 297 297 297 295 298 300 300 297 296 296 297 297 298 297 296 296 294 293 292 291 290 289 289 289 288 288 287 287
286 285 284 288 290 286 286 288 292 293 294 295 296 296 296 296 297 297 297 297 297 297 296 297 296 296 297 299 299 299 299 298 297 297 296 296 295 294 293 292 291 290 289 288 288 288 286 287 286
284 283 285 284 286 286 284 285 287 290 291 294 295 296 296 295 295 296 296 295 296 295 295 296 296 295 296 298 297 291 293 292 293 293 293 293 294 293 293 291 291 289 289 288 288 288 288 286 285
284 287 287 285 283 280 285 279 286 292 293 293 293 293 292 293 294 295 294 294 294 296 296 295 295 295 295 296 295 294 295 293 294 295 294 293 293 292 292 291 290 289 289 288 287 287 288 287 285
286 286 285 284 282 281 281 279 283 286 287 290 293 293 293 294 294 293 294 294 294 294 294 294 294 294 294 295 296 294 295 295 292 294 293 292 291 292 290 290 289 289 288 288 287 286 286 287 287
287 285 284 281 281 276 281 281 281 285 287 288 292 292 292 292 292 293 294 294 293 293 292 292 292 292 293 293 294 293 294 293 290 290 291 290 290 289 289 289 288 289 288 287 287 287 287 286 286
287 283 278 276 275 278 281 279 284 288 289 290 291 292 291 291 291 292 293 293 293 292 291 290 290 290 291 292 292 292 293 293 291 290 291 289 289 289 288 288 288 287 287 287 287 286 286 286 285
284 285 280 275 273 282 279 279 284 289 291 289 290 290 290 291 291 291 291 290 290 290 290 289 288 288 289 290 290 291 292 292 291 290 291 290 290 290 290 288 288 287 286 286 286 286 285 286 286
283 282 287 281 276 274 281 285 289 288 289 289 288 290 288 288 288 288 288 288 288 288 288 288 287 288 288 288 288 289 289 290 290 289 290 290 290 290 289 288 287 286 285 285 285 285 284 284 285
286 287 281 281 275 274 280 280 283 288 290 287 285 286 287 287 287 287 287 287 288 288 288 289 289 288 288 288 288 288 288 289 289 287 287 288 289 289 288 287 287 286 285 285 284 285 284 283 283
283 282 283 283 284 278 277 281 289 286 282 282 284 285 284 284 284 285 285 286 287 288 288 287 287 288 288 288 288 287 287 287 287 286 287 287 287 287 286 286 286 285 284 284 283 284 283 282 282
287 285 285 282 280 281 282 282 294 285 284 282 281 282 283 283 283 284 284 285 285 286 287 287 287 287 287 287 287 287 286 286 286 286 286 286 286 286 286 285 285 284 284 284 283 283 282 282 281

GFSSGP_sfc_thetae_030.txt.gz
Theta_e
326 325 328 322 306 305 299 301 305 304 304 307 307 307 307 308 305 302 320 330 332 333 340 347 349 352 351 350 350 348 349 349 349 347 346 343 341 340 341 341 342 345 344 342 339 336 335 335 335
323 322 324 317 301 296 298 303 304 306 306 307 307 307 307 306 312 315 321 329 333 334 341 345 346 351 352 351 350 348 348 350 348 347 345 342 339 339 338 337 338 339 339 338 336 334 331 331 329
319 318 314 308 302 297 298 303 305 305 306 307 307 309 309 308 312 317 324 330 333 335 339 342 345 349 351 351 350 350 349 350 349 346 343 340 337 337 337 337 336 337 336 335 330 327 326 325 324
319 317 312 301 298 302 301 304 306 307 306 307 308 306 310 313 314 318 325 331 333 335 338 340 345 349 350 350 350 349 349 350 349 346 342 340 338 336 335 335 336 335 334 330 326 323 323 322 321
318 313 302 299 298 301 304 306 305 305 305 306 306 306 307 311 314 317 326 330 333 335 339 341 344 347 349 349 349 349 350 349 346 344 341 340 337 335 332 332 334 331 328 325 323 323 321 320 319
310 311 299 297 298 302 305 306 305 305 306 305 305 306 309 311 312 316 325 330 334 335 338 340 338 341 344 347 347 348 347 345 342 341 339 338 336 333 330 330 329 327 324 323 323 322 320 319 317
306 304 299 298 299 301 304 305 304 305 305 306 308 305 310 310 312 317 324 330 334 336 337 338 339 341 335 339 340 341 342 340 339 339 338 336 334 330 328 328 326 324 323 324 322 320 318 317 315
311 307 299 300 299 299 305 304 306 305 305 307 308 305 306 311 312 318 323 327 331 334 335 336 338 339 341 342 333 335 337 337 336 336 334 331 329 328 327 325 325 324 323 321 320 318 316 314 311
308 302 298 299 298 301 305 303 305 306 306 306 308 309 311 309 313 317 320 323 326 328 332 335 335 335 338 336 333 330 331 331 332 331 328 325 328 325 323 322 325 324 321 319 318 315 313 310 307
306 301 300 303 304 302 304 304 306 304 305 306 306 310 309 308 312 314 316 318 322 324 327 330 332 332 335 332 333 333 334 334 332 331 329 329 325 323 321 319 322 323 320 316 315 312 306 302 303
305 300 304 302 303 303 303 303 305 304 303 307 307 309 311 308 309 311 314 317 320 323 325 326 328 331 332 331 331 332 332 333 331 330 329 325 322 319 319 319 320 320 314 313 311 306 302 301 303
301 304 304 304 303 303 302 304 303 304 306 309 310 310 310 308 308 309 311 314 317 320 322 324 325 327 329 331 329 330 327 330 327 328 325 321 318 317 316 317 317 316 313 310 306 302 302 301 300
301 303 304 305 304 303 304 303 303 304 308 309 309 307 307 308 309 310 311 313 315 316 319 321 323 324 326 327 327 328 328 327 326 326 321 319 317 315 314 314 314 313 310 307 302 301 300 300 299
302 302 302 303 302 303 301 302 302 304 307 306 306 306 307 307 308 309 309 308 311 314 316 319 320 322 323 324 325 325 325 326 325 323 320 317 315 313 311 311 310 309 306 303 301 300 300 299 299
301 298 300 301 300 300 301 298 298 305 306 304 305 306 306 306 307 307 309 309 310 311 313 315 317 319 320 321 323 323 322 323 322 320 318 315 313 310 309 309 307 305 302 301 300 299 299 298 297
297 296 293 300 297 299 300 294 302 305 302 302 304 306 306 307 308 309 309 309 310 310 310 312 313 315 318 319 320 320 321 319 319 318 316 313 310 308 306 306 305 302 300 299 298 297 297 297 297
296 291 294 295 298 297 298 295 301 303 301 301 302 304 304 306 307 309 310 309 310 310 309 309 311 312 314 317 318 318 318 317 316 316 314 311 309 306 304 304 303 300 298 298 298 297 297 296 296
293 292 293 292 297 296 294 294 298 301 300 300 301 302 304 304 305 307 308 309 309 309 309 309 308 310 312 314 315 316 315 315 315 314 313 311 307 305 303 302 302 299 298 297 297 296 296 297 296
294 292 291 295 298 294 294 295 297 299 299 300 301 302 304 304 306 306 306 307 307 307 307 307 306 306 308 309 310 311 310 311 311 312 311 309 307 304 303 302 300 298 297 297 296 296 294 294 295
293 291 291 295 297 293 294 293 296 298 299 300 300 302 303 303 304 305 305 306 306 305 305 305 305 305 305 307 309 309 308 309 309 310 309 308 306 304 302 301 300 298 297 297 296 295 294 295 294
293 291 292 292 294 294 292 293 294 299 298 300 301 301 301 300 302 303 303 303 303 303 303 302 303 304 304 305 306 306 304 305 304 305 305 304 304 303 301 301 300 298 298 296 296 295 295 293 293
290 296 292 290 289 286 292 286 294 298 299 300 300 299 300 301 301 301 301 300 300 300 301 301 302 302 301 302 303 303 301 300 302 302 303 303 302 302 301 300 300 299 297 297 297 296 296 297 292
291 292 291 290 289 287 289 286 294 295 293 297 297 298 299 299 298 297 297 297 297 298 298 299 300 300 300 300 301 301 301 302 303 302 302 301 300 300 300 299 299 298 297 297 297 295 295 296 296
293 292 291 289 288 284 291 288 290 293 294 296 296 296 296 295 295 295 295 295 294 295 296 297 297 296 298 299 299 300 299 299 300 298 298 299 298 298 298 298 298 298 297 296 296 296 295 295 295
291 289 284 285 284 285 287 287 290 296 296 294 293 293 293 293 293 292 292 292 292 292 293 294 294 293 295 296 297 298 298 298 298 298 297 297 297 296 296 297 297 296 296 296 296 295 294 294 293
289 290 284 280 282 286 291 286 292 297 293 294 294 293 293 292 292 291 291 291 292 291 292 292 292 292 292 293 294 295 296 297 298 298 297 297 297 297 297 297 296 296 296 295 295 294 294 294 293
288 286 292 285 286 281 287 292 294 293 291 292 291 292 290 290 290 290 290 290 290 291 291 291 291 291 291 292 292 293 294 294 295 296 297 297 297 297 297 296 295 295 295 294 294 293 292 292 293
291 293 285 286 278 277 284 287 288 289 288 290 289 288 288 289 289 289 289 289 290 290 291 291 291 290 290 290 291 291 292 292 293 293 293 294 295 295 295 295 294 294 294 293 293 292 292 291 291
287 285 286 286 284 280 279 284 293 290 288 288 287 287 287 287 287 288 289 289 289 289 289 289 289 288 288 289 289 290 291 291 292 291 292 292 293 293 293 294 293 293 293 292 291 291 291 289 289
291 289 289 283 281 284 283 284 295 289 287 286 284 284 286 286 287 287 287 287 287 287 288 288 288 288 287 288 288 288 289 290 289 290 291 291 291 291 292 292 292 292 292 291 290 289 289 288 288

GFSSGP_sfc_thetae_033.txt.gz
Theta_e
328 326 326 322 307 305 301 302 307 306 307 310 309 309 308 309 306 304 323 330 332 336 342 348 350 351 352 351 350 350 350 349 349 349 347 346 345 344 344 345 347 346 343 341 339 337 337 336 334
323 322 322 314 303 298 299 305 304 307 309 310 310 309 308 307 313 316 322 330 332 335 341 345 348 351 351 351 350 350 350 349 348 347 345 343 341 340 340 339 340 341 340 339 337 335 333 331 328
323 320 313 307 303 298 299 305 306 308 310 309 309 312 311 309 315 318 327 331 333 334 340 343 346 351 351 351 350 349 349 350 349 347 345 342 339 337 337 337 337 338 337 336 331 328 328 325 325
319 317 312 302 300 303 303 306 308 308 310 310 310 307 313 316 316 321 327 332 332 334 339 343 346 350 351 351 350 349 348 350 350 348 343 341 338 336 334 335 336 335 335 331 327 325 324 323 321
318 312 303 301 301 303 306 307 308 307 308 309 309 307 309 315 318 320 328 331 332 334 336 341 345 348 350 350 350 350 349 350 350 347 344 342 340 336 334 333 334 334 331 327 324 323 321 320 319
310 310 301 299 301 304 307 309 308 308 309 309 307 308 310 316 316 319 326 330 333 333 336 337 338 342 346 348 348 348 348 349 348 346 344 341 339 336 333 331 333 330 327 323 323 322 320 319 317
308 305 301 301 301 302 305 309 307 307 307 308 311 305 311 313 316 319 324 329 333 334 336 338 340 341 337 342 344 345 347 347 344 342 339 339 337 334 331 330 330 327 324 324 323 321 319 317 315
311 307 301 302 300 301 306 307 309 307 306 311 311 305 307 315 316 320 324 327 331 334 335 336 338 340 342 344 335 337 340 339 338 336 334 333 332 331 330 328 328 325 324 324 321 319 317 315 312
312 302 300 301 301 302 307 304 309 310 307 309 310 310 313 314 316 319 321 324 327 331 334 336 336 337 338 340 338 332 333 333 332 332 329 327 331 329 326 324 326 325 324 322 320 317 315 312 308
307 302 302 306 306 304 305 305 306 306 306 307 309 312 314 312 314 315 317 319 323 326 331 334 335 336 336 335 339 340 339 337 337 335 334 331 331 329 324 320 323 326 323 320 318 315 311 307 306
307 301 305 306 307 306 305 304 307 304 303 306 306 309 312 313 313 313 314 317 319 324 327 331 333 335 334 335 335 336 335 334 336 335 333 330 330 327 322 322 321 322 316 315 314 309 304 305 305
302 305 306 307 307 305 304 306 304 305 305 309 310 311 311 311 311 311 312 314 316 319 324 327 330 332 333 334 333 333 332 334 335 334 331 330 328 324 321 320 321 322 317 316 313 308 307 304 303
303 304 305 306 306 306 306 304 304 304 308 310 310 310 310 310 310 312 313 314 316 316 320 325 328 328 330 332 332 331 331 332 332 331 327 329 325 322 319 319 319 319 316 313 309 306 304 304 302
304 303 303 304 304 304 302 303 304 305 308 308 308 308 309 309 310 311 312 312 313 315 318 321 325 327 327 329 331 330 330 330 330 329 329 328 324 321 318 317 317 316 314 311 306 304 303 303 303
303 298 301 302 303 303 303 299 300 306 307 306 306 307 308 309 310 310 311 311 313 314 316 319 321 324 325 327 328 329 329 328 329 328 329 326 323 319 316 315 315 314 312 308 305 303 303 302 301
298 300 294 302 301 301 301 295 303 306 304 304 304 306 307 308 309 311 311 311 312 313 314 316 317 320 323 324 326 327 327 327 327 327 326 324 321 318 315 312 312 312 307 304 302 301 300 301 299
299 293 296 298 303 300 298 296 302 305 303 303 304 305 306 307 308 310 311 311 312 312 312 313 315 317 319 322 323 324 325 324 324 324 323 322 319 316 313 310 310 309 304 302 301 300 300 299 299
295 296 297 296 300 300 298 297 301 304 304 303 304 305 305 306 307 308 309 309 310 311 311 311 312 312 315 317 320 321 322 322 322 321 320 319 317 314 311 309 308 306 302 300 300 300 300 300 299
297 295 294 297 300 298 297 297 299 302 302 303 304 305 305 305 307 307 307 308 308 308 308 308 309 310 310 312 314 315 316 318 318 319 319 318 315 313 310 307 306 304 301 300 300 299 298 298 299
295 293 293 297 300 298 296 295 298 300 302 303 304 304 304 304 304 304 303 304 303 303 304 305 306 307 307 310 312 313 313 315 315 316 316 315 314 311 308 306 304 303 300 300 299 298 296 297 297
295 294 294 293 296 297 295 293 297 302 305 303 302 303 303 301 300 300 299 299 300 300 301 302 303 305 305 306 308 309 310 308 308 310 312 312 312 310 308 305 304 302 300 299 299 298 297 294 295
291 297 295 293 291 287 294 285 295 300 301 298 299 299 299 299 298 298 297 296 297 299 301 301 301 302 302 304 304 304 304 302 304 306 308 309 309 308 307 305 304 302 300 299 299 298 297 297 293
292 295 293 292 290 290 291 288 294 300 296 296 297 297 297 296 296 295 295 295 296 297 298 299 299 299 300 302 302 302 301 303 304 305 306 306 306 306 305 305 303 301 300 299 298 297 296 297 296
296 293 293 294 291 286 292 292 292 294 294 294 295 295 295 295 295 295 295 295 295 296 297 297 296 296 298 298 299 300 300 300 300 301 302 302 303 302 302 303 302 301 300 298 298 297 296 296 296
292 290 287 286 286 286 291 291 293 297 295 296 294 294 294 295 294 293 293 294 294 294 294 294 294 293 295 296 296 297 297 298 298 299 300 300 300 300 299 300 300 299 299 299 298 297 296 295 295
292 292 287 280 282 286 292 286 293 296 295 296 295 294 294 293 293 292 292 292 292 293 293 293 293 291 292 293 293 295 295 296 297 297 298 298 298 299 300 299 299 298 298 297 297 296 296 295 295
292 288 294 287 286 283 287 292 298 294 293 294 294 293 292 291 291 291 291 291 291 291 291 291 291 291 291 291 292 292 293 293 293 294 296 296 297 297 298 299 298 297 296 296 296 295 294 294 294
290 292 286 286 278 278 284 287 289 291 291 292 291 290 290 290 290 290 290 290 290 290 291 291 290 289 289 290 290 291 291 292 292 293 293 293 294 295 295 295 296 297 296 295 294 293 293 293 293
289 286 287 287 286 280 279 284 295 291 293 291 289 288 288 289 289 289 289 289 289 289 289 289 289 288 287 288 289 289 289 290 290 290 290 291 292 292 292 293 293 294 294 294 294 293 293 291 291
294 290 290 283 282 284 283 284 298 291 291 289 287 287 287 287 286 287 287 287 287 287 286 286 287 286 286 287 287 287 287 288 288 288 288 288 288 289 290 291 290 291 292 292 292 291 291 291 290

GFSSGP_sfc_thetae_036.txt.gz
Theta_e
328 325 321 317 304 302 297 299 301 304 303 304 305 303 301 303 301 299 318 325 329 335 343 348 350 353 353 352 352 352 351 350 350 350 350 348 347 345 347 348 347 345 343 341 340 339 338 337 333
320 320 317 311 298 294 294 300 301 303 304 304 304 303 302 301 308 314 316 327 329 334 343 346 347 351 352 352 351 351 351 351 351 349 347 345 343 342 343 343 345 343 341 338 337 336 334 330 330
320 318 310 304 298 293 294 300 301 303 305 303 302 304 303 304 309 313 322 328 328 330 343 345 347 351 352 351 350 351 351 350 350 348 346 344 342 340 339 338 340 340 339 335 332 330 328 327 326
317 313 308 296 296 298 298 300 303 303 304 303 303 301 305 310 310 317 324 328 326 329 338 343 347 351 351 350 350 350 350 351 350 349 346 343 340 337 336 336 337 337 336 332 328 326 325 324 322
314 309 299 296 297 297 298 302 302 302 302 302 302 300 302 309 315 318 324 327 325 328 334 343 346 349 350 350 350 349 349 350 350 349 347 344 342 336 335 334 336 335 333 328 326 325 322 321 319
306 304 296 294 297 300 300 304 303 302 302 302 299 300 302 310 311 313 323 324 327 328 332 341 340 343 347 349 349 349 349 349 350 348 346 344 341 337 334 332 334 333 329 325 325 322 321 319 317
304 302 297 296 297 298 301 303 299 301 301 300 303 298 302 305 311 314 316 322 326 327 331 333 339 340 338 343 344 346 347 347 348 346 344 340 338 335 334 332 333 329 326 324 324 322 320 318 315
306 302 296 295 296 297 301 301 302 300 301 304 303 297 300 305 311 312 316 319 324 326 330 331 333 337 339 340 336 339 342 342 342 340 336 333 333 332 331 328 331 327 325 325 323 320 318 316 312
309 297 294 297 297 298 302 298 302 302 300 302 304 302 305 310 312 311 315 316 320 325 328 330 331 335 337 337 336 334 336 336 335 332 328 327 326 328 325 324 327 327 326 324 322 319 317 313 308
302 297 298 301 300 299 301 300 300 299 300 300 302 306 308 309 308 309 311 313 316 320 325 328 329 330 333 337 335 334 334 331 329 329 326 327 325 325 324 320 324 326 325 324 321 318 314 311 300
304 298 302 302 304 303 301 300 302 299 297 300 300 303 303 305 306 306 308 309 313 319 323 327 328 329 329 330 331 335 333 331 333 331 330 326 324 322 317 314 316 314 316 312 313 308 303 299 298
299 303 303 304 304 302 300 302 300 300 300 304 304 304 304 303 303 305 306 307 308 313 319 324 327 328 328 328 327 328 330 331 331 331 329 327 322 319 314 313 313 313 310 308 306 302 299 298 298
299 301 303 303 302 302 303 300 300 301 304 305 305 305 303 303 303 305 306 307 308 309 312 320 325 325 327 326 326 325 325 325 327 328 328 327 322 316 313 312 312 313 309 307 304 299 298 297 296
300 300 300 301 301 301 299 299 298 301 303 302 303 302 302 302 303 303 304 305 307 308 310 315 322 323 324 324 324 324 323 325 326 325 323 323 320 315 312 310 311 311 308 305 301 298 297 296 296
301 295 297 299 300 298 299 294 296 301 302 300 301 300 301 302 303 303 304 305 306 307 309 312 316 321 321 322 324 323 322 323 322 322 321 321 321 315 311 309 308 308 306 303 298 297 296 295 296
296 295 290 298 299 298 297 289 298 301 299 299 300 301 301 303 303 303 304 304 304 304 307 310 313 316 318 318 320 322 321 321 320 321 320 321 319 314 309 307 307 306 303 299 296 294 294 293 293
293 287 290 294 300 297 294 291 298 301 299 298 300 300 300 301 302 303 304 304 304 305 304 307 310 311 315 317 317 319 320 318 318 319 319 318 317 315 308 306 305 304 299 296 295 293 293 292 291
288 290 292 291 296 297 294 293 297 299 299 299 298 299 299 299 300 301 301 302 302 302 303 303 305 309 311 312 313 314 315 316 316 315 316 316 314 312 308 304 303 302 297 295 294 293 292 292 291
292 291 290 293 297 294 294 294 295 298 298 298 298 297 298 298 299 299 299 299 299 299 300 301 301 303 304 306 306 308 309 311 312 313 313 313 312 310 307 302 301 299 296 294 294 293 291 291 291
293 290 289 293 297 293 292 291 295 297 297 297 296 297 297 296 296 296 296 296 296 297 297 299 300 300 301 302 305 305 306 307 309 310 311 311 310 308 306 302 299 297 295 294 293 292 291 291 290
292 290 290 289 292 293 290 288 291 296 297 297 297 296 295 294 293 293 293 293 294 294 295 296 297 298 299 300 301 301 302 301 299 302 305 307 308 306 304 302 299 297 295 294 293 293 292 289 289
288 294 291 290 286 282 289 279 288 294 292 294 293 292 292 292 292 292 292 291 292 293 294 294 295 296 298 298 298 297 297 296 297 299 302 304 305 304 303 302 299 297 295 293 292 294 293 291 289
291 292 290 289 286 284 286 282 287 293 289 290 291 291 291 291 291 291 291 292 292 292 292 292 293 293 294 295 295 295 295 296 296 296 297 298 300 301 301 301 299 297 295 293 292 291 290 292 289
294 289 289 288 286 279 287 286 286 287 290 289 291 291 291 291 291 291 292 292 291 291 290 290 290 291 292 293 293 293 292 292 293 294 294 294 296 297 298 298 297 297 295 293 292 291 290 290 290
289 286 281 279 278 279 288 285 288 290 291 291 290 290 290 291 289 290 289 289 290 290 290 290 289 289 290 290 291 291 291 291 291 291 291 292 293 293 295 295 294 295 295 294 292 291 290 290 290
288 288 282 275 276 279 286 281 289 291 292 292 292 290 290 289 289 288 288 288 288 289 288 289 288 288 288 288 288 289 290 290 290 290 290 291 292 292 293 293 293 294 294 294 292 290 289 289 291
287 285 289 284 284 281 283 287 289 291 290 290 290 288 287 287 288 288 287 287 287 287 288 288 287 287 287 288 288 287 288 288 288 288 289 289 289 291 291 291 290 291 292 292 291 289 288 289 288
287 289 284 284 276 270 279 280 284 287 288 289 288 286 287 287 287 287 286 286 286 286 286 286 286 285 286 287 287 287 286 287 286 286 285 285 286 288 288 288 288 289 290 290 289 288 288 287 288
286 285 285 285 282 276 276 279 288 288 289 286 285 286 286 286 285 286 286 287 286 284 284 285 285 284 284 285 285 285 286 286 286 285 284 283 284 284 285 286 286 287 287 287 287 287 287 286 287
289 287 288 282 280 281 282 281 288 287 286 286 286 287 286 286 283 283 284 285 284 283 283 283 284 283 283 284 284 283 284 284 284 284 284 282 283 283 283 284 284 285 285 285 285 285 287 286 286

GFSSGP_sfc_thetae_039.txt.gz
Theta_e
323 317 316 309 297 295 291 294 297 299 298 300 302 300 298 299 298 295 316 322 335 339 344 348 351 354 354 354 353 353 352 351 350 350 349 348 348 348 347 347 347 344 342 341 340 340 338 334 334
314 318 310 303 293 288 289 295 297 299 301 301 301 300 299 298 307 312 314 323 336 340 343 346 348 353 354 353 352 352 352 351 351 350 350 348 347 345 345 347 346 344 341 338 338 336 333 331 331
316 316 303 297 291 288 289 294 295 299 301 300 299 301 300 302 307 313 319 325 329 339 342 346 347 352 352 352 351 351 352 352 353 351 348 345 344 343 341 341 341 341 340 336 333 331 329 328 326
310 307 301 292 290 293 292 293 298 298 300 301 299 297 302 307 309 316 323 325 324 337 341 344 347 351 352 350 351 351 351 351 351 349 346 344 342 341 339 339 340 338 337 334 330 328 326 323 321
308 301 292 291 291 293 295 299 299 298 298 299 300 297 299 308 314 320 323 325 322 328 338 343 346 349 350 350 350 350 350 350 349 349 347 344 340 337 335 336 338 337 334 330 328 325 322 321 319
300 297 290 288 291 295 296 300 298 298 299 299 297 297 299 307 308 315 322 322 323 326 338 343 341 344 346 348 349 349 349 350 350 349 347 345 341 338 335 334 335 334 332 327 326 323 321 319 317
300 295 291 291 292 295 297 299 296 295 296 297 299 295 300 302 307 312 319 321 323 326 336 339 342 342 340 343 344 345 346 347 348 348 345 343 340 338 334 333 333 333 329 326 325 323 320 318 315
300 296 291 291 291 293 298 298 300 297 298 301 300 294 298 304 310 312 313 317 320 323 328 334 337 339 340 341 337 339 342 342 344 343 339 335 333 333 332 329 333 330 327 326 324 322 320 317 312
302 292 289 291 292 294 298 297 300 300 297 298 301 300 302 306 310 310 311 313 316 321 325 327 331 334 337 337 336 334 336 337 337 336 331 327 326 327 326 325 329 329 327 326 323 321 318 314 309
297 291 293 296 293 295 297 295 295 295 296 296 297 301 304 307 306 307 308 310 312 316 321 325 327 330 333 338 335 334 334 334 333 330 328 325 323 323 323 320 325 327 327 326 323 320 317 309 297
299 294 297 299 300 299 299 298 298 295 294 297 297 299 300 304 304 305 306 309 311 315 319 324 326 328 331 333 330 333 334 330 328 326 327 326 322 321 319 315 317 316 318 315 315 311 305 302 298
294 300 300 301 301 299 298 299 298 297 300 301 300 301 301 300 300 303 303 304 305 312 318 322 325 327 326 329 329 331 331 329 327 327 327 326 323 318 313 312 312 311 309 308 305 303 300 297 296
294 296 299 300 300 299 299 297 298 298 302 302 302 302 300 300 300 300 303 304 305 305 313 319 323 325 327 325 324 328 330 330 329 329 329 327 324 320 311 310 311 309 307 306 303 301 296 296 295
296 297 297 298 299 298 296 295 297 299 299 299 299 298 298 298 299 299 300 302 302 305 306 315 322 323 325 325 323 322 323 324 323 323 324 327 325 319 311 309 309 309 307 305 302 298 295 294 294
297 293 295 296 296 296 296 292 295 299 298 298 298 296 298 299 300 299 300 300 301 301 305 309 319 321 322 322 322 321 321 322 321 321 321 321 323 317 311 308 308 308 306 304 299 295 295 294 294
293 290 287 295 296 296 294 288 296 298 296 297 298 296 297 298 298 298 299 299 299 300 301 305 315 318 318 319 320 321 320 318 319 319 318 319 318 315 310 308 307 307 304 301 296 294 293 292 292
288 284 287 291 297 294 292 288 296 298 297 295 295 295 296 296 296 297 297 297 298 299 300 301 306 313 316 316 317 318 319 318 317 317 317 317 317 313 310 307 306 305 301 297 295 292 292 290 290
285 284 288 287 293 294 291 291 294 296 296 295 294 293 294 293 293 295 296 296 296 297 298 299 301 303 309 311 312 312 313 314 314 315 317 318 317 314 308 306 304 303 298 295 293 292 291 290 290
289 287 286 289 294 290 290 290 293 296 293 293 292 293 292 292 293 294 294 294 295 295 296 297 298 298 300 303 305 306 307 309 310 311 312 314 315 314 308 303 302 300 297 295 293 291 290 290 289
289 287 286 290 293 290 289 289 293 294 292 292 292 291 291 291 291 292 292 292 292 292 293 294 295 297 298 299 300 302 302 301 305 307 309 310 311 311 307 303 300 298 295 293 292 291 289 289 288
289 287 287 288 289 290 286 285 288 291 292 292 292 291 291 289 289 290 290 290 291 290 290 292 293 294 295 297 299 298 299 298 297 297 302 305 306 306 307 304 299 297 295 293 291 291 290 288 288
286 291 290 289 284 280 286 279 286 288 288 289 289 288 288 288 289 290 289 289 289 289 290 291 292 292 294 294 294 294 293 293 294 295 296 299 301 302 302 301 299 296 294 292 291 292 290 289 288
288 290 288 287 284 281 283 279 284 288 286 287 287 288 288 288 288 288 289 290 289 289 288 289 289 291 291 292 292 291 291 292 292 293 293 294 296 298 299 299 298 297 295 293 291 290 289 289 289
291 288 287 285 283 277 283 283 283 285 287 287 288 288 288 287 287 288 289 289 288 288 287 288 288 288 289 290 290 290 289 289 289 289 290 291 292 294 294 296 296 296 295 293 291 290 289 290 290
289 284 279 277 276 278 285 283 286 287 289 289 287 286 286 286 286 286 286 286 287 286 286 287 287 286 288 288 288 288 288 288 288 288 288 288 289 289 290 290 291 292 293 293 292 290 289 288 289
286 286 280 272 275 277 284 280 286 288 289 289 288 287 286 286 286 285 286 286 286 286 285 285 285 285 286 286 287 287 287 287 287 287 287 286 287 288 289 289 289 289 291 292 291 289 288 288 288
286 284 288 281 283 280 281 285 288 288 287 286 285 285 284 285 285 285 285 285 285 285 285 285 285 285 285 285 285 286 286 287 286 285 286 285 285 287 287 287 287 288 288 288 289 287 286 287 287
287 288 282 281 272 273 278 279 281 284 285 285 284 284 284 284 285 285 285 285 285 284 283 285 284 283 284 285 284 284 284 285 285 284 284 283 284 285 284 284 285 286 286 287 286 286 286 285 286
284 283 284 286 283 277 271 278 287 287 286 283 283 285 285 285 284 285 285 284 284 284 283 283 282 283 283 283 284 284 283 283 284 283 283 283 283 283 283 284 283 284 284 284 284 284 285 285 285
288 286 285 278 277 278 279 280 288 286 285 286 285 286 285 286 284 283 284 284 284 283 283 281 282 282 282 282 283 282 283 282 283 284 283 282 282 282 281 281 281 282 283 283 283 282 283 283 284

GFSSGP_sfc_thetae_042.txt.gz
Theta_e
318 312 313 308 297 293 289 292 295 297 296 298 300 298 296 298 297 294 313 322 333 338 345 348 351 354 355 355 354 353 353 352 351 350 349 349 348 348 349 347 345 343 341 341 341 340 336 334 335
313 315 308 300 292 287 288 293 295 297 299 299 299 298 297 296 305 310 315 322 337 339 344 346 348 353 354 354 353 352 352 352 350 350 349 348 347 347 347 346 345 342 339 338 338 335 332 331 331
313 312 301 295 288 287 289 292 294 297 298 298 297 300 302 300 306 310 315 326 336 338 343 345 347 352 353 353 352 352 351 351 352 350 350 348 346 344 344 343 342 340 337 335 333 331 329 327 326
308 305 299 291 289 292 292 294 296 296 298 299 298 298 300 305 306 314 321 327 335 337 342 343 348 352 352 352 352 351 352 352 352 351 347 345 344 342 341 340 341 339 337 334 331 328 326 322 322
305 297 291 289 289 292 295 297 297 296 296 297 298 296 297 307 314 316 321 322 332 334 339 342 347 350 351 351 351 351 351 352 351 349 348 345 343 341 339 337 338 337 336 332 329 325 322 320 318
299 295 289 287 290 294 295 297 297 295 295 297 297 300 297 306 308 316 320 319 324 333 336 341 340 343 347 348 349 349 350 350 348 348 347 345 341 338 336 335 337 336 333 329 327 323 321 318 317
297 292 289 289 289 293 295 297 294 294 293 296 298 294 298 302 307 314 319 320 321 328 335 338 341 341 339 342 343 345 347 347 347 347 345 342 340 339 336 333 334 333 332 328 326 322 320 317 315
298 294 290 289 289 291 296 298 297 295 296 299 300 294 296 304 307 310 316 318 318 323 332 335 337 339 341 341 337 339 341 342 344 343 340 336 335 335 333 330 332 333 330 327 324 322 319 316 312
299 290 287 289 290 292 297 295 298 298 295 296 299 296 300 303 307 308 308 310 314 319 325 330 335 338 341 340 337 334 336 336 337 337 333 330 331 328 326 326 329 332 329 327 324 322 319 314 309
295 288 290 294 293 293 296 294 295 295 296 295 295 299 302 304 306 306 307 308 310 315 319 325 329 334 335 340 338 338 336 337 335 334 330 330 327 324 324 321 326 329 327 328 324 321 318 308 295
296 291 295 297 298 297 296 296 296 293 294 296 297 296 298 302 303 304 304 307 308 311 317 323 326 328 331 335 336 337 337 330 329 329 326 326 324 322 319 317 318 317 318 317 318 313 306 301 297
293 298 298 300 299 297 295 298 297 296 299 301 299 299 298 298 300 301 302 303 305 309 314 319 324 327 329 331 331 333 334 332 328 325 324 326 323 321 318 315 313 312 311 310 307 304 302 297 295
293 294 297 298 298 297 297 296 295 296 300 300 299 299 297 296 296 296 297 299 300 303 307 314 321 325 328 327 327 329 330 330 328 325 324 323 324 321 318 315 311 310 308 307 304 302 299 295 294
294 295 296 297 297 296 295 293 294 297 296 298 298 296 295 296 296 297 297 298 298 299 300 308 319 324 324 326 323 328 327 326 325 324 325 323 322 322 316 313 311 308 307 305 304 302 297 294 293
295 292 294 295 295 294 295 291 293 298 296 296 295 293 295 295 296 294 295 296 297 298 299 304 315 320 322 323 321 321 323 323 323 322 321 323 322 321 316 313 311 308 306 305 302 298 294 293 292
291 289 287 293 294 294 293 288 295 297 294 295 293 292 294 294 294 294 295 295 295 297 297 301 313 316 318 319 319 320 319 319 320 322 321 319 319 319 316 313 311 308 306 303 299 295 293 292 291
287 283 285 290 294 293 290 288 294 297 294 294 291 291 292 291 292 293 293 294 294 295 296 298 300 307 314 316 317 317 317 316 318 319 318 318 317 316 315 313 310 306 304 300 298 293 292 291 290
284 284 286 286 292 291 289 289 293 295 294 292 289 289 290 290 290 292 292 293 293 293 295 296 298 299 303 310 310 311 312 312 314 318 319 320 319 315 312 308 308 306 303 298 294 293 291 290 290
286 285 285 288 292 289 289 289 292 292 290 289 289 289 289 289 291 291 291 291 291 291 292 293 294 295 298 300 303 305 305 307 311 312 313 316 317 315 311 309 307 305 303 301 295 292 291 289 288
288 286 285 289 292 289 288 288 288 290 290 289 288 288 288 288 288 289 289 289 289 289 291 291 292 293 294 297 297 298 298 297 298 300 306 308 311 312 311 307 304 303 299 297 295 292 289 289 288
288 287 286 288 288 287 285 285 286 289 289 289 289 288 288 287 287 288 288 288 288 287 288 290 291 292 292 294 295 295 296 295 295 296 296 299 302 303 306 306 303 301 299 297 295 293 292 289 288
286 290 289 287 284 280 285 279 284 287 286 287 286 285 285 286 287 288 287 287 287 286 287 288 289 290 291 292 292 291 290 289 290 291 292 294 295 295 297 299 300 299 297 296 295 294 293 291 288
288 289 287 286 282 281 281 279 282 286 284 284 284 285 285 286 286 286 286 287 286 286 286 286 288 288 289 289 290 289 288 289 289 289 289 290 291 291 291 292 294 294 295 296 294 293 291 291 291
290 287 287 283 281 277 281 281 281 284 285 284 285 285 285 285 285 285 286 286 285 284 284 285 286 286 287 287 287 287 286 286 285 285 286 287 288 288 288 289 289 290 291 291 291 290 289 289 288
287 284 279 277 275 277 284 280 283 285 286 286 284 284 284 284 284 284 284 284 284 283 283 285 284 284 285 285 286 286 285 285 284 284 284 284 285 285 286 286 286 287 288 289 289 289 288 288 287
285 285 278 270 273 276 283 280 283 285 286 286 286 285 284 284 284 283 284 284 283 283 283 283 283 283 283 284 284 284 285 285 284 283 283 283 283 284 284 285 285 285 286 287 288 287 286 287 286
285 283 286 280 281 279 280 281 285 285 284 283 283 283 283 283 283 283 283 283 283 283 282 282 282 282 283 283 283 283 285 285 284 284 285 284 283 284 284 284 284 284 284 285 285 284 285 285 285
286 288 281 280 268 273 277 279 280 281 282 283 282 282 283 284 284 283 283 282 282 282 282 282 282 282 283 283 283 283 282 284 283 282 283 283 283 283 282 282 282 283 284 283 283 283 283 283 284
282 282 282 284 279 271 269 277 284 285 284 282 283 284 284 283 283 282 282 282 282 282 283 282 282 283 283 283 283 282 282 282 282 280 281 280 281 282 281 280 281 281 282 282 281 281 282 282 282
286 284 283 280 276 277 278 279 287 287 285 284 284 285 284 285 283 282 282 282 281 281 281 280 281 281 281 282 283 282 281 282 280 280 280 280 280 281 281 280 280 279 279 280 280 280 280 280 280

GFSSGP_sfc_thetae_045.txt.gz
Theta_e
315 310 310 306 296 292 288 290 293 295 294 301 299 296 295 296 296 292 310 323 330 334 343 348 351 354 355 355 354 354 353 351 350 350 350 350 351 350 349 347 344 342 342 341 340 338 336 335 335
312 313 306 298 290 286 288 291 293 295 297 298 298 297 297 295 302 307 314 321 334 338 344 346 348 353 355 355 354 353 353 353 351 350 349 348 348 348 346 345 342 340 339 339 338 334 333 332 332
311 308 300 293 287 286 288 291 293 296 297 297 301 304 301 298 304 307 314 321 334 337 343 345 347 352 353 354 353 352 352 352 351 349 348 348 347 346 347 344 342 339 336 336 334 331 330 327 328
307 303 297 290 289 290 292 292 294 295 297 297 300 299 298 304 304 310 318 329 332 335 340 343 348 352 352 352 352 352 351 351 352 351 350 347 345 343 342 341 340 338 335 334 331 329 326 323 322
301 296 290 288 289 290 291 294 295 295 295 296 299 295 296 302 312 316 320 331 330 333 337 340 346 350 351 351 351 351 351 351 351 350 348 345 344 341 340 338 338 335 335 332 329 325 322 320 319
298 293 288 286 289 292 294 296 295 294 293 295 299 298 298 303 310 314 319 320 329 332 335 339 340 344 347 349 350 350 350 350 351 349 347 346 343 340 337 335 336 335 333 330 327 323 320 318 317
295 291 287 287 288 291 293 296 298 295 292 296 302 298 299 301 306 311 317 318 322 331 333 336 339 340 339 342 343 346 347 348 347 346 345 344 341 339 337 335 334 335 333 329 326 322 319 316 315
296 292 288 287 287 289 294 296 295 294 294 299 298 295 297 304 304 311 313 313 314 324 331 333 336 340 340 340 336 338 341 342 342 341 339 336 335 335 334 331 333 333 332 329 326 322 319 316 312
296 288 285 288 289 291 295 295 296 295 294 295 297 298 297 302 306 307 307 310 312 318 327 330 334 338 341 339 336 332 335 336 336 336 332 329 331 332 327 326 330 334 331 327 325 322 319 315 310
293 286 288 292 293 293 294 293 294 295 294 293 294 298 300 303 305 305 305 307 309 313 317 326 330 337 339 339 340 338 334 334 333 334 332 330 329 328 326 322 326 330 328 329 325 322 318 306 294
294 289 292 295 296 295 294 294 295 292 293 295 295 297 298 299 301 302 302 302 304 306 314 319 326 331 335 336 338 338 338 335 331 331 330 327 326 324 323 321 319 319 319 317 319 313 306 299 296
293 297 296 298 298 296 294 296 294 295 297 298 297 296 295 294 294 294 294 295 296 300 307 314 321 325 328 334 336 336 335 334 330 327 325 323 324 322 320 319 318 315 313 311 309 306 304 300 296
292 294 295 298 297 295 295 295 294 295 298 297 296 296 295 295 294 295 296 296 296 296 297 300 315 322 325 325 328 332 333 333 332 328 325 324 322 322 320 318 317 315 312 308 306 303 302 297 294
293 294 294 295 295 295 294 292 292 296 295 295 295 294 293 293 293 293 294 294 294 296 297 299 304 319 323 325 323 328 331 330 329 326 324 325 323 321 319 317 315 314 311 307 305 303 301 296 293
294 291 293 293 293 293 294 291 292 296 295 293 292 292 292 292 292 291 292 293 293 294 296 298 308 316 320 321 320 322 323 323 323 322 321 324 323 322 318 316 314 313 310 306 303 301 297 294 292
289 288 286 291 292 292 292 288 295 295 294 291 291 289 290 291 291 291 292 292 292 293 294 297 300 311 316 318 318 319 319 320 321 323 323 323 323 322 318 315 313 313 310 308 305 299 296 294 291
286 282 284 289 293 291 289 287 294 295 293 291 288 288 289 289 289 290 290 290 291 292 293 295 297 299 310 314 316 315 316 319 320 322 322 322 320 319 317 314 313 311 309 306 303 297 295 293 291
283 283 284 285 289 290 288 289 293 292 291 288 286 287 287 287 288 289 289 290 290 291 292 293 295 295 299 307 310 311 311 311 312 313 316 319 319 318 315 312 310 308 306 303 300 298 292 291 291
286 284 284 286 291 288 288 289 289 290 288 287 286 286 286 286 288 289 289 288 289 290 291 291 292 293 296 296 298 301 298 299 300 303 304 307 310 313 313 312 310 307 305 304 300 296 295 293 289
286 284 284 288 290 289 287 288 287 288 287 287 286 285 286 286 286 287 287 287 287 287 289 290 291 291 293 294 294 296 294 294 297 297 297 298 300 302 304 306 304 304 302 300 298 295 294 293 291
286 285 285 287 287 286 284 284 285 286 287 287 286 286 286 285 285 285 285 285 285 285 286 288 289 290 291 292 293 293 293 292 292 292 293 293 293 293 295 298 300 300 299 298 297 295 294 293 291
285 290 288 287 283 280 284 278 283 285 284 284 284 283 284 284 285 285 284 284 284 284 285 287 288 288 289 290 290 289 287 286 287 288 289 289 289 289 290 291 292 293 296 296 295 295 294 292 291
288 288 287 285 282 280 280 279 281 284 282 282 283 284 284 284 284 284 283 284 283 283 283 284 286 286 287 287 287 286 284 285 284 285 285 286 286 286 287 287 288 289 290 289 290 292 293 292 291
290 287 285 282 281 276 281 281 280 282 283 283 283 283 284 284 283 284 284 284 282 282 282 283 284 284 285 285 285 284 283 282 282 282 282 283 284 284 285 286 286 286 287 287 287 288 288 289 290
287 285 279 276 275 276 280 279 282 284 284 285 283 283 283 283 283 283 282 282 282 281 281 283 282 282 283 284 284 283 282 281 281 281 281 281 282 282 283 284 284 284 285 286 286 287 286 286 286
285 285 278 270 273 276 282 279 284 283 284 285 285 283 283 282 283 283 283 282 281 281 281 281 282 281 281 281 282 283 283 283 282 282 282 282 282 283 283 283 284 284 284 284 284 285 285 285 286
284 282 285 279 270 275 279 282 283 283 282 282 282 282 282 282 282 282 282 282 281 280 280 280 281 281 281 281 281 281 282 283 283 283 283 283 283 283 283 283 282 282 283 283 283 282 282 283 284
286 288 281 279 268 268 276 278 280 280 281 281 281 282 282 283 283 282 281 281 281 280 280 280 280 280 281 281 281 280 280 280 280 280 280 280 280 281 281 280 281 281 281 281 281 280 281 282 282
283 282 282 283 277 270 268 275 283 284 283 282 282 283 283 283 282 282 281 281 281 281 281 281 280 280 280 280 280 280 280 280 279 279 279 279 279 280 280 279 279 279 279 279 278 278 279 279 280
284 284 283 280 276 276 277 278 285 285 285 284 283 284 283 283 282 281 281 280 280 280 280 279 280 279 280 280 279 279 279 279 279 279 279 279 278 279 279 279 279 279 279 278 277 276 277 277 278

GFSSGP_sfc_thetae_048.txt.gz
Theta_e
314 310 307 303 295 291 287 289 295 293 294 300 297 295 296 295 294 291 307 320 327 332 340 347 351 354 355 354 354 353 352 352 351 351 352 352 351 350 349 346 344 343 342 341 340 338 337 336 336
310 310 304 296 289 285 288 290 292 294 296 297 298 297 298 297 300 306 311 320 329 334 342 346 348 353 355 354 354 353 353 352 351 350 350 350 350 349 347 344 342 340 340 339 337 335 333 332 333
310 306 298 291 285 285 287 291 295 294 296 301 299 302 299 297 305 309 313 322 332 335 341 344 347 352 354 354 353 352 352 352 351 350 349 348 347 347 346 343 340 339 337 336 335 332 329 328 328
306 301 295 289 288 291 291 293 292 296 300 301 300 297 299 302 302 310 316 326 331 334 339 343 348 352 352 352 353 352 352 352 351 350 349 349 346 345 343 342 339 337 336 334 332 329 326 323 323
299 295 289 287 288 292 289 293 293 293 299 299 300 297 296 301 313 315 319 327 328 331 336 339 346 350 351 352 352 352 352 351 351 351 349 347 345 342 341 340 338 335 335 332 330 326 323 321 320
297 292 287 285 288 290 293 292 293 296 293 295 298 297 299 302 309 313 318 323 326 330 334 337 339 343 346 349 350 350 350 350 350 349 348 347 344 342 339 336 336 334 334 330 328 325 322 319 318
294 288 285 286 287 289 292 294 296 296 292 296 300 297 298 304 304 312 314 313 322 329 332 334 338 340 338 342 344 346 347 347 346 347 346 344 342 341 338 336 335 335 331 329 327 323 321 318 316
295 291 286 285 287 288 293 294 293 296 293 297 297 294 295 301 305 311 312 313 311 324 328 330 333 341 340 339 336 338 341 342 343 341 338 335 335 335 334 331 333 332 331 329 326 322 320 318 314
294 287 284 287 287 289 293 294 294 295 293 295 295 300 296 302 307 306 307 310 312 316 320 326 329 338 340 341 335 333 335 336 336 335 331 329 330 330 327 326 330 334 333 328 326 322 320 316 309
291 285 286 289 291 294 293 292 294 294 292 293 293 296 298 298 301 302 301 301 303 306 313 320 328 335 337 338 339 337 334 334 334 334 332 329 327 327 327 323 326 330 329 329 326 322 318 305 292
292 288 290 293 294 294 293 293 293 295 293 292 292 296 295 294 294 294 294 294 294 296 302 307 321 334 335 335 336 337 337 335 330 331 331 329 328 324 324 323 323 323 319 316 317 311 307 301 295
292 295 294 296 296 294 293 294 293 294 294 295 294 294 294 293 293 293 293 294 294 295 296 298 303 323 333 334 335 335 335 334 333 330 330 329 325 324 322 321 320 319 317 315 310 307 304 301 296
293 293 295 296 295 294 294 293 292 294 293 294 295 294 292 292 292 293 293 294 293 294 295 297 299 307 327 332 333 332 333 332 331 330 327 326 325 323 321 320 319 317 315 314 311 307 303 301 296
292 292 294 294 294 294 293 291 291 292 292 293 294 291 291 291 290 290 291 291 292 293 294 297 300 306 319 326 328 329 330 330 330 328 328 326 325 322 321 319 318 316 315 313 311 308 302 300 294
292 290 291 291 291 292 293 289 290 292 291 291 290 289 290 289 290 288 290 290 290 292 294 296 301 311 316 319 320 324 326 326 326 325 325 325 324 323 320 318 316 316 313 311 308 305 302 297 294
288 287 285 290 291 291 292 288 292 292 291 289 288 287 288 288 288 288 289 289 290 291 292 295 298 305 316 316 317 320 321 322 322 324 324 324 324 322 319 317 316 315 312 309 306 305 302 299 294
285 283 283 288 291 290 288 287 293 291 290 287 286 286 287 287 287 288 288 288 289 290 291 293 295 298 311 315 314 311 309 310 309 309 312 317 319 319 319 317 314 312 310 308 306 303 301 299 296
283 281 283 284 288 289 287 288 290 289 288 285 284 284 285 285 286 287 287 288 289 289 291 292 295 295 300 306 303 302 302 301 301 300 302 304 306 311 313 312 310 309 308 306 304 301 297 295 294
285 283 283 285 289 287 288 288 287 287 286 284 284 284 284 285 287 287 287 287 287 288 289 290 291 292 296 296 297 297 295 297 296 296 295 296 298 302 304 305 305 305 303 302 300 297 296 297 292
285 283 283 287 289 288 287 286 285 286 285 285 284 284 284 284 285 286 285 285 285 286 287 288 289 290 292 293 293 293 292 293 293 294 292 292 293 294 296 298 299 299 300 299 298 297 295 294 292
284 283 284 286 286 285 283 284 284 284 285 285 285 285 285 284 283 283 283 283 283 284 284 286 287 288 289 291 291 291 290 289 288 287 287 287 288 288 290 291 292 294 295 295 296 295 294 293 293
283 289 288 286 283 280 283 279 282 283 282 283 283 283 283 283 283 283 282 282 282 282 283 285 286 286 287 287 287 285 284 282 283 284 285 285 285 285 286 286 287 288 289 288 290 292 291 291 291
287 288 287 284 281 280 280 278 281 282 280 281 282 283 283 283 283 282 282 282 282 282 281 282 284 284 284 284 284 283 282 282 281 282 282 283 283 284 284 284 285 285 286 285 286 287 287 289 289
289 287 285 282 280 276 281 281 280 281 283 282 282 283 283 283 282 282 282 282 281 281 281 281 282 283 283 283 282 282 281 280 281 281 281 281 282 282 283 284 283 284 284 284 285 285 286 285 286
287 284 279 276 275 277 280 278 282 284 284 284 283 283 283 283 282 281 281 280 280 280 280 281 281 280 281 282 282 281 280 280 280 280 280 280 281 281 281 282 283 283 284 284 284 284 284 284 284
285 285 279 272 272 275 281 278 284 284 283 285 285 284 283 282 282 282 281 280 279 280 280 280 280 279 280 280 281 281 281 281 281 280 280 280 281 282 283 282 282 282 283 282 283 283 283 283 284
283 282 285 278 269 273 279 281 283 282 281 281 282 282 281 282 282 282 282 280 279 279 279 280 280 280 279 279 279 279 280 279 279 279 280 279 279 281 280 280 279 280 281 280 280 280 279 280 281
285 287 281 279 270 268 276 277 279 281 280 281 280 281 281 282 282 281 281 281 280 279 279 279 279 279 279 279 279 279 279 279 279 278 278 278 278 278 278 278 278 278 278 278 278 277 279 278 278
283 282 281 282 277 270 268 275 283 284 282 281 282 283 283 282 282 281 281 281 280 279 279 279 279 279 279 279 279 279 279 278 278 278 278 278 278 278 278 278 278 278 277 277 276 276 276 276 276
283 283 283 279 276 275 276 278 284 284 284 284 283 284 283 283 282 281 281 280 279 279 279 279 279 279 279 279 279 279 279 278 278 278 278 278 277 277 277 277 277 277 277 277 276 276 276 275 275

GFSSGP_sfc_thetae_051.txt.gz
Theta_e
316 312 311 307 299 296 293 297 299 300 301 304 303 302 302 302 299 298 313 323 331 336 340 350 350 354 354 354 354 353 353 352 352 353 352 352 351 350 348 345 344 343 341 341 338 337 337 337 337
312 312 307 299 293 290 293 296 298 300 303 303 302 303 303 302 306 310 316 324 333 337 344 349 348 352 354 354 353 353 353 353 352 351 352 351 350 349 346 343 342 340 339 339 337 335 332 332 333
312 306 303 295 290 289 292 297 298 300 302 302 302 305 304 305 309 312 317 326 335 338 345 348 347 352 354 354 353 353 353 353 352 351 350 350 349 347 345 342 340 339 339 337 335 333 329 327 328
308 304 298 293 293 295 296 296 298 300 301 302 302 302 304 310 310 315 320 331 335 339 345 345 347 351 353 353 353 352 352 352 352 351 349 348 348 346 344 342 339 338 336 335 333 330 327 324 324
301 299 293 292 294 295 295 298 298 299 300 301 302 302 303 308 316 321 324 332 334 338 342 345 346 349 350 352 352 351 350 350 350 350 350 347 345 344 342 341 338 336 335 333 331 328 324 322 322
299 296 291 289 292 295 296 297 298 298 298 300 301 301 304 306 312 319 325 329 332 336 339 343 339 343 346 349 350 350 350 349 348 348 348 348 345 342 340 337 336 335 334 330 330 326 323 320 321
296 291 289 290 291 294 297 297 297 297 297 300 302 300 305 305 307 317 321 322 330 334 337 339 342 342 336 341 343 345 347 346 346 346 346 345 343 342 339 337 336 335 332 329 328 325 322 319 317
296 293 290 290 290 293 297 298 298 298 299 301 303 298 301 302 309 317 319 319 321 327 333 335 339 341 345 347 335 338 341 342 343 341 338 335 335 336 335 331 334 334 331 329 327 324 322 318 314
298 289 286 289 290 293 297 297 299 299 298 299 300 300 298 300 306 308 309 307 310 309 314 325 334 339 341 344 340 333 335 337 337 337 331 331 338 336 332 328 331 334 332 329 327 324 321 313 305
293 288 289 292 293 294 296 296 297 298 296 298 299 299 298 298 298 297 297 298 299 300 301 306 315 333 338 340 341 340 341 343 342 342 339 337 335 334 330 324 327 330 328 328 326 324 316 307 300
294 290 291 294 295 297 296 296 297 296 295 298 298 296 296 296 296 295 296 296 296 297 300 301 302 313 335 337 339 339 338 337 339 339 338 336 333 332 327 326 326 326 321 321 320 319 315 310 304
293 296 295 298 298 296 295 297 296 296 297 296 295 295 294 293 293 293 293 295 295 296 298 300 301 304 323 336 337 338 337 337 335 336 334 332 329 327 326 324 324 323 321 319 318 315 314 311 305
295 295 296 297 296 295 295 295 295 295 293 295 294 293 292 291 292 293 293 294 295 295 297 299 301 306 311 332 335 335 335 335 335 333 331 331 329 326 324 323 322 321 320 319 317 314 313 312 307
293 294 294 295 295 295 294 293 294 293 294 293 292 290 290 290 290 291 292 292 293 294 296 298 303 312 313 327 331 331 331 331 331 330 330 328 328 329 325 323 320 320 318 317 315 313 313 310 306
293 291 292 293 293 293 294 291 292 292 293 291 289 289 289 289 290 289 290 291 292 293 295 298 304 317 321 324 326 326 325 324 323 324 324 325 325 325 324 322 321 319 317 314 311 308 306 305 303
290 289 288 292 292 292 293 290 291 292 292 289 288 287 288 288 288 289 289 290 291 292 294 298 304 316 317 315 313 311 309 309 309 310 312 314 318 321 320 318 316 315 313 311 309 307 306 305 301
286 285 285 289 292 292 291 290 289 291 289 287 286 286 287 287 288 288 289 289 290 291 293 296 300 307 307 306 305 304 303 302 302 302 304 306 309 313 312 311 310 312 310 308 307 304 301 302 301
284 284 284 286 289 290 289 290 288 288 287 285 285 285 286 286 286 288 288 289 289 290 292 295 297 299 304 303 303 301 299 298 297 297 297 299 302 306 306 306 306 307 306 304 304 302 300 298 296
286 285 285 287 290 289 289 289 289 287 286 285 285 285 285 285 287 287 287 288 288 289 290 292 293 294 298 298 299 297 295 294 292 292 293 295 296 298 300 300 301 302 301 300 300 300 299 299 297
286 284 284 287 289 289 288 288 287 286 285 286 285 285 285 285 286 286 286 286 286 286 288 290 291 292 294 295 295 294 292 290 289 289 289 289 291 292 294 295 295 297 298 297 297 297 298 298 296
284 284 284 286 287 287 285 285 284 284 285 285 286 286 285 285 284 284 284 284 285 284 285 286 287 288 289 292 293 291 290 288 287 286 286 287 288 288 289 289 291 291 292 292 294 295 295 294 297
283 288 287 286 285 282 284 280 284 283 283 284 284 284 284 284 284 284 283 283 283 283 284 285 286 286 286 288 287 286 285 283 284 284 285 286 287 286 287 287 288 288 288 288 290 291 292 294 292
287 289 287 286 283 281 282 280 283 283 281 282 283 284 284 284 283 282 282 283 283 283 283 284 285 285 285 285 285 284 283 284 284 284 285 285 285 286 286 286 286 286 286 287 287 287 287 289 289
288 286 285 282 282 277 283 283 282 281 283 283 284 284 284 284 283 282 283 282 282 282 283 283 283 283 284 284 284 283 283 283 283 283 283 284 284 284 284 285 285 285 285 285 286 286 285 286 286
287 285 279 277 276 278 280 279 283 285 285 285 284 284 284 284 283 282 281 281 281 281 282 282 283 282 283 283 283 283 282 283 282 282 282 282 283 283 283 283 283 283 284 284 284 284 284 284 284
285 285 280 274 274 276 281 278 284 285 285 285 286 286 284 283 283 282 282 281 281 281 281 281 281 281 282 283 282 283 283 283 282 282 282 282 282 282 282 282 282 282 282 282 282 282 282 282 282
284 283 285 278 275 275 280 282 285 284 282 282 283 283 283 283 283 283 282 281 280 280 281 281 281 281 281 281 281 281 282 282 281 281 281 281 281 282 281 281 281 281 281 281 280 280 280 281 281
286 287 281 280 272 270 277 278 280 282 282 281 281 283 283 283 283 283 282 281 280 280 280 281 281 281 281 281 281 281 281 281 281 281 280 280 280 280 280 280 280 280 280 280 279 279 279 279 279
284 283 282 283 278 272 270 276 283 284 284 281 282 284 284 283 283 283 283 282 281 280 280 280 280 280 281 281 281 281 280 280 280 280 280 279 280 279 279 279 279 278 278 278 278 278 278 278 278
284 284 283 281 276 276 276 278 284 284 284 284 283 284 284 284 284 283 283 282 281 280 279 279 280 280 281 281 281 281 281 280 280 279 279 279 279 278 278 278 277 277 277 277 276 276 277 276 276

GFSSGP_sfc_thetae_054.txt.gz
Theta_e
323 321 323 320 307 307 299 300 305 303 304 308 307 307 306 307 304 301 323 330 335 339 347 351 351 354 354 354 353 353 354 353 353 353 353 351 350 349 346 344 343 341 341 339 338 336 336 337 338
320 318 320 314 303 297 298 303 302 305 307 308 308 308 307 305 311 315 322 329 336 340 347 351 348 352 354 354 353 353 353 353 353 353 352 351 350 347 345 343 341 340 340 339 337 333 331 331 334
317 313 314 309 304 297 298 303 304 306 307 307 307 309 309 308 314 317 325 332 338 340 347 351 347 352 353 353 353 353 353 353 352 350 351 350 349 346 344 342 340 339 339 337 335 332 329 327 328
317 316 310 304 299 300 301 303 304 306 307 308 307 306 309 314 317 323 327 333 338 341 347 347 348 352 353 352 352 353 353 351 349 350 349 349 348 346 343 341 339 337 337 335 333 330 326 324 326
315 312 305 301 299 301 303 304 304 305 306 307 307 305 307 313 320 328 330 336 337 341 346 349 346 349 349 350 351 350 350 349 349 348 350 347 346 344 343 340 338 336 335 333 331 328 324 322 324
311 309 302 298 299 301 303 304 305 305 304 306 306 306 307 312 316 325 331 334 338 340 344 347 341 344 346 348 348 348 349 348 348 348 347 346 345 343 340 337 336 335 333 331 330 326 323 320 322
307 304 300 299 299 300 302 304 304 304 303 305 307 303 308 309 316 324 327 330 337 340 343 345 347 346 336 340 343 344 345 346 346 346 346 344 343 342 339 337 337 334 333 330 328 325 322 318 319
309 306 298 299 298 299 303 303 305 304 303 307 308 303 304 306 312 322 324 321 323 327 336 341 344 343 348 350 336 338 340 341 343 342 339 338 337 336 334 332 336 334 332 330 327 325 322 317 315
305 301 297 297 298 300 304 303 304 305 304 305 305 304 302 305 310 313 313 312 312 311 312 316 328 338 342 345 344 335 335 336 337 338 331 332 342 340 335 329 333 334 332 329 327 325 319 310 305
305 300 297 300 302 302 303 303 304 303 303 303 303 304 304 305 306 306 306 306 307 307 309 310 312 318 335 340 344 347 346 346 345 345 345 344 342 341 334 326 328 330 329 329 327 322 316 317 309
302 299 299 300 302 303 303 302 304 302 301 303 302 302 302 303 303 303 304 304 304 306 309 310 311 312 319 337 341 343 344 346 345 343 344 343 341 339 331 330 329 329 323 326 325 323 322 320 315
300 301 301 302 303 302 302 303 302 302 301 300 301 300 300 300 300 300 301 303 304 306 308 311 312 313 316 333 338 340 341 341 342 343 342 340 341 338 330 329 329 328 326 324 322 320 322 320 315
301 301 302 303 302 302 301 301 301 298 300 300 299 299 298 298 299 300 301 303 304 305 308 311 314 317 316 333 337 338 337 337 336 336 334 335 338 336 333 329 327 326 326 324 322 320 319 321 317
301 300 301 302 301 301 300 299 300 297 300 298 298 297 297 297 297 299 300 301 302 304 307 308 313 319 318 332 334 331 328 326 325 323 327 327 328 329 331 328 326 325 322 320 320 317 315 314 314
300 298 300 301 299 299 301 296 297 297 299 297 296 296 295 295 296 296 297 299 301 305 303 305 312 321 326 320 316 315 315 314 314 315 316 319 322 322 322 321 319 319 318 317 314 311 311 312 309
298 298 296 298 298 298 299 296 295 297 298 296 295 295 294 294 294 296 297 299 301 302 301 305 312 313 311 311 310 309 308 309 309 310 313 315 316 316 314 313 314 314 313 311 310 308 309 308 306
295 295 293 296 298 298 298 297 296 296 297 295 294 294 294 294 295 296 296 298 300 299 300 303 308 308 307 306 304 303 302 302 302 303 306 309 311 312 311 309 310 311 309 308 308 306 307 305 305
295 292 293 295 296 297 296 297 294 294 295 294 293 293 293 293 292 294 295 296 299 300 300 302 302 306 306 304 302 300 298 298 297 300 301 302 304 306 307 306 306 306 304 304 306 305 302 301 300
296 294 294 295 295 295 297 297 297 294 293 293 293 293 292 292 292 293 294 295 298 299 300 301 302 303 306 305 304 303 300 298 297 297 298 300 301 302 303 305 305 305 303 303 303 305 304 304 305
294 293 293 294 294 294 295 295 298 293 293 293 292 292 292 291 292 292 293 294 295 296 298 300 301 302 304 304 302 300 296 294 294 293 293 294 295 296 297 299 299 300 301 301 301 302 304 304 303
293 292 293 293 293 294 292 293 294 289 290 290 291 292 292 292 291 291 291 292 293 293 294 295 297 299 300 298 297 295 295 294 292 291 291 291 292 292 292 293 293 293 295 294 295 297 299 299 300
291 294 293 291 291 289 291 289 292 290 289 289 289 291 291 291 290 290 290 290 290 290 292 293 294 294 295 297 297 297 293 289 289 289 290 290 291 290 291 291 291 291 291 291 291 291 292 294 291
293 294 292 292 291 290 289 288 293 289 287 288 289 290 292 291 291 289 289 288 289 290 290 291 291 291 292 292 292 291 289 289 289 289 289 289 289 290 290 290 290 290 290 290 290 290 290 290 289
293 292 290 290 290 284 290 289 291 289 291 290 290 290 291 290 289 288 288 288 287 289 290 290 289 288 290 290 290 290 289 289 288 289 288 288 288 288 288 288 289 288 288 288 288 289 288 288 288
293 291 286 284 283 283 286 286 292 295 292 292 290 290 291 290 289 287 287 287 287 287 288 288 288 287 288 289 289 289 289 289 288 288 288 287 287 287 286 287 287 286 286 286 287 287 286 286 286
290 293 288 281 280 284 284 283 290 291 292 291 293 292 291 289 289 288 288 287 287 287 287 287 287 286 288 288 288 288 289 288 288 288 287 286 286 285 286 285 285 285 285 285 285 285 285 285 285
289 287 293 283 279 284 287 288 290 288 287 288 289 290 289 289 289 288 288 287 287 286 286 287 287 286 287 287 288 288 288 287 287 287 287 286 286 284 284 284 284 284 284 283 283 284 283 284 284
291 294 286 287 281 280 283 284 289 286 288 287 287 288 289 290 289 289 288 287 287 286 286 287 287 286 287 287 287 287 287 287 287 286 285 285 284 284 283 283 282 282 282 282 283 283 283 282 283
287 287 288 290 288 284 282 285 292 292 292 288 289 290 291 290 289 289 289 288 286 286 286 286 286 286 286 287 287 286 286 286 286 285 284 284 283 282 282 281 281 281 281 281 281 281 281 280 281
292 290 290 287 281 284 283 287 290 292 292 292 291 291 292 291 290 290 290 288 286 285 285 285 285 286 286 287 286 286 286 285 285 284 283 283 282 282 281 281 280 280 279 280 279 279 279 279 279

GFSSGP_sfc_thetae_060.txt.gz
Theta_e
326 322 320 318 306 302 296 298 301 301 301 304 304 303 301 304 302 300 320 329 330 344 351 353 352 354 354 353 353 354 354 354 352 350 350 350 348 345 344 343 342 341 340 338 336 334 335 337 340
318 319 319 313 299 294 294 299 300 302 304 304 303 303 302 302 312 316 319 331 332 344 349 350 349 352 353 353 353 353 353 352 351 349 350 349 347 344 344 342 340 339 338 338 335 331 330 334 336
320 318 310 305 299 294 295 299 301 303 302 302 301 305 305 306 315 317 321 331 332 339 347 349 349 352 352 352 352 352 351 351 351 349 348 348 346 344 342 341 339 337 336 335 333 329 328 330 334
315 314 309 299 296 297 299 301 303 303 303 303 302 301 308 318 317 321 329 331 334 338 347 346 349 351 351 351 351 351 351 350 350 348 348 347 346 343 341 339 337 335 334 333 331 327 327 329 333
314 309 301 297 297 297 301 303 301 302 301 302 300 300 304 313 323 327 328 331 333 335 346 346 347 350 350 350 351 350 349 349 349 347 347 347 345 343 340 339 336 335 333 332 329 325 324 326 329
308 305 297 294 296 299 301 301 301 300 302 301 298 302 303 312 318 321 327 329 334 337 342 346 341 341 345 347 347 347 347 347 346 346 347 346 345 342 339 338 336 334 333 331 329 325 322 322 323
304 300 295 296 297 298 300 302 299 300 300 300 302 300 301 303 311 321 323 330 334 337 339 340 344 342 335 341 340 343 345 345 345 345 345 344 342 340 340 338 336 335 332 331 328 324 317 318 317
306 300 294 294 294 297 301 301 303 301 300 304 304 298 297 299 307 318 317 316 317 317 322 330 335 339 340 343 336 338 340 341 340 341 339 336 336 335 335 333 335 334 332 331 328 324 316 313 312
307 296 293 294 295 297 302 299 301 302 300 301 303 300 301 304 307 312 311 311 311 312 312 315 319 333 336 339 338 336 338 337 335 335 332 330 334 332 331 329 334 334 332 330 328 324 319 312 314
301 296 296 298 298 298 302 300 301 298 300 299 300 303 304 305 304 305 304 304 305 305 307 309 311 314 327 337 338 340 341 340 339 339 335 337 336 333 330 327 329 331 330 330 326 324 323 320 309
301 296 298 298 302 303 301 299 301 297 297 298 299 300 302 302 302 303 302 303 303 304 309 311 311 311 314 331 335 339 340 337 336 336 335 335 333 330 329 327 326 324 323 325 325 321 319 315 311
297 301 300 303 302 301 299 301 298 299 297 301 300 301 301 300 300 300 300 302 303 306 309 312 313 313 311 327 336 335 334 334 331 332 333 334 332 332 330 327 326 323 323 320 321 320 318 315 313
299 301 302 303 302 301 302 299 299 298 299 300 300 301 299 299 299 300 300 303 304 306 309 310 312 314 314 323 335 330 328 328 328 328 327 328 328 329 330 327 326 323 321 318 317 317 314 314 315
301 301 301 302 302 302 299 299 299 298 300 299 299 298 297 298 296 298 299 300 303 307 306 309 315 317 316 326 326 324 322 320 321 322 324 325 327 326 324 323 321 319 319 318 314 313 312 311 311
301 296 300 300 301 299 299 296 296 298 299 298 297 296 297 297 296 296 298 300 304 304 307 312 316 317 316 316 317 317 316 316 315 317 318 319 319 317 317 316 315 315 315 314 312 310 310 310 309
296 296 292 299 300 298 297 292 299 298 297 296 296 295 296 296 296 297 298 300 301 301 305 310 311 309 309 311 312 311 310 311 313 314 314 315 315 315 313 311 310 311 311 310 309 308 309 308 305
295 290 293 295 299 297 295 293 296 298 297 296 296 296 296 295 295 296 297 300 300 301 305 307 306 305 305 305 305 306 307 308 308 308 308 309 309 309 307 305 305 306 306 306 306 303 301 301 300
291 290 294 293 296 296 293 293 295 296 296 295 296 295 295 295 295 295 297 300 300 303 304 306 304 303 302 302 303 303 302 301 301 301 302 303 305 306 304 303 303 303 301 300 300 302 301 298 297
295 293 292 296 296 294 293 294 297 296 295 294 295 295 294 294 294 295 297 299 300 302 303 304 304 304 304 303 302 300 297 296 294 295 296 296 298 299 299 298 299 297 296 295 296 298 298 296 297
295 292 292 296 296 293 293 293 296 296 295 296 296 294 294 292 292 294 296 299 299 300 302 303 305 305 305 303 301 298 293 292 292 292 292 293 293 293 293 292 292 291 290 290 290 290 294 293 292
294 292 292 292 295 293 290 289 293 297 297 296 297 296 295 292 291 292 295 296 298 298 299 301 302 303 300 298 296 293 292 291 289 288 289 290 290 290 290 290 290 289 289 288 287 287 287 286 288
290 297 295 293 290 285 291 283 291 295 296 294 294 293 292 292 293 293 294 294 297 296 298 299 300 299 298 296 294 292 290 287 287 287 287 288 289 288 289 289 288 288 287 286 286 287 285 285 283
292 295 292 291 288 286 287 285 289 294 294 292 292 292 291 292 292 291 292 292 292 294 294 294 294 294 294 293 291 290 288 288 287 287 286 286 286 287 287 286 286 286 286 285 285 284 284 284 283
297 293 291 289 288 281 288 288 287 293 294 292 292 292 292 291 290 290 289 289 289 290 290 290 290 290 291 291 290 288 287 287 286 285 285 284 284 285 285 285 284 284 284 284 283 283 283 283 282
294 290 282 280 279 280 288 286 291 294 293 295 292 292 292 291 290 288 287 287 288 288 288 288 288 288 290 289 289 288 287 287 286 285 284 283 283 282 282 283 282 282 282 283 283 282 281 282 281
290 290 283 276 279 281 282 281 288 290 291 292 295 293 292 291 290 287 287 287 287 288 288 287 287 286 287 287 287 287 287 286 286 285 284 283 282 282 282 282 282 282 282 282 283 281 281 281 280
289 286 293 286 277 277 284 287 291 289 288 289 292 291 291 290 289 287 287 287 286 286 285 286 286 286 286 286 286 285 286 285 285 284 283 282 282 283 282 281 281 281 281 281 281 280 279 279 279
291 294 285 286 279 278 282 284 286 286 287 288 290 290 291 290 289 288 287 286 286 285 285 285 285 285 285 285 285 285 285 284 284 283 282 281 281 281 281 280 280 280 280 279 279 278 279 278 278
287 286 288 290 285 281 277 284 291 294 291 288 290 291 291 290 289 288 287 287 286 285 285 284 284 284 284 285 285 284 284 284 283 282 281 281 280 280 280 280 280 279 279 278 278 277 277 277 276
293 291 291 285 283 285 285 286 291 291 292 291 291 291 292 291 289 288 287 286 285 285 284 284 284 284 284 285 284 284 284 283 282 281 281 280 280 280 279 279 279 278 278 277 277 276 276 275 276

GFSSGP_sfc_thetae_063.txt.gz
Theta_e
323 313 313 311 299 294 290 293 296 297 297 298 301 303 301 301 303 298 318 327 343 347 350 351 352 354 354 353 353 353 353 352 351 349 348 348 345 345 343 341 340 339 339 337 334 333 337 338 341
313 317 312 304 294 288 289 293 296 298 300 302 302 300 301 303 312 316 318 329 344 348 350 350 348 353 354 353 353 353 353 351 350 349 348 347 345 343 341 340 338 337 337 335 332 331 333 336 339
317 314 303 298 291 288 290 294 296 298 299 299 298 302 303 305 312 314 322 329 345 346 349 349 348 352 352 352 352 352 350 350 349 349 347 346 344 342 341 339 336 335 335 332 330 330 332 335 337
308 307 302 294 290 293 293 295 299 299 299 301 300 300 307 316 315 319 327 332 334 343 347 346 348 351 352 350 351 350 350 350 350 348 348 346 344 342 340 337 336 334 333 331 327 328 329 332 334
307 301 294 291 290 293 295 298 299 298 298 297 300 298 302 310 321 324 326 332 332 341 346 347 347 348 349 349 349 349 349 348 347 348 347 346 343 341 339 337 335 334 332 330 326 325 325 327 329
301 297 290 288 290 293 295 297 297 297 298 299 300 298 300 307 317 319 327 329 335 339 343 345 339 343 345 347 347 347 347 346 346 346 346 345 343 341 338 337 335 334 332 330 324 321 321 321 322
297 293 288 290 291 293 296 299 295 296 297 296 300 297 297 301 305 319 321 318 318 328 336 341 342 340 337 341 342 343 345 344 345 345 345 343 341 341 339 337 335 334 332 330 324 318 317 316 317
299 293 292 290 290 292 297 298 299 298 296 300 300 296 294 299 304 313 313 314 312 313 315 319 333 337 339 340 335 337 340 340 341 341 338 335 335 336 334 333 335 334 332 330 325 320 317 316 315
299 291 288 290 291 294 297 296 298 299 298 299 300 298 300 303 305 309 308 307 307 309 308 310 312 329 333 339 337 334 336 336 335 335 331 329 333 333 331 329 333 334 332 329 328 325 318 315 318
295 290 291 293 293 294 297 297 297 295 296 296 297 300 302 302 303 303 302 300 301 302 305 308 309 311 320 333 338 340 338 337 337 336 333 334 332 331 330 327 329 330 329 329 328 326 322 315 306
296 291 294 295 298 299 298 296 298 295 293 296 297 298 300 299 300 300 300 300 301 304 307 310 310 310 310 322 332 339 339 337 336 336 335 336 333 329 328 325 324 321 320 320 320 318 314 311 308
292 297 297 300 300 298 297 298 296 296 296 299 299 299 299 298 298 298 299 300 301 305 307 309 310 311 311 314 330 334 333 332 331 331 332 332 330 330 327 327 323 320 318 316 316 315 314 312 311
295 297 299 300 299 298 300 296 296 295 297 298 299 299 297 297 297 298 300 301 303 305 305 307 310 313 314 315 330 328 326 327 327 327 327 329 330 329 328 326 323 321 319 316 316 312 312 311 312
297 297 298 299 300 299 297 296 296 295 296 296 298 296 295 296 296 296 298 299 303 304 304 308 315 316 317 325 323 321 320 320 321 321 322 323 326 325 324 321 319 317 317 315 313 310 309 308 310
297 293 296 297 298 297 297 294 295 296 296 295 295 294 295 295 296 295 297 300 302 302 304 308 313 314 317 317 317 316 316 317 316 316 317 318 318 317 316 315 313 313 314 313 312 309 309 306 306
292 291 289 296 297 297 296 290 297 296 295 294 294 292 294 295 295 295 297 299 300 301 304 306 310 310 312 312 312 312 312 312 312 312 313 313 313 313 311 310 309 310 310 308 305 306 302 300 299
289 286 289 293 297 295 293 291 294 295 294 293 292 292 293 293 293 294 297 298 299 301 304 304 306 305 306 307 308 308 308 307 307 306 308 309 308 308 306 305 305 305 302 302 302 299 298 295 295
287 287 290 290 294 292 291 291 293 294 294 293 292 292 292 292 293 294 297 298 299 300 303 304 303 303 303 304 303 301 299 299 299 297 299 301 302 302 301 299 298 298 296 296 298 297 295 293 293
291 289 288 291 295 292 291 291 293 294 292 291 291 292 292 292 292 294 297 297 298 300 302 303 302 302 303 302 300 298 295 294 294 294 294 295 296 296 296 294 292 291 290 289 293 296 291 289 291
292 289 289 292 294 292 291 291 293 294 294 294 294 294 293 290 290 293 295 296 297 299 303 304 304 304 304 302 298 295 293 291 290 290 290 291 291 291 291 290 289 288 288 288 287 287 288 287 287
291 290 289 290 291 290 288 288 290 294 295 294 296 296 294 291 290 291 294 294 295 297 303 304 304 303 298 296 294 292 291 289 288 288 288 289 290 289 289 288 288 287 287 286 285 284 285 283 284
289 293 293 292 288 284 288 283 288 291 292 292 295 293 292 290 291 292 294 293 294 297 301 301 300 297 296 296 293 292 289 286 285 286 286 287 288 287 287 287 286 286 285 284 284 284 283 283 281
291 294 292 290 286 284 285 283 286 292 292 295 293 291 291 291 291 292 293 294 295 297 297 297 297 297 295 295 292 289 287 286 286 285 285 285 285 286 286 285 285 284 284 283 282 282 282 282 281
294 292 290 288 286 280 285 285 286 290 293 296 292 290 290 290 290 292 292 291 292 294 294 294 294 293 293 290 289 288 286 285 285 284 284 283 284 283 283 283 283 283 283 282 281 281 281 281 280
293 289 281 279 278 280 286 284 289 292 293 295 293 291 289 290 290 290 288 288 288 291 291 291 291 290 289 288 287 287 286 286 285 284 283 282 282 281 281 281 281 281 282 282 282 281 280 280 279
288 288 282 275 277 279 283 281 287 293 292 291 293 293 290 289 290 288 287 287 287 287 287 287 287 287 288 288 287 287 286 286 285 284 283 282 282 281 281 281 281 281 281 281 281 280 280 279 279
287 285 291 285 274 275 283 286 291 290 290 289 290 290 289 289 287 286 286 286 286 286 286 287 286 287 287 286 286 286 285 285 285 283 283 282 282 282 281 280 280 280 280 280 280 279 278 278 278
290 292 284 283 275 274 281 282 287 287 289 289 288 289 289 289 287 286 286 286 287 287 286 286 286 286 285 285 286 285 284 284 283 283 282 281 281 281 280 279 279 279 279 279 279 277 278 277 277
286 286 287 288 284 277 275 284 290 292 292 289 289 290 289 289 287 286 286 286 287 286 285 285 284 284 284 285 284 284 283 283 282 281 280 280 280 279 279 279 279 279 278 278 277 276 277 276 276
290 290 290 286 281 283 281 286 289 288 290 291 290 290 290 289 288 287 286 285 285 284 284 284 284 284 284 285 284 283 283 282 281 280 279 279 279 279 279 279 278 278 277 277 276 276 276 275 275

GFSSGP_sfc_thetae_066.txt.gz
Theta_e
319 311 310 309 299 293 288 291 293 295 294 296 302 302 300 301 301 293 315 332 341 347 349 350 351 353 353 352 352 352 353 352 350 349 347 345 343 342 341 339 338 338 336 334 334 337 339 341 341
318 314 310 300 292 286 287 291 294 296 298 301 301 299 302 303 311 314 317 338 345 347 349 349 348 352 353 352 353 353 352 352 349 349 347 345 342 341 340 338 336 336 334 333 332 334 338 339 340
315 311 302 295 288 287 288 292 294 296 299 298 298 303 303 305 311 313 319 337 345 346 348 347 347 352 352 352 352 352 351 351 349 347 347 344 342 340 338 336 336 334 332 330 331 332 335 336 339
307 305 300 291 288 290 293 295 296 297 297 299 300 300 308 313 314 318 326 342 342 345 347 345 348 351 351 351 351 350 350 350 348 347 345 343 342 339 337 336 334 333 330 328 328 329 331 333 335
304 298 292 289 287 291 292 296 296 296 295 296 298 297 304 311 319 323 328 336 338 342 345 346 346 348 349 349 350 350 349 348 348 346 346 342 341 339 337 335 333 331 329 325 325 325 326 328 328
299 295 289 287 288 291 293 297 298 295 295 298 299 298 300 306 315 322 327 328 338 340 343 345 341 342 345 347 348 348 347 347 347 347 345 343 341 339 337 336 334 332 328 322 321 320 321 323 323
295 290 288 287 289 291 295 296 295 295 296 295 300 297 298 303 310 320 317 317 321 328 334 342 343 340 339 341 342 343 345 344 345 345 344 342 341 339 337 336 334 333 329 321 319 318 318 319 319
296 292 290 288 290 291 295 296 296 296 295 299 298 294 294 300 311 313 313 310 310 312 315 320 338 339 339 338 334 337 340 340 341 340 338 335 335 335 335 332 334 332 329 325 322 320 318 317 316
296 289 286 287 289 293 295 295 297 297 297 296 298 296 298 303 309 308 306 306 306 307 308 309 314 331 335 338 338 333 335 336 335 335 331 329 335 333 331 329 333 332 331 328 325 321 319 317 319
294 288 290 291 292 293 295 295 297 294 295 294 295 298 300 302 305 305 303 301 300 302 307 308 309 310 320 332 338 340 337 338 338 337 333 333 332 331 330 327 328 328 328 329 327 323 318 311 304
293 289 293 293 296 297 297 294 296 294 292 295 296 298 299 299 301 301 299 299 300 302 307 309 310 311 310 323 334 338 334 333 334 336 334 333 331 329 328 325 324 322 319 318 317 313 311 309 307
291 295 295 298 298 296 295 296 295 295 295 298 298 298 297 297 298 298 299 300 302 305 305 307 309 310 311 312 329 333 333 331 331 334 334 332 329 327 325 324 322 319 316 314 313 312 312 311 310
293 294 297 298 298 296 298 296 295 295 295 296 298 298 297 296 297 297 299 300 303 304 303 306 309 311 313 312 329 328 327 327 327 327 329 331 329 327 327 323 321 320 318 316 313 310 309 309 310
296 296 296 297 298 297 296 294 296 294 295 295 297 296 295 296 296 295 298 299 303 304 303 307 313 314 314 326 324 322 322 321 321 321 323 327 329 327 323 320 318 316 315 313 311 308 307 306 307
296 292 294 296 296 296 296 293 294 295 294 294 295 294 294 295 295 296 296 299 302 303 304 307 310 317 319 318 318 318 318 317 316 316 318 319 320 318 316 315 313 313 313 312 310 308 305 301 302
291 290 287 293 295 295 295 290 295 295 294 293 293 292 293 294 295 295 296 300 300 301 304 305 310 312 314 313 314 314 314 313 312 313 314 314 315 314 313 311 310 310 309 306 302 301 297 296 297
288 285 286 291 295 293 292 291 294 293 293 292 291 291 292 292 293 293 297 298 299 301 303 303 306 308 310 310 310 308 308 308 307 309 309 310 310 309 308 306 304 304 304 302 297 294 294 293 295
285 285 287 288 292 291 289 290 292 293 292 293 292 291 291 292 293 293 296 297 298 300 301 301 305 305 306 304 302 301 300 299 301 301 303 304 304 302 300 298 296 296 297 296 293 290 289 290 294
289 287 287 289 294 291 290 291 294 293 291 290 290 291 292 293 292 293 296 297 297 299 300 300 302 303 303 301 299 299 296 295 295 295 296 296 296 295 293 291 291 291 291 291 292 289 286 286 288
290 287 288 290 293 291 290 290 292 292 292 294 294 294 293 291 290 292 294 295 297 298 299 301 302 303 304 303 297 295 293 291 292 292 291 291 291 290 290 289 288 287 287 286 286 287 285 284 284
289 288 286 289 290 289 287 287 289 292 294 294 295 297 295 293 291 291 293 294 295 297 299 301 303 304 300 296 294 291 291 291 290 289 287 288 289 288 288 287 287 286 285 284 283 283 283 282 282
287 292 291 290 287 284 288 283 287 290 291 292 295 295 294 292 292 292 294 294 295 297 300 304 304 298 296 295 293 292 292 289 288 287 286 286 287 286 286 286 285 284 284 283 283 283 282 282 280
289 292 290 288 285 282 284 281 286 290 290 293 296 294 292 292 291 291 293 295 296 297 300 303 299 296 296 295 294 292 290 287 286 285 284 284 284 284 284 284 283 283 283 281 281 281 281 281 280
293 290 289 286 284 279 284 284 285 287 291 293 297 295 291 290 291 292 294 295 294 294 296 298 296 294 295 294 291 290 287 286 284 283 283 282 282 282 282 283 283 282 282 282 281 281 280 280 280
291 288 280 278 277 279 284 282 289 291 293 293 295 294 289 289 289 290 291 292 292 292 293 295 295 293 292 291 290 289 287 286 284 283 283 282 281 280 280 282 282 282 282 281 281 280 280 280 279
288 287 281 274 276 279 283 280 286 291 294 294 293 291 288 288 290 290 291 291 292 292 292 294 293 291 290 289 288 287 286 285 285 284 283 282 281 281 281 281 281 281 281 280 280 280 279 278 278
286 285 290 284 272 275 282 285 290 290 291 291 291 288 286 287 288 289 290 290 290 290 291 292 291 290 289 288 287 286 286 285 284 283 282 282 281 281 280 280 280 280 279 279 279 279 278 278 277
288 290 283 282 273 272 280 281 286 288 289 292 290 288 287 287 286 287 287 288 289 289 289 291 290 289 288 288 287 286 285 285 283 282 281 281 281 280 279 279 279 279 279 279 278 277 278 277 277
286 285 286 286 281 276 275 283 289 290 291 291 292 288 287 287 286 286 286 287 287 286 285 287 288 287 286 286 285 284 284 283 282 281 281 280 280 279 279 279 279 279 278 278 277 277 277 276 276
288 288 288 284 280 281 280 285 289 290 290 290 291 289 287 288 286 286 286 285 285 284 284 285 284 284 285 285 284 284 283 282 281 281 280 280 279 279 279 279 279 278 278 277 276 276 276 275 275

GFSSGP_sfc_thetae_069.txt.gz
Theta_e
318 311 309 306 296 292 287 289 291 293 293 298 301 299 298 301 299 292 313 323 339 344 348 348 351 353 353 352 352 353 351 350 350 347 345 343 342 341 340 339 337 336 335 335 338 340 341 341 342
316 312 308 298 290 285 287 290 293 295 298 301 300 299 302 302 310 314 316 336 344 346 348 348 348 351 351 351 352 352 351 350 349 347 344 343 341 340 338 338 336 334 333 334 336 338 339 340 340
312 308 301 293 287 286 288 291 292 296 299 295 298 302 303 305 310 312 320 340 344 344 347 346 347 351 351 352 352 351 351 350 349 347 344 343 341 338 337 336 334 331 331 331 333 335 338 338 337
306 304 297 290 287 289 291 294 294 295 295 299 300 301 308 312 313 316 325 341 341 343 346 343 347 351 351 351 351 350 350 350 348 346 343 342 340 337 336 334 332 329 328 329 330 332 335 332 336
301 297 291 288 289 292 291 294 295 295 295 295 296 298 304 310 315 323 332 341 338 340 344 343 345 347 348 350 350 350 349 349 348 347 342 341 339 337 335 333 332 328 325 325 326 328 329 328 332
297 294 288 286 287 290 293 295 294 294 294 296 298 300 304 305 314 321 328 332 335 338 343 344 339 342 345 347 347 347 348 348 347 346 343 341 339 337 336 334 333 327 323 322 322 325 326 325 326
294 290 287 287 288 290 293 296 293 294 294 294 300 296 299 303 313 318 319 322 326 332 337 341 342 339 337 340 342 344 345 345 345 344 343 341 339 338 336 335 333 328 323 320 320 321 321 321 321
293 291 285 287 288 290 294 295 294 295 293 297 297 294 297 303 316 313 311 311 312 314 318 331 340 337 338 338 334 337 339 340 341 340 337 335 334 335 334 331 333 329 326 323 322 320 319 319 318
293 287 285 287 289 292 294 293 295 295 296 294 296 296 298 305 311 308 307 307 308 308 309 312 328 337 337 338 336 332 334 335 335 335 331 330 334 333 330 328 331 331 329 326 323 320 317 315 315
292 287 289 290 290 291 294 293 296 294 294 293 294 297 299 304 307 308 308 307 305 304 307 308 309 315 327 334 338 337 335 335 336 337 333 334 332 331 330 325 327 328 328 327 323 320 315 309 304
290 288 291 291 294 295 294 293 295 293 291 294 295 297 298 299 305 306 304 303 303 303 307 309 310 310 312 326 334 335 333 334 334 333 332 332 330 329 328 325 323 321 317 315 313 311 309 308 306
292 293 293 295 296 295 294 295 293 293 295 296 297 298 297 298 302 302 300 299 301 304 306 307 309 310 311 313 329 334 332 331 333 333 332 330 328 327 325 323 322 319 317 314 312 310 310 309 308
291 292 295 296 296 294 296 295 294 295 294 295 296 297 297 297 298 298 299 299 301 303 304 306 307 309 311 309 330 330 329 329 328 333 332 330 328 326 325 322 320 319 317 315 312 309 308 307 307
293 294 295 296 295 296 294 292 294 295 295 295 296 296 295 296 296 295 297 298 301 303 303 305 309 312 311 311 325 323 324 324 324 324 331 329 328 326 323 320 318 316 315 313 311 307 305 303 304
294 291 293 294 294 295 295 292 292 294 294 294 294 294 294 295 295 296 297 298 301 302 303 306 308 313 312 320 320 319 319 319 318 318 321 326 327 323 320 317 314 313 313 311 308 304 304 302 302
290 289 287 291 294 294 294 289 294 294 293 293 293 292 293 294 295 295 296 298 301 300 303 305 311 314 314 316 316 315 314 314 314 314 315 318 319 318 316 313 311 310 308 306 303 300 298 297 298
287 284 285 290 294 292 291 290 292 292 292 292 291 291 292 292 293 293 294 297 299 300 302 303 308 312 311 311 310 308 308 308 310 311 311 311 313 312 311 308 306 306 303 300 297 293 294 296 296
284 284 285 286 290 290 288 289 293 292 291 292 291 291 291 292 294 293 294 297 298 299 301 302 307 308 308 304 303 302 302 301 303 304 305 306 305 304 303 302 302 301 296 292 290 291 290 292 294
288 285 285 288 292 289 289 289 293 293 291 290 290 291 292 293 295 292 294 296 296 298 299 302 304 302 304 303 302 302 298 298 298 298 299 299 299 297 297 296 296 295 291 289 288 288 292 286 288
288 286 286 289 291 290 290 289 291 292 292 292 294 294 294 293 290 291 293 294 296 298 300 300 304 304 304 305 299 297 296 293 294 295 294 294 294 293 293 291 289 288 287 286 286 286 284 283 283
288 286 285 287 288 288 286 285 288 292 293 294 293 296 297 295 292 290 292 294 296 297 299 300 304 304 304 297 295 292 292 292 292 291 290 290 290 288 288 287 286 285 285 283 283 283 282 281 281
286 290 289 288 286 282 286 281 287 289 291 291 295 296 295 293 292 292 293 293 296 298 299 300 304 303 297 296 295 294 295 293 290 290 288 288 286 286 286 285 284 283 283 282 282 282 281 281 280
288 291 289 287 284 282 282 281 286 288 288 292 295 296 294 293 292 291 293 295 296 298 299 301 304 297 296 296 296 296 294 289 288 287 286 286 284 284 284 284 283 282 282 281 281 280 281 281 280
292 289 287 285 283 279 284 284 284 286 289 291 295 296 294 291 290 290 292 294 295 297 300 304 299 297 295 295 295 293 289 288 287 286 285 284 282 282 282 282 282 281 281 281 281 281 281 281 280
290 288 280 278 277 279 282 281 288 290 292 292 294 295 291 288 288 288 290 292 293 296 300 300 297 294 294 294 292 291 289 289 287 286 284 282 281 281 280 281 281 281 281 281 281 281 280 280 279
287 287 281 274 275 278 282 280 286 290 293 292 292 291 289 288 288 288 291 293 293 296 298 298 294 292 293 292 291 290 289 289 287 286 284 283 282 281 281 281 281 281 281 281 281 280 279 279 278
286 284 289 283 271 274 282 284 289 290 290 292 292 288 287 287 287 288 290 292 293 295 296 296 293 291 291 291 290 289 288 287 286 284 283 282 282 282 281 281 280 280 280 280 280 279 278 278 278
288 290 283 282 274 272 279 280 285 288 290 291 291 292 288 287 286 287 289 290 292 293 292 291 292 290 290 290 289 288 287 286 285 283 281 281 281 281 280 280 280 279 279 279 279 278 278 277 277
285 284 284 286 281 275 273 283 288 289 291 291 291 290 288 287 286 286 287 288 289 288 287 288 289 289 289 288 288 287 285 284 283 282 281 280 280 280 280 280 279 279 279 279 278 278 277 277 276
287 287 287 282 279 281 279 285 290 289 289 289 291 290 287 287 286 285 286 286 285 285 285 286 287 288 288 288 287 286 284 283 281 281 280 280 280 280 280 280 280 279 279 278 278 277 277 276 276

GFSSGP_sfc_thetae_072.txt.gz
Theta_e
318 310 308 304 295 291 286 288 290 292 292 298 298 296 296 299 297 291 311 324 339 342 345 347 350 352 352 352 352 350 350 350 347 345 343 343 341 340 339 337 336 335 337 339 340 341 341 342 344
313 310 305 296 290 285 286 288 291 293 299 301 299 299 301 300 309 314 316 333 341 344 346 346 348 352 352 351 351 350 350 350 347 344 342 342 339 339 338 336 334 334 335 337 338 340 339 341 344
310 306 301 292 286 286 286 290 292 294 299 294 299 303 303 304 309 312 318 338 342 343 345 345 347 351 351 352 351 351 350 350 348 344 342 340 339 337 336 333 332 331 332 334 337 339 339 341 341
305 302 295 290 288 290 292 292 293 296 295 296 301 300 305 312 312 317 327 340 340 342 344 343 347 350 351 351 350 350 349 348 348 343 342 340 338 336 334 332 329 329 330 332 335 335 337 339 337
299 296 290 286 287 291 290 293 294 295 292 294 297 296 302 309 312 322 330 339 337 339 343 343 345 348 349 349 350 350 349 348 347 344 341 340 338 336 335 331 327 326 326 328 331 331 334 334 332
296 293 287 285 286 290 293 293 294 292 292 295 297 302 304 304 313 318 331 334 335 337 341 342 339 341 344 346 346 348 348 347 346 344 341 339 338 336 335 333 326 324 323 326 328 328 328 328 325
294 290 286 286 286 289 292 294 292 293 294 295 300 299 300 302 313 318 324 327 330 334 338 340 341 338 337 341 342 343 345 345 344 343 342 340 338 337 335 334 327 325 323 322 323 323 323 322 320
292 290 285 285 287 289 293 294 293 294 293 296 297 295 296 306 316 314 314 316 316 320 326 334 338 337 339 338 335 337 339 340 341 340 336 334 334 333 332 330 330 327 326 324 322 321 320 318 316
291 287 284 286 288 291 292 292 292 293 294 293 296 295 298 307 311 310 309 309 310 311 312 319 336 334 335 336 335 332 334 335 335 334 330 329 333 330 328 328 330 330 327 324 321 318 316 315 314
290 285 287 289 289 293 293 292 294 294 292 292 293 296 298 309 308 311 311 313 310 308 308 310 315 326 334 337 338 338 337 336 338 337 333 333 332 330 329 324 326 328 326 324 322 319 314 308 303
288 287 290 290 293 293 293 291 294 293 291 294 295 296 298 306 308 311 311 311 310 306 307 309 310 311 320 329 335 336 332 332 332 331 332 332 330 328 327 324 322 320 315 312 312 310 308 306 304
291 292 291 293 295 293 292 293 292 293 295 294 296 297 297 301 306 308 309 307 303 304 306 308 309 310 310 313 327 334 332 332 333 331 331 328 328 327 325 323 321 318 316 313 312 310 308 307 306
291 291 293 294 294 292 294 294 293 293 295 295 294 297 297 298 302 302 304 302 301 303 305 306 307 308 310 310 315 331 331 331 334 331 329 329 327 325 324 322 320 318 316 313 311 309 306 305 304
292 293 293 294 294 294 293 291 292 294 294 294 295 295 296 297 299 297 298 299 299 302 303 305 307 310 311 311 319 326 327 327 330 332 330 328 328 325 323 320 317 316 314 312 310 308 305 303 300
293 291 292 292 292 294 293 291 292 293 292 294 294 294 294 295 296 298 300 298 299 301 302 304 306 310 310 310 319 321 321 322 322 322 328 328 327 324 321 318 315 312 312 309 306 304 304 301 299
290 289 287 290 292 292 293 288 294 293 293 294 292 292 293 294 295 295 296 297 299 300 301 304 310 309 314 317 317 316 316 316 316 318 321 325 324 322 319 315 313 311 308 305 303 302 300 298 296
287 283 284 289 292 290 290 289 292 291 291 292 292 291 292 292 293 294 294 296 298 299 301 303 306 308 312 312 311 311 311 311 312 313 314 316 318 318 316 312 310 306 304 301 300 298 299 295 292
283 283 284 285 288 288 288 289 292 292 291 292 292 291 291 292 294 296 293 294 297 298 300 302 306 310 309 306 305 305 304 304 306 308 309 310 311 311 310 307 305 301 297 296 297 296 292 293 290
286 284 284 286 291 289 288 288 292 293 290 290 291 291 292 293 297 294 293 294 296 297 299 300 306 308 305 305 304 304 301 300 299 301 303 303 305 307 305 303 299 296 295 295 295 294 293 288 288
286 285 284 287 289 289 288 288 292 293 291 294 295 294 294 295 292 291 291 294 295 297 302 303 306 305 305 305 302 300 299 295 296 296 296 299 299 300 301 299 295 292 292 291 292 292 284 283 283
286 285 284 286 287 287 285 284 287 291 291 293 293 296 296 296 295 291 290 293 295 296 301 303 305 304 303 300 296 294 295 294 293 293 293 292 294 294 295 294 291 287 290 290 286 287 287 282 280
284 289 288 287 285 281 285 280 287 289 291 291 294 294 295 295 292 291 291 292 295 296 301 303 305 304 301 297 298 298 299 297 294 293 290 290 291 290 289 288 286 285 284 285 283 283 282 282 280
288 290 288 286 283 281 280 280 284 286 288 291 295 296 293 293 292 291 291 293 295 296 300 302 305 304 298 298 299 300 299 291 291 289 288 287 287 287 285 284 283 283 282 281 281 280 280 280 279
291 287 286 283 282 278 282 283 283 285 289 291 293 294 292 290 290 290 290 292 293 296 300 301 303 300 297 298 298 298 291 290 288 287 287 286 286 284 282 282 281 281 281 281 280 280 280 280 280
288 286 280 278 276 279 281 280 287 290 291 292 294 293 290 290 288 288 289 290 292 296 299 302 302 297 296 296 296 295 292 290 291 287 287 284 284 283 280 280 280 280 280 281 281 281 280 280 280
286 286 280 273 274 278 281 280 286 290 292 291 291 290 289 291 289 287 288 290 292 295 299 302 299 297 296 296 295 293 292 292 291 289 287 286 285 283 280 280 280 280 281 280 281 281 280 280 280
285 284 288 282 270 274 281 284 288 290 290 292 291 289 289 289 289 286 288 289 290 294 299 300 298 296 295 294 292 291 291 290 289 287 286 284 283 282 280 281 280 280 280 280 280 280 279 279 279
288 289 283 281 273 270 279 280 284 288 290 290 290 291 291 288 286 286 288 289 290 293 295 295 296 294 294 293 292 290 290 289 287 285 284 283 282 282 281 280 280 279 279 279 279 279 279 278 278
285 284 284 285 280 275 272 282 287 289 290 290 291 290 290 288 287 286 287 288 289 290 290 291 293 291 290 290 289 289 288 287 285 284 283 283 282 280 280 280 280 280 279 279 279 279 278 278 278
286 285 286 282 278 280 279 285 290 290 290 290 289 289 288 288 287 285 287 287 287 287 287 289 290 291 289 288 288 288 287 285 284 284 283 282 281 280 280 280 279 279 279 279 279 278 278 278 277

GFSSGP_sfc_thetae_075.txt.gz
Theta_e
320 313 312 308 302 296 293 294 297 297 297 302 300 300 301 303 299 296 316 334 339 343 348 349 350 352 352 353 350 349 351 348 345 343 343 341 340 339 338 337 337 339 339 340 342 341 343 343 342
315 312 308 301 295 290 291 294 295 297 303 304 303 305 305 305 313 318 325 332 342 345 348 349 347 352 352 352 351 351 350 349 344 343 341 340 339 338 336 335 335 336 338 339 340 342 344 342 341
312 307 306 296 290 290 291 294 296 299 302 300 303 307 307 307 313 319 322 336 345 346 348 349 347 351 352 352 351 350 350 349 345 342 341 339 338 335 334 333 333 334 337 338 340 342 341 339 338
308 306 298 295 293 294 295 297 297 300 301 300 305 304 310 316 316 320 334 342 344 346 347 345 347 350 351 351 350 350 349 348 346 341 340 338 336 334 332 330 331 332 335 336 339 341 339 336 335
301 300 294 292 292 294 294 297 298 299 298 301 302 301 308 315 317 325 337 342 342 345 346 347 346 348 350 350 349 349 348 347 345 341 340 338 337 334 330 328 328 329 332 334 336 335 333 330 328
299 297 292 290 291 294 296 297 298 298 298 300 301 303 308 311 316 327 337 341 342 343 345 346 340 342 345 347 347 347 347 346 345 341 340 339 337 335 330 327 325 328 329 331 331 330 327 324 322
297 294 291 290 290 294 296 296 296 297 297 299 304 302 306 308 318 326 336 337 339 341 342 344 345 342 337 340 342 343 344 344 343 342 341 339 337 336 331 330 327 325 325 326 326 325 322 320 319
294 293 290 289 290 293 296 296 297 297 297 301 305 301 302 312 320 322 326 327 329 334 339 341 343 343 344 343 335 337 339 340 340 339 336 333 333 332 330 329 329 326 324 323 322 320 319 318 317
296 290 288 290 290 293 295 295 297 298 298 299 301 301 303 311 316 318 318 319 320 320 326 335 340 341 341 341 337 333 334 335 335 333 330 328 332 330 328 327 328 327 323 321 320 319 318 316 315
292 288 289 291 292 293 295 295 296 297 297 298 298 300 303 313 314 318 319 322 320 319 317 325 332 339 339 338 338 339 339 340 340 336 333 334 331 330 328 325 325 326 324 322 320 317 312 309 308
291 289 291 292 294 295 295 294 296 296 294 297 299 299 301 311 313 317 318 322 321 318 315 316 320 323 336 337 338 338 337 337 340 337 336 333 330 329 326 324 321 318 316 316 314 312 310 309 308
291 293 292 295 296 295 294 296 294 294 298 299 298 300 301 309 312 315 318 317 314 312 315 314 315 317 320 325 334 338 335 338 336 336 334 332 331 328 325 323 320 317 316 314 313 311 310 307 305
292 292 294 295 295 294 295 295 295 295 297 298 298 298 300 306 313 313 314 314 311 311 311 312 313 314 315 317 321 333 334 335 337 335 333 330 328 327 325 322 320 317 316 314 311 309 306 304 303
293 294 295 295 295 295 295 293 294 296 296 296 297 297 298 301 308 306 307 311 307 308 309 310 310 313 314 316 318 329 333 333 334 333 333 330 329 327 324 321 318 317 314 313 310 306 302 300 299
294 292 293 293 294 295 295 293 293 296 295 296 296 296 296 298 300 305 310 308 307 305 306 307 309 313 314 314 317 326 328 328 329 332 332 331 329 328 323 319 317 316 312 310 307 303 301 297 294
291 290 288 291 293 293 294 289 295 295 294 296 295 295 295 296 298 300 302 304 303 303 304 306 309 312 314 314 320 321 324 323 324 327 331 330 329 327 323 318 315 313 309 308 307 301 299 295 292
287 284 285 289 293 292 292 290 294 294 293 294 294 294 294 296 296 297 298 300 301 303 304 305 309 311 315 316 317 317 318 317 317 319 324 327 325 323 321 317 312 311 306 304 303 300 297 291 290
284 284 285 286 290 290 289 290 293 293 293 293 294 294 294 294 297 299 298 298 299 301 303 305 308 310 312 312 311 310 309 309 311 312 314 319 321 320 316 314 309 307 303 301 301 298 295 291 289
286 284 284 287 290 290 289 289 293 294 292 292 294 294 295 296 300 298 297 297 297 300 301 303 307 309 309 309 308 307 306 304 304 306 308 310 313 313 313 310 305 302 301 301 299 296 292 289 289
287 285 285 288 289 290 289 288 292 294 294 296 297 298 297 297 296 296 295 295 297 299 301 303 306 308 308 310 309 307 303 299 300 300 301 304 307 311 309 307 302 300 298 298 297 294 292 290 291
286 285 285 287 288 288 286 285 287 291 293 295 296 298 299 298 298 295 293 294 296 297 300 302 306 307 308 306 300 297 298 297 296 296 297 297 301 303 304 303 300 297 300 298 297 295 293 289 288
284 289 288 286 286 282 286 281 286 290 291 292 296 296 296 295 295 295 293 293 295 297 300 303 306 306 307 300 302 302 302 299 298 297 295 294 296 299 297 295 294 295 298 297 297 295 293 292 289
287 289 288 286 284 283 282 282 284 287 289 293 297 296 295 295 294 294 293 294 295 297 300 303 305 305 305 301 304 304 304 302 297 293 292 291 291 292 293 292 290 291 294 296 294 290 289 293 288
291 288 286 284 283 279 283 283 283 286 290 292 295 294 294 294 294 293 292 292 293 296 300 302 304 304 300 301 301 304 304 294 293 291 291 290 289 288 287 287 286 287 290 291 291 288 289 288 287
288 286 280 277 276 279 281 281 286 290 291 292 295 294 293 293 293 292 291 291 292 295 298 301 303 303 300 300 300 302 298 296 295 292 292 288 287 286 285 285 285 286 286 286 286 286 286 286 286
286 286 280 273 275 278 281 280 286 290 293 292 291 291 292 293 292 291 290 291 292 295 298 300 301 301 299 299 299 299 296 296 297 294 293 291 291 288 285 284 285 284 284 284 285 285 284 284 284
285 283 288 283 270 275 281 284 289 290 291 291 292 290 293 293 292 291 290 291 292 294 297 299 301 301 298 298 297 294 294 294 293 291 290 289 288 285 284 283 283 284 284 284 284 283 283 283 283
288 289 283 281 274 271 279 281 284 289 290 291 291 292 292 291 290 289 289 290 291 293 297 300 301 298 296 297 295 293 293 293 291 288 287 286 284 284 283 283 282 283 283 282 283 282 282 282 282
285 284 284 284 281 276 273 283 287 289 291 291 292 293 292 291 290 289 289 290 291 292 294 299 297 294 294 295 293 292 291 291 289 288 286 285 284 283 282 282 281 282 281 282 282 281 281 281 280
285 285 285 281 278 279 279 285 289 289 290 291 291 292 291 291 290 288 288 289 289 290 291 294 294 293 293 293 292 291 289 288 287 286 285 284 283 283 282 281 281 281 281 281 281 280 280 280 280

GFSSGP_sfc_thetae_078.txt.gz
Theta_e
325 321 325 321 308 306 301 300 303 302 303 307 309 308 309 308 305 303 327 341 343 344 346 346 350 352 353 351 349 349 348 345 344 343 341 340 339 338 338 339 340 340 342 342 342 345 343 341 339
320 318 321 315 304 298 300 302 301 305 307 309 308 310 308 308 318 324 330 340 344 345 346 346 347 351 352 350 349 349 349 347 343 342 341 339 337 337 336 337 338 338 341 339 344 344 342 339 337
317 315 316 311 305 298 299 302 304 305 308 307 308 312 311 310 319 329 332 341 344 345 347 348 347 350 351 351 350 349 349 346 343 341 340 338 336 334 334 335 336 338 339 342 343 342 340 337 336
318 315 310 304 300 302 301 304 305 307 306 306 309 307 315 321 324 327 335 341 345 345 347 346 348 351 351 350 349 347 347 346 343 340 339 337 334 332 332 333 335 336 338 341 342 340 337 334 333
316 314 304 302 300 301 303 304 306 306 305 306 309 306 311 320 324 329 340 341 344 345 347 349 346 348 350 350 350 348 347 346 343 340 338 336 333 331 330 331 333 334 337 339 337 333 330 329 328
311 311 302 299 300 301 303 305 306 307 305 306 306 307 311 322 323 331 342 342 345 344 347 348 341 343 347 348 348 347 346 345 342 340 339 337 333 330 328 330 332 333 334 334 330 327 325 325 325
309 306 301 300 299 300 303 305 305 306 305 305 309 305 312 318 326 333 342 343 345 345 346 347 347 343 338 341 342 343 343 343 342 341 340 338 335 331 330 330 329 330 330 329 326 323 322 322 324
309 308 299 300 299 300 304 304 304 306 305 307 312 305 307 318 329 336 341 342 343 344 345 345 345 344 345 347 335 337 339 340 340 338 335 333 331 330 330 327 327 326 326 324 322 320 320 322 322
304 302 299 299 298 301 302 302 303 305 305 306 309 308 310 321 329 333 336 337 339 341 344 344 344 344 344 345 340 334 334 335 334 333 329 327 330 329 328 326 326 324 323 322 321 320 320 319 318
304 301 300 301 303 302 302 303 304 303 303 304 306 308 308 321 326 329 332 332 334 335 339 342 344 344 344 342 343 343 342 343 341 337 332 334 331 330 328 324 323 323 322 320 319 316 314 317 318
300 299 298 300 301 301 302 301 304 303 302 306 307 309 308 318 324 326 329 331 332 335 336 338 342 344 344 340 341 345 342 342 341 337 335 333 331 329 327 325 323 322 318 317 316 316 315 315 316
299 300 299 300 301 301 301 302 302 303 306 307 309 308 309 312 320 324 326 330 332 334 333 335 339 340 344 344 342 343 340 340 340 339 336 333 330 328 325 322 320 318 319 317 316 315 314 313 312
300 300 300 301 301 301 301 302 303 303 307 307 305 304 307 310 316 323 326 329 332 331 332 331 332 336 337 339 341 343 341 341 341 340 339 333 330 328 326 322 319 318 317 316 313 310 309 309 309
301 301 301 302 302 302 300 301 300 304 305 305 304 305 307 308 312 319 323 325 328 330 330 329 327 330 331 333 336 340 343 343 340 340 337 332 330 328 324 322 320 318 317 315 312 309 307 304 304
301 299 301 302 300 301 301 300 300 306 304 304 304 306 306 306 309 314 320 322 327 328 329 325 324 325 325 327 329 334 339 339 339 338 338 334 330 327 324 323 320 317 319 316 311 306 303 299 298
299 299 296 298 299 300 301 296 303 303 302 304 306 307 306 307 306 309 315 321 325 326 323 323 318 320 323 325 326 329 334 334 334 335 337 337 331 329 325 322 320 317 313 313 308 304 300 298 295
297 293 294 296 299 298 299 298 303 302 302 303 306 306 306 306 307 308 310 314 320 321 320 319 318 319 320 322 322 326 329 331 331 330 334 336 333 331 327 322 318 315 310 309 304 302 300 295 293
293 293 293 294 296 297 297 297 302 304 303 303 305 306 307 306 307 309 308 309 312 316 317 317 315 316 318 319 320 321 321 323 325 325 324 331 332 330 327 319 315 312 309 305 303 299 296 296 293
294 293 293 296 296 296 297 297 300 303 303 302 304 305 306 307 310 310 309 309 308 310 312 313 312 314 316 317 316 316 316 315 315 315 317 319 327 326 321 316 312 308 305 303 300 295 293 293 293
294 293 293 296 296 295 296 296 299 301 302 303 304 305 306 307 308 308 307 307 306 307 309 310 312 313 316 316 316 316 317 314 313 309 309 310 315 319 317 313 309 307 304 301 296 294 292 291 294
294 293 293 293 295 295 294 294 297 300 300 301 303 305 306 306 307 308 306 305 306 306 307 308 310 312 315 315 316 311 311 309 306 304 305 303 307 311 313 311 309 305 303 299 296 296 293 292 294
291 296 295 292 292 289 293 286 295 298 299 301 302 305 305 306 306 305 305 305 305 306 308 308 310 311 313 315 312 311 311 310 311 308 306 300 302 303 307 307 305 303 302 300 296 296 297 295 294
293 294 293 292 291 290 292 288 294 295 296 299 302 305 304 305 304 304 304 304 305 305 306 307 309 310 312 313 312 311 311 313 312 307 300 300 297 299 300 301 302 301 302 301 299 296 299 299 299
295 293 292 292 291 286 291 289 291 294 296 299 302 301 302 303 303 302 300 299 301 303 304 306 307 309 311 311 311 310 310 312 308 306 301 297 294 295 293 296 297 297 298 298 298 299 300 301 300
295 292 286 285 284 284 289 288 292 297 298 300 303 302 302 303 303 303 301 299 299 301 303 305 306 307 309 309 309 308 310 311 309 306 304 297 292 290 289 290 291 294 294 295 297 298 299 299 298
292 293 287 283 283 287 287 285 294 299 301 303 302 300 300 301 303 301 300 300 300 301 303 304 305 306 307 307 307 307 309 308 309 307 306 301 295 295 292 290 289 290 292 293 295 297 298 297 296
291 288 295 289 281 284 289 295 299 299 299 299 300 299 302 303 303 301 299 299 300 301 302 303 304 305 305 305 307 307 307 306 305 302 299 297 296 291 288 287 286 288 288 291 292 295 291 292 291
294 296 288 289 284 283 288 289 291 296 297 300 300 299 303 302 300 299 298 298 299 300 302 304 304 304 304 304 305 305 304 304 302 296 294 293 290 287 286 286 285 285 286 287 292 291 289 289 288
291 290 290 291 289 286 285 290 299 299 301 300 301 301 302 301 301 299 298 298 298 299 301 302 303 303 302 303 303 302 301 300 297 294 294 290 288 285 284 284 284 285 284 286 286 288 288 287 286
293 293 292 287 284 287 287 289 296 297 298 299 300 300 301 301 300 299 298 298 298 298 299 300 303 302 301 302 302 301 300 297 294 292 291 289 287 285 284 284 283 283 284 286 284 286 286 285 284

GFSSGP_sfc_thetae_081.txt.gz
Theta_e
330 324 324 322 309 307 302 302 306 304 306 310 315 311 309 310 307 305 332 342 343 344 345 347 350 351 352 351 349 349 347 343 343 341 340 340 339 339 340 340 342 343 340 345 343 342 339 338 337
322 321 322 317 304 300 300 304 302 306 309 310 310 311 309 308 318 324 334 342 343 344 345 346 347 351 352 350 349 349 346 344 342 341 340 338 338 338 338 339 340 341 341 345 344 341 339 336 335
321 319 316 310 305 300 300 304 305 308 310 309 308 313 312 311 320 327 338 342 344 344 345 347 347 351 351 349 347 347 347 344 341 340 338 336 336 336 337 338 339 340 344 344 342 340 337 335 334
319 317 314 304 302 304 304 305 307 308 308 309 310 308 315 321 323 332 340 343 343 344 345 344 348 351 352 350 348 348 347 343 341 339 337 335 334 334 336 337 337 341 342 341 340 338 335 333 331
319 315 305 303 302 304 306 307 307 307 307 307 310 307 310 321 329 332 339 343 342 343 345 348 347 348 349 349 348 347 347 344 341 339 337 334 332 332 334 335 337 340 339 337 335 332 331 329 329
311 312 302 300 302 304 306 308 307 307 308 308 308 308 311 324 326 332 339 341 344 343 345 346 341 343 347 348 347 346 346 344 341 339 337 333 331 331 333 334 335 337 335 332 330 328 327 327 327
310 306 302 303 301 302 305 309 307 307 307 306 310 306 314 319 325 331 337 338 343 342 343 345 346 344 338 341 342 342 344 342 341 340 338 334 332 332 333 334 334 333 331 328 326 325 326 326 326
311 308 302 303 301 301 307 308 309 308 307 311 312 305 308 317 326 331 335 336 339 341 342 342 345 345 343 346 335 337 340 339 340 338 334 330 330 329 329 329 331 330 327 325 323 324 325 325 324
309 303 300 301 301 302 307 306 307 309 308 308 311 311 315 322 328 330 333 334 336 338 340 341 342 342 341 343 340 334 334 335 334 332 328 325 326 324 324 325 327 326 324 322 323 323 322 321 321
307 302 302 305 305 303 305 306 307 305 306 306 308 312 312 323 326 327 329 330 332 335 339 340 342 342 342 342 343 344 342 341 339 336 330 334 330 330 325 321 323 324 322 321 321 321 322 321 319
305 302 304 302 303 304 305 304 307 305 304 308 307 310 311 320 323 324 327 329 331 335 337 339 341 342 343 343 343 343 343 342 341 335 333 333 330 326 327 322 321 320 317 317 316 317 318 318 318
300 302 302 303 303 303 303 306 304 305 307 310 311 312 312 314 320 322 324 327 329 331 335 338 340 341 343 344 343 343 345 344 341 335 334 331 328 328 324 323 322 320 321 319 319 318 318 316 315
301 302 302 303 303 303 303 303 304 305 309 311 309 308 310 311 316 321 324 327 329 330 333 337 340 340 342 343 342 342 341 342 342 336 333 330 329 326 324 321 320 320 320 319 317 316 314 313 311
304 303 303 304 304 304 301 303 303 305 308 308 309 308 309 310 312 316 321 324 327 331 332 335 337 339 339 341 341 341 341 342 341 341 335 333 330 327 323 321 318 318 319 316 314 313 311 309 307
303 300 303 303 304 302 304 300 301 307 308 306 307 308 308 310 311 312 318 322 326 330 332 333 334 337 338 338 338 339 341 340 340 341 338 334 330 326 324 319 318 317 317 314 313 310 308 304 302
301 301 296 302 302 302 302 296 305 306 306 306 307 309 309 310 310 311 314 320 325 328 330 333 331 333 334 334 336 337 338 339 339 339 339 335 332 327 323 320 318 318 318 312 309 305 304 302 299
300 294 297 298 302 301 301 298 304 306 305 305 307 309 309 310 311 312 312 316 321 325 328 331 330 328 330 332 333 333 334 336 338 334 336 337 332 329 324 320 318 317 314 310 309 302 301 296 296
295 295 296 296 299 299 299 299 303 305 305 305 306 307 308 308 310 312 312 313 316 323 328 328 328 327 328 329 329 330 331 332 333 332 331 335 333 329 327 320 317 315 312 307 302 300 298 295 294
297 295 294 297 300 297 297 298 300 304 304 304 305 306 307 308 311 313 314 313 313 317 323 325 325 325 325 325 323 324 324 326 324 325 327 330 330 329 327 322 316 312 307 305 301 298 295 295 293
297 294 294 298 300 296 297 297 301 302 303 304 305 306 307 308 309 312 313 313 312 312 317 320 322 322 322 322 321 321 320 321 322 320 317 322 324 326 323 318 314 311 307 306 300 296 293 293 293
295 294 294 294 298 298 296 295 298 302 304 304 305 307 307 307 308 310 311 312 312 311 313 314 317 318 318 319 319 318 317 318 316 315 312 309 312 319 319 316 313 310 306 304 297 294 293 289 292
291 298 296 295 293 289 296 287 296 299 300 303 305 306 307 308 310 309 309 311 311 312 313 313 314 315 316 318 317 316 313 311 312 313 312 305 307 309 313 313 311 308 307 303 297 295 296 293 290
294 297 296 295 293 292 293 289 294 299 297 300 304 307 308 309 308 308 308 309 310 312 312 313 312 313 315 317 316 316 312 313 315 316 314 307 302 303 306 308 307 307 305 302 298 296 297 295 295
297 296 295 294 293 286 291 291 292 296 299 301 304 304 305 306 307 306 304 304 306 308 309 311 310 310 313 314 315 314 312 313 314 313 309 305 301 299 299 301 303 303 302 300 298 296 297 296 297
296 293 286 286 285 285 293 291 294 299 301 302 303 307 305 306 307 307 306 304 304 305 306 307 308 308 311 313 313 312 313 313 313 312 309 304 299 294 296 298 298 301 302 302 300 297 297 297 298
293 293 288 284 284 287 290 286 293 302 304 304 305 306 306 305 306 306 306 305 304 304 305 306 307 307 309 310 311 311 312 312 313 312 311 308 304 301 299 297 298 299 298 299 298 297 297 297 297
293 289 295 290 288 285 289 294 299 302 302 303 304 304 305 305 306 306 305 304 304 304 305 306 306 307 308 309 310 309 310 310 311 311 312 311 309 305 300 296 294 295 296 297 297 296 296 297 296
295 297 287 289 284 282 287 291 292 298 300 302 303 304 305 306 306 304 303 303 303 304 305 306 306 306 307 308 308 308 309 309 310 310 308 306 304 299 295 292 291 291 291 293 295 294 292 291 292
291 291 292 293 291 287 285 290 301 301 302 302 305 305 305 306 304 303 303 302 303 303 304 305 305 305 306 307 306 307 307 308 308 306 304 301 298 293 291 289 287 287 288 289 291 290 290 289 288
296 293 293 288 287 290 289 289 301 300 300 300 303 303 305 305 304 304 303 302 302 302 303 304 305 305 305 306 305 305 305 304 303 302 300 296 292 289 288 286 285 285 286 287 289 288 288 287 285

GFSSGP_sfc_thetae_084.txt.gz
Theta_e
330 325 321 317 305 302 297 298 301 302 302 304 311 306 302 306 307 304 330 337 340 339 343 348 350 352 350 348 349 348 346 342 342 341 340 339 340 341 341 343 344 344 345 342 340 338 338 336 335
320 319 318 313 300 295 294 300 299 303 306 306 307 305 304 306 318 320 331 339 341 341 342 345 348 351 351 350 349 347 344 342 341 340 339 339 339 339 340 341 342 344 344 342 340 337 337 334 334
321 317 311 305 300 295 295 298 301 305 305 304 302 305 305 309 318 325 336 339 341 341 341 344 347 350 351 349 349 347 346 342 341 339 338 337 337 338 339 340 342 344 343 341 339 337 335 333 333
316 312 309 299 298 299 299 300 303 304 302 303 303 301 310 317 319 330 338 339 338 340 343 343 348 351 351 349 348 347 345 342 340 338 336 336 336 338 338 339 343 344 341 340 337 335 333 331 331
314 311 301 298 298 299 301 303 302 303 303 303 303 300 307 316 326 331 336 338 338 338 343 345 347 349 349 349 347 347 345 342 339 337 335 334 334 336 337 340 341 339 338 336 334 332 330 329 330
306 306 297 295 298 300 300 303 301 301 302 303 301 300 308 319 323 329 336 336 339 342 345 344 340 344 346 347 346 346 345 343 340 337 334 333 333 335 336 339 337 334 334 333 331 329 328 328 328
306 302 297 297 298 298 301 304 299 300 301 301 303 298 309 316 322 330 333 337 337 342 343 343 344 342 339 341 342 343 343 342 340 339 335 334 334 336 336 337 334 331 331 330 328 328 327 327 328
305 303 298 296 296 297 302 302 302 301 300 304 305 298 301 313 321 326 331 331 335 340 342 342 342 343 343 340 335 337 339 339 339 336 331 329 330 331 331 330 332 330 328 327 327 326 326 326 325
307 297 294 297 297 297 302 299 301 303 301 301 306 303 310 317 324 322 325 326 329 336 339 341 341 341 339 341 336 333 334 334 333 330 326 323 322 323 324 326 328 327 325 325 325 325 324 323 323
301 296 297 299 299 298 301 299 301 298 299 300 302 306 311 319 320 320 323 323 326 332 335 338 339 340 338 340 338 338 336 335 334 331 324 327 323 322 322 321 324 324 324 323 323 323 323 319 313
301 297 299 299 301 301 301 298 302 298 298 301 301 304 308 315 318 319 323 323 325 328 334 336 337 337 337 338 339 339 337 336 334 330 326 330 324 320 319 317 316 315 316 315 317 318 314 313 312
295 300 299 302 301 300 298 302 299 300 300 303 304 305 306 313 316 317 320 322 324 326 330 333 334 337 338 338 339 338 337 337 334 329 331 328 323 321 318 315 313 312 312 310 312 312 311 310 310
297 298 300 300 300 298 301 298 298 299 302 304 305 304 305 308 313 316 318 321 323 325 328 331 332 335 337 338 339 339 337 338 335 329 330 328 325 323 319 319 317 316 314 314 311 310 308 307 307
300 301 300 300 300 300 298 297 297 298 300 301 303 302 303 305 307 311 315 317 321 324 325 330 333 333 336 338 337 338 338 337 336 330 330 328 327 323 321 318 318 316 315 313 311 308 305 303 304
301 296 299 299 300 298 299 296 297 300 302 301 300 300 302 304 305 306 311 315 318 321 326 327 332 334 333 335 336 336 337 337 336 333 330 327 326 323 320 318 316 315 314 311 309 305 303 299 299
296 294 289 297 299 298 297 290 299 299 298 299 300 300 301 303 304 305 306 313 317 320 324 327 330 332 332 332 332 332 335 336 335 335 333 330 327 324 320 317 316 315 313 310 306 303 300 296 294
294 287 290 294 299 298 296 292 298 299 298 298 299 301 302 303 303 304 305 306 315 318 323 325 327 328 330 330 331 330 331 330 332 335 334 333 328 324 321 318 316 315 312 308 304 301 299 295 294
288 289 291 289 295 295 293 293 298 300 299 298 298 299 300 301 303 306 306 306 308 317 320 324 327 326 327 327 326 326 326 326 331 331 333 334 330 325 321 318 317 315 309 306 303 299 296 294 293
293 291 289 292 296 293 292 293 295 297 297 297 297 298 299 300 303 305 306 305 306 310 316 323 325 324 325 324 323 322 323 322 321 326 327 330 331 327 323 318 316 313 309 306 301 297 294 293 293
292 290 289 292 296 292 292 292 296 297 297 299 298 299 300 300 300 303 305 305 305 306 312 318 323 323 323 324 323 322 321 320 319 318 319 324 327 327 323 319 315 313 308 302 299 296 294 292 292
291 289 288 289 292 292 290 288 292 296 298 299 300 301 300 300 301 301 302 304 303 304 307 313 318 321 322 321 318 314 314 312 313 314 314 314 316 324 325 319 315 311 308 302 299 297 295 290 291
288 293 293 291 288 283 291 280 288 293 295 296 298 299 299 300 302 302 302 303 303 303 304 308 312 315 318 316 314 312 312 310 308 309 307 306 309 313 319 317 314 312 308 305 300 298 296 294 290
291 294 292 290 287 286 286 282 287 292 291 294 297 299 299 300 301 301 301 302 303 305 304 305 306 309 311 312 311 310 308 308 307 306 305 303 305 307 309 315 312 310 308 305 301 297 296 294 293
296 292 291 289 287 280 286 285 284 288 291 294 296 297 299 299 299 299 299 300 300 302 303 304 304 305 308 309 310 309 307 305 305 306 306 304 302 302 304 306 309 309 307 303 300 297 296 295 296
292 288 280 280 278 278 286 283 287 293 295 295 297 298 299 300 300 298 297 297 298 299 301 303 303 303 305 307 308 308 307 306 306 306 304 300 300 297 301 303 304 305 305 303 301 297 296 296 296
289 289 282 275 278 280 283 281 287 295 296 299 299 298 299 299 300 299 300 299 298 300 301 301 302 302 304 305 306 307 307 306 306 307 305 303 301 302 300 300 302 302 302 301 299 298 297 297 297
289 286 291 284 277 277 282 287 292 295 297 297 298 298 297 298 299 299 299 299 299 299 300 301 301 302 303 304 305 305 305 305 305 305 305 304 301 300 297 299 299 299 299 301 300 298 297 297 296
291 293 283 284 274 273 280 282 286 292 294 296 296 297 299 298 299 299 298 298 298 299 300 301 302 302 302 303 304 304 303 304 304 304 303 302 301 298 295 294 296 296 296 297 297 296 296 296 296
288 287 289 288 285 279 277 282 293 294 295 295 297 298 298 298 299 297 297 297 298 298 299 300 300 300 301 302 302 302 302 302 303 302 301 298 296 293 292 290 291 291 292 294 295 294 294 295 294
291 289 290 283 281 283 282 285 295 295 296 295 295 298 297 298 298 297 297 296 296 297 297 298 300 300 300 301 301 300 301 301 300 299 297 295 293 290 289 288 287 288 289 290 291 290 291 291 288

GFSSGP_sfc_thetae_087.txt.gz
Theta_e
322 316 315 310 298 295 290 292 296 298 298 300 306 303 302 304 305 301 326 336 338 340 343 347 350 351 351 350 349 346 345 342 341 340 340 341 341 342 343 344 345 345 340 338 339 336 336 337 338
318 317 310 303 294 289 289 293 296 299 301 302 305 303 303 304 316 319 329 337 338 341 344 347 347 350 350 350 348 346 344 342 341 340 340 340 340 341 341 342 344 344 341 337 338 336 335 335 336
318 315 304 298 292 289 290 293 298 300 301 300 300 303 303 308 318 324 333 338 339 340 345 346 347 350 350 350 348 346 344 342 340 339 339 339 339 341 340 344 343 343 341 338 337 335 334 334 334
310 306 301 294 291 293 293 296 300 299 300 301 301 300 308 314 321 330 336 339 338 339 343 344 348 350 350 349 348 346 344 341 339 338 337 338 339 339 342 344 342 341 339 336 336 333 333 333 333
307 302 295 292 291 293 296 299 301 299 298 298 299 299 306 318 331 333 334 337 336 339 341 345 347 348 348 348 347 346 344 341 338 336 336 337 338 338 343 341 340 339 337 334 333 331 331 331 331
300 299 291 289 291 295 296 299 300 299 298 299 298 299 307 318 325 331 334 335 340 339 342 345 340 343 345 346 346 345 344 341 338 336 335 336 337 339 340 340 338 336 334 333 330 329 330 330 331
299 295 290 292 292 294 297 299 297 297 298 299 301 297 307 315 322 330 333 334 340 341 341 343 344 342 339 341 341 342 342 341 339 337 336 337 337 338 338 336 333 333 332 331 328 328 329 329 331
300 297 294 292 291 293 297 298 299 298 297 301 302 297 303 312 322 329 331 333 340 341 341 341 341 342 341 340 335 337 338 338 337 334 332 331 332 333 332 330 332 331 330 329 327 328 328 330 329
300 293 290 292 292 293 297 296 299 300 300 299 302 304 308 315 322 324 324 324 335 336 338 341 340 340 340 338 334 333 333 333 332 328 326 324 325 326 326 327 329 329 328 327 326 326 325 324 327
296 291 292 293 293 294 297 297 297 295 297 297 300 305 313 318 317 317 320 319 327 330 334 339 341 339 339 340 335 335 334 333 330 324 322 321 322 322 324 322 325 326 326 326 325 324 322 316 313
296 293 295 294 297 297 297 296 298 296 294 297 299 303 312 314 316 316 320 320 322 330 333 336 339 339 338 338 336 337 335 332 329 323 321 323 321 319 318 317 316 316 317 316 318 316 312 311 310
291 296 296 299 298 297 295 298 296 296 298 301 301 303 309 313 315 315 319 320 322 327 330 332 337 337 337 339 337 337 335 334 329 324 324 323 320 319 316 314 312 312 311 310 310 309 309 308 308
294 295 297 298 298 295 297 295 295 296 299 300 301 303 306 311 314 315 317 320 321 323 329 331 332 334 336 338 336 337 335 335 331 326 327 322 318 317 316 315 313 310 310 310 309 307 306 305 306
297 297 297 297 297 297 295 293 295 296 298 298 300 300 302 308 311 312 314 317 319 324 326 330 331 334 335 336 336 336 336 336 331 327 328 324 322 319 316 315 314 314 312 311 309 305 303 302 303
298 292 294 295 297 296 296 291 294 297 298 297 298 297 299 301 305 310 315 316 319 322 326 328 331 332 335 336 336 337 336 336 333 328 328 325 324 321 319 316 316 314 314 311 309 302 300 298 298
292 291 286 293 296 296 294 287 295 296 296 296 296 295 297 300 301 304 308 314 314 317 322 327 331 331 331 336 336 336 337 335 334 329 328 326 324 321 319 315 316 314 312 308 305 302 298 294 294
289 284 286 290 296 295 293 288 296 297 296 296 296 297 298 298 299 300 302 305 313 316 320 324 329 330 330 331 334 333 335 334 334 332 329 326 325 322 318 317 316 313 311 308 304 300 297 294 292
284 285 287 286 293 293 290 291 294 297 296 295 294 295 296 298 299 302 302 303 306 313 318 324 327 330 330 328 327 327 330 333 333 334 331 327 326 323 319 316 315 313 309 305 303 298 296 293 292
288 287 285 288 293 291 290 290 292 295 294 294 293 293 294 296 299 300 302 303 302 309 315 321 323 325 328 325 324 323 325 321 329 332 332 330 327 324 321 317 315 313 308 305 301 297 294 292 292
289 287 286 289 292 290 289 290 293 293 295 296 295 294 295 295 297 300 300 300 301 306 314 318 323 323 327 329 328 326 325 318 319 320 327 331 329 325 322 318 315 313 308 303 299 296 292 292 292
287 286 285 287 289 289 287 285 289 292 294 296 296 297 296 296 297 298 299 299 299 301 309 316 321 323 325 325 319 316 316 315 315 315 320 320 327 325 323 319 316 313 309 303 299 296 294 291 291
285 290 290 288 285 281 287 278 285 290 292 292 296 295 295 296 298 298 298 299 299 300 303 311 316 320 321 319 319 317 320 318 320 319 312 310 315 319 323 320 317 313 310 304 300 298 297 294 290
288 291 289 288 285 283 283 280 284 287 288 291 293 294 295 296 297 297 298 299 300 300 301 305 310 314 317 319 318 315 311 312 306 306 307 305 306 310 313 318 317 313 310 307 302 299 298 295 294
293 290 290 287 284 278 282 282 280 286 290 291 293 294 298 297 296 296 296 298 299 300 301 301 304 306 309 313 310 311 309 305 304 303 303 301 305 307 309 311 314 313 311 308 303 300 299 296 296
290 285 278 277 276 277 283 280 283 289 293 293 295 295 297 298 298 297 296 296 297 297 299 301 301 302 304 307 308 307 307 305 304 303 303 301 301 300 305 307 310 311 310 308 304 301 299 297 296
287 285 279 273 276 278 282 280 286 292 295 296 297 295 296 297 298 298 297 297 296 297 298 300 300 301 302 304 306 306 306 305 304 304 303 303 302 301 304 304 305 306 306 305 302 299 298 297 296
287 284 288 282 272 275 280 284 289 293 293 294 294 296 295 296 297 297 297 296 296 297 298 299 299 300 301 302 304 304 305 304 303 304 303 302 300 300 298 302 302 302 303 303 302 300 297 297 296
289 291 283 282 272 271 278 279 283 289 292 294 294 294 295 297 296 296 296 296 297 297 298 299 300 300 300 301 302 303 303 303 303 302 302 301 300 298 295 298 300 299 300 301 300 298 297 296 296
287 286 287 287 282 276 275 280 289 292 293 293 294 295 295 296 296 295 295 295 296 297 298 298 299 299 300 301 301 301 301 301 301 300 300 299 297 295 293 293 295 296 296 297 298 297 296 296 295
287 287 287 281 279 282 281 283 294 293 293 294 294 295 294 294 295 294 295 295 295 296 296 297 298 298 299 300 300 300 300 299 299 299 299 296 295 292 291 290 289 291 293 294 295 293 295 294 293

GFSSGP_sfc_thetae_090.txt.gz
Theta_e
321 313 312 309 298 293 288 290 294 297 296 300 303 303 302 304 303 297 324 333 338 338 343 346 348 351 349 348 346 345 342 342 341 341 342 343 343 342 344 343 343 340 338 337 338 338 338 338 341
318 315 310 302 293 286 288 291 294 297 299 302 303 301 302 306 314 322 327 336 337 337 344 346 346 350 350 348 346 345 342 341 341 341 340 341 342 341 344 343 342 339 338 336 337 337 337 337 339
316 312 303 296 289 287 289 291 296 297 298 298 299 302 305 308 316 325 331 336 338 338 344 346 346 349 350 348 346 344 343 341 340 339 340 340 341 340 344 343 341 339 336 336 336 336 336 337 337
308 304 299 292 290 291 292 295 298 297 297 300 300 301 309 315 324 329 335 337 337 340 344 344 347 349 349 348 346 344 341 340 339 339 339 339 340 343 343 342 340 339 336 334 334 335 334 337 337
304 300 294 291 290 294 293 298 298 296 296 296 298 299 304 320 325 334 335 337 336 340 343 344 346 347 348 347 346 345 342 340 338 338 338 339 340 343 342 340 339 336 334 332 333 333 333 335 336
299 297 291 288 289 293 293 298 299 296 295 296 298 303 305 318 328 331 336 335 338 338 342 344 340 342 345 345 345 344 342 341 338 337 338 338 341 342 341 339 337 334 333 330 331 331 332 333 332
298 293 290 289 290 292 295 297 297 296 296 297 300 300 306 315 325 330 333 336 338 339 341 343 343 341 338 341 341 341 341 339 338 338 338 338 340 339 338 336 335 332 332 329 330 330 331 331 330
299 296 291 291 290 291 295 296 298 297 297 300 300 300 303 312 321 329 331 336 337 338 340 341 341 341 341 340 335 336 337 337 336 335 334 332 333 333 332 331 333 332 330 328 329 330 331 331 329
298 292 288 290 291 293 296 295 296 298 298 297 300 302 306 316 323 326 325 332 336 336 338 339 340 341 339 338 334 332 332 332 331 329 327 326 327 326 325 327 331 331 329 328 328 329 328 327 325
294 289 291 292 292 293 295 295 297 294 295 295 298 305 311 317 320 323 321 326 329 332 334 338 339 339 337 338 334 333 332 331 326 323 323 322 322 323 324 322 326 328 327 327 326 324 322 316 313
295 292 294 293 294 295 296 294 296 295 292 296 299 305 311 315 316 321 321 321 329 331 334 336 337 338 338 337 336 334 332 330 324 321 319 320 320 319 318 317 317 317 318 317 316 311 310 310 311
290 294 294 296 296 295 293 296 293 295 297 299 299 307 311 313 314 317 320 318 323 328 333 335 337 337 337 337 335 336 334 332 325 320 319 319 320 319 314 314 313 312 312 311 309 308 308 308 309
291 293 295 296 295 294 296 293 294 295 298 297 298 304 309 313 314 314 319 320 320 326 330 333 335 335 336 336 336 335 334 333 328 320 321 319 317 316 315 312 312 310 309 309 307 306 305 306 307
296 295 294 295 295 295 293 291 293 294 294 296 297 299 304 310 313 312 313 318 319 325 329 331 332 334 334 335 335 335 334 334 329 322 322 319 317 315 315 312 313 311 308 308 306 304 303 303 304
296 290 292 293 295 294 295 290 293 294 295 295 295 296 299 304 308 312 316 316 321 322 327 329 331 332 333 334 333 335 334 333 331 326 323 321 319 316 315 314 313 312 311 308 305 302 300 299 300
290 289 285 290 294 294 293 287 292 294 293 295 295 294 295 298 303 308 313 315 316 320 321 328 331 331 332 333 333 335 335 334 332 328 324 323 321 317 317 314 313 314 311 307 304 303 300 298 298
287 282 285 289 295 294 291 287 293 295 294 294 294 295 295 296 297 300 303 310 314 316 320 323 329 329 330 333 334 334 335 334 333 330 325 325 322 319 317 315 315 313 310 305 304 300 300 296 293
283 284 286 285 292 291 288 289 293 294 292 293 293 293 293 296 298 300 301 301 309 312 317 322 326 328 329 333 333 333 334 334 334 331 329 325 324 320 317 316 315 312 309 305 302 299 296 293 293
288 286 285 287 291 290 289 289 291 293 292 292 292 293 293 294 298 298 299 299 299 304 311 319 322 327 328 326 328 327 329 331 332 332 330 327 325 321 318 317 315 312 309 306 301 297 293 291 290
286 285 285 287 290 289 288 288 291 292 294 295 294 294 293 292 294 297 298 297 298 301 309 316 321 326 328 329 330 329 329 320 330 332 331 329 326 323 320 318 315 313 309 304 299 296 292 291 291
286 285 284 286 287 287 286 284 286 290 291 294 295 295 294 294 294 295 296 296 296 297 304 313 320 323 327 328 321 316 316 315 317 323 328 328 327 324 322 319 316 312 310 304 300 296 295 289 291
284 289 288 286 284 280 285 277 283 288 290 291 293 291 292 294 295 295 296 296 296 297 299 309 316 320 323 321 322 321 323 322 322 320 321 319 325 325 323 320 317 313 311 306 302 298 298 294 289
287 290 287 286 283 281 281 280 283 284 286 290 291 292 292 293 295 296 295 297 300 298 298 308 314 317 317 321 322 322 320 317 309 309 312 313 313 316 322 320 317 314 312 309 304 300 298 296 293
292 288 287 284 282 277 281 281 279 284 287 288 291 293 294 297 297 296 296 297 299 298 298 302 309 311 312 316 314 316 317 308 306 305 306 307 311 311 310 313 317 316 313 310 305 302 299 297 297
288 284 277 276 275 276 280 279 282 287 290 290 293 294 294 293 295 295 296 295 296 297 299 299 300 303 307 310 309 311 310 307 307 305 305 301 306 305 308 308 310 314 313 311 307 303 300 299 298
285 284 278 272 274 276 281 279 284 290 291 293 294 293 295 295 296 296 296 296 295 296 297 299 299 299 301 304 306 306 306 306 305 305 303 304 304 305 303 306 309 311 311 310 307 304 301 301 299
286 283 286 280 270 274 279 282 288 291 291 293 294 295 294 295 295 295 297 296 296 297 297 298 299 300 299 301 302 303 304 304 303 303 302 302 301 300 298 303 305 307 307 307 305 304 301 301 299
288 290 282 280 271 270 277 278 282 286 290 293 292 293 294 295 295 296 295 295 296 296 297 298 298 299 299 300 301 302 302 303 302 302 301 300 300 299 297 299 303 303 304 304 303 302 300 298 298
286 285 285 285 280 275 272 278 286 289 292 292 292 293 293 294 294 294 295 295 295 296 297 297 298 298 298 299 299 300 300 301 300 300 300 299 297 296 295 295 299 300 300 301 301 301 299 297 297
287 287 286 281 278 280 280 282 292 292 292 293 293 294 294 295 295 294 294 294 295 295 295 296 297 297 298 299 299 299 299 299 298 298 298 297 296 294 294 292 294 296 297 298 298 298 298 296 295

GFSSGP_sfc_thetae_093.txt.gz
Theta_e
319 312 309 307 299 292 288 290 294 296 296 299 301 301 300 303 299 294 322 332 335 338 343 345 349 350 347 344 343 342 342 341 342 343 343 343 344 344 340 339 340 336 337 339 338 338 339 338 336
315 313 308 300 293 288 288 290 295 296 299 301 302 301 303 304 313 321 325 334 336 339 342 344 346 349 347 345 343 342 341 341 341 341 342 342 342 344 342 339 338 336 336 337 337 337 339 337 336
313 308 303 295 288 287 287 290 294 296 297 296 298 303 304 307 314 324 328 335 336 339 343 344 346 349 348 346 344 343 341 340 340 340 341 341 341 344 342 339 337 336 335 337 337 337 338 336 335
307 303 298 291 288 289 290 294 297 296 296 297 298 301 307 314 322 327 334 335 334 340 344 342 347 349 348 346 344 342 341 340 340 339 340 340 343 343 342 339 337 335 334 336 335 337 336 336 335
302 298 292 289 289 291 292 296 296 295 295 295 301 298 305 319 325 331 333 335 334 339 342 342 345 347 347 346 344 342 341 340 339 339 340 341 343 343 341 338 335 334 333 335 334 335 337 336 335
298 296 290 287 288 291 294 296 296 294 294 296 300 302 307 316 327 329 334 333 337 338 341 342 339 342 344 345 344 343 342 341 339 339 339 341 343 342 340 338 335 334 331 333 333 334 335 333 332
295 292 289 289 289 290 294 297 294 295 295 296 302 300 305 314 325 331 332 332 336 339 341 342 342 339 337 339 340 340 340 339 339 339 339 341 341 341 339 337 334 332 330 332 332 333 332 331 330
298 294 288 289 289 290 295 295 295 296 296 297 303 299 302 316 326 329 331 332 334 336 339 340 342 339 339 338 334 335 336 336 336 336 334 333 333 333 333 331 333 331 329 330 331 331 331 330 329
296 291 288 290 290 292 295 294 295 296 297 300 299 302 305 319 325 326 327 329 333 335 338 339 338 340 337 337 332 331 331 332 331 330 328 326 326 326 325 327 331 331 329 329 331 330 329 327 325
293 289 290 291 290 292 295 294 295 297 296 297 300 307 310 317 323 325 327 328 330 332 334 337 337 338 338 339 333 331 331 328 326 325 324 323 322 322 324 323 327 328 328 329 328 327 322 316 313
293 291 292 292 293 295 295 293 294 294 293 296 298 303 311 314 319 323 325 328 330 332 334 336 336 337 337 337 335 332 329 326 322 321 321 321 321 319 319 319 319 318 318 316 314 312 311 311 311
290 293 293 295 295 294 293 294 292 294 295 297 298 304 311 314 319 322 322 322 326 329 333 335 336 336 336 336 335 334 332 327 320 319 320 319 318 316 315 315 314 314 312 310 308 308 308 309 309
290 291 292 295 294 292 294 291 292 293 297 296 297 307 310 315 318 321 324 322 321 327 331 333 335 335 336 335 335 334 333 331 323 318 318 318 317 315 313 312 312 311 310 309 306 306 306 307 307
293 294 293 294 294 293 292 290 291 293 292 293 295 300 307 310 314 313 313 318 317 326 329 332 334 335 335 334 333 333 333 332 327 319 319 317 316 314 312 310 311 309 309 307 306 304 305 304 305
294 290 290 292 293 292 294 289 292 293 294 292 292 293 298 305 309 312 315 317 320 321 328 330 332 334 333 333 333 333 333 333 329 322 318 317 316 315 312 312 311 312 310 306 304 302 302 302 301
289 288 283 288 292 292 291 285 291 292 292 293 294 292 293 296 301 309 312 313 315 319 322 328 332 332 331 333 333 333 333 333 332 328 319 319 317 315 314 314 313 312 311 307 304 303 302 301 301
286 281 283 287 293 292 289 287 290 293 292 293 293 294 294 294 296 297 303 310 313 317 320 324 329 329 330 332 332 332 333 332 332 330 323 321 318 316 314 314 313 312 310 306 305 299 301 299 296
282 283 284 283 290 289 288 289 292 293 292 292 292 292 292 293 296 298 297 301 309 312 317 321 326 329 329 331 331 332 333 332 332 331 327 323 321 317 315 313 313 312 309 305 303 301 298 297 295
285 284 284 285 290 289 288 288 291 293 291 291 291 291 292 292 297 296 297 297 297 304 309 315 321 327 328 329 329 330 329 330 331 331 329 326 323 319 316 315 314 312 308 306 303 298 295 291 292
285 283 283 286 289 288 287 288 290 291 292 292 292 292 291 291 293 294 295 294 295 298 304 311 318 324 327 329 330 331 332 332 331 331 329 328 325 322 318 317 314 312 310 306 300 297 294 291 292
284 283 283 285 286 285 284 284 285 288 289 292 292 293 292 293 294 294 294 294 293 294 296 305 315 320 326 328 325 316 320 319 323 328 328 327 326 323 321 319 316 313 311 306 301 298 297 291 292
283 289 287 286 283 280 283 277 282 286 288 289 292 289 289 291 291 293 293 293 294 295 295 301 309 317 323 325 324 324 325 324 325 328 329 327 326 324 322 321 318 315 312 308 303 300 299 297 291
287 288 286 285 281 280 280 279 282 283 285 289 289 291 291 291 291 295 295 297 297 297 296 299 309 314 318 322 324 323 322 319 313 313 321 318 319 324 322 321 319 316 313 312 307 302 299 298 297
290 287 285 283 281 276 280 280 279 282 285 285 289 291 292 294 295 294 295 295 296 297 297 301 306 309 312 315 316 318 318 311 309 308 314 316 317 314 316 319 319 317 314 312 308 305 301 301 301
285 283 277 275 274 276 278 278 281 286 286 286 290 292 293 293 294 294 295 294 294 296 297 298 303 305 310 312 313 313 314 310 310 308 308 307 310 308 312 311 312 315 315 313 309 305 302 301 299
283 283 278 271 273 275 281 278 284 287 290 291 293 292 293 293 294 294 295 295 295 295 296 297 298 299 302 306 308 308 309 308 308 307 305 305 308 313 312 311 312 313 313 312 309 306 303 301 300
285 281 284 279 268 273 278 281 287 289 291 290 292 292 293 293 294 295 295 295 295 296 296 297 298 299 299 300 302 304 304 304 305 304 303 302 302 301 301 301 306 308 310 309 309 307 304 302 300
287 288 281 279 270 269 276 277 281 286 288 289 291 291 293 293 294 294 294 294 295 294 296 297 298 298 299 299 299 300 301 301 302 301 301 299 299 299 298 297 300 302 305 305 306 306 304 302 301
285 283 283 283 279 273 271 277 284 288 290 290 291 292 293 293 293 293 293 293 294 295 296 296 297 297 297 298 298 298 298 299 299 299 299 298 297 297 296 296 299 301 301 303 303 303 303 300 300
286 285 285 280 277 279 279 281 289 290 291 292 291 293 293 292 292 292 292 292 293 293 294 295 295 296 297 297 297 297 297 297 297 297 297 296 296 295 295 294 294 298 299 300 300 300 301 298 297

GFSSGP_sfc_thetae_096.txt.gz
Theta_e
315 310 308 305 297 291 287 290 293 295 295 298 300 299 298 300 296 292 320 331 333 337 343 345 348 349 346 344 343 342 342 343 343 344 344 345 342 341 340 337 338 340 339 339 339 339 337 336 336
312 310 306 298 291 286 287 289 293 296 299 303 301 300 302 301 313 319 324 332 335 340 342 344 346 348 345 343 343 342 341 342 342 343 343 344 343 341 339 338 337 338 339 337 340 338 337 335 335
311 307 303 294 287 286 287 290 294 295 298 295 298 303 304 305 312 322 326 334 337 338 341 344 345 348 346 344 342 342 343 341 341 342 342 343 344 341 339 337 336 337 336 336 337 338 336 335 334
305 301 297 291 287 290 291 291 295 295 298 298 301 299 306 314 318 326 333 334 336 338 341 342 346 348 346 345 343 341 341 340 340 341 341 342 344 342 339 337 335 336 335 335 337 336 336 335 334
301 297 291 289 289 291 292 294 295 294 296 299 300 297 302 316 324 330 331 333 335 338 340 342 345 346 346 345 342 342 341 340 340 341 341 343 344 341 338 337 334 334 335 335 338 337 336 335 335
297 295 288 286 287 291 295 294 294 292 295 296 299 301 305 314 325 327 331 330 336 337 339 340 338 341 344 344 343 342 342 341 340 340 340 343 343 341 338 336 334 333 334 334 336 336 335 334 334
295 292 288 286 287 290 294 296 293 293 293 295 301 298 302 310 323 328 329 331 335 337 339 338 340 339 337 339 340 340 340 340 340 340 342 342 341 340 338 336 333 332 333 333 335 333 333 332 332
296 293 287 288 288 288 293 295 294 295 295 296 303 296 296 313 326 328 329 331 333 335 338 339 340 339 337 336 333 335 336 337 337 337 336 334 335 335 333 331 333 331 332 332 333 332 331 330 329
296 290 288 289 289 291 292 293 293 295 296 298 297 298 304 319 326 325 325 329 332 335 337 337 337 340 336 335 331 330 331 331 331 330 328 326 326 326 325 327 330 332 331 331 331 331 329 327 326
293 288 290 291 290 292 294 293 295 296 294 297 299 304 310 320 324 324 324 327 329 330 333 335 336 337 339 337 332 330 329 328 327 326 325 323 322 322 324 323 326 329 329 331 331 329 323 317 312
291 290 291 291 292 294 295 292 293 293 293 296 297 300 310 315 320 323 324 327 329 331 332 334 335 336 337 337 334 329 327 324 323 323 322 321 320 320 319 319 319 318 317 317 318 313 311 311 310
292 291 292 294 294 292 293 294 292 293 296 295 297 301 310 314 319 322 324 325 329 330 332 334 335 335 336 336 335 334 330 323 320 320 320 319 317 316 315 315 314 314 312 309 308 308 309 309 309
288 291 292 293 292 291 293 290 291 292 295 294 296 304 309 314 319 321 323 323 324 329 332 333 334 334 335 334 335 334 332 328 320 319 319 318 316 315 313 313 312 311 310 307 307 307 307 307 307
292 292 291 292 292 292 290 290 291 290 292 292 294 299 306 310 315 313 316 319 320 327 331 333 333 334 334 334 333 333 333 331 324 318 318 317 317 315 313 311 311 309 309 307 306 305 306 305 305
293 289 289 290 292 291 293 288 291 291 291 291 292 292 296 306 308 313 317 319 321 324 328 331 333 334 333 333 333 333 333 332 328 321 317 317 316 315 312 311 311 309 308 306 304 303 303 302 303
289 286 283 286 291 291 289 284 288 292 291 292 292 291 292 294 300 308 311 314 316 318 322 329 332 333 333 333 332 332 332 332 331 326 319 317 316 315 312 314 314 313 311 308 305 303 302 303 303
286 280 282 286 291 290 289 286 289 291 291 293 290 292 293 293 294 295 302 311 313 316 318 324 329 331 332 333 333 332 332 331 331 329 321 320 316 315 314 314 313 312 310 305 305 303 302 300 299
282 283 282 282 287 289 288 288 291 292 290 291 291 291 291 292 295 295 296 298 308 311 316 320 326 330 331 332 332 332 331 331 331 330 325 322 318 315 314 312 312 312 309 306 304 302 298 299 297
285 283 282 284 288 288 287 287 290 292 290 290 290 291 291 292 295 294 294 295 297 305 310 316 321 326 328 329 329 329 327 329 329 330 328 323 322 316 314 313 311 311 309 306 304 297 295 294 293
285 283 283 284 288 288 285 287 289 290 291 291 291 291 290 290 292 294 294 292 293 296 305 310 317 322 326 329 329 330 330 330 330 330 329 326 324 320 317 315 313 312 309 306 303 299 295 293 294
282 282 282 282 284 284 282 283 284 286 288 289 290 290 290 292 293 292 292 292 292 292 293 303 312 318 324 327 327 319 325 323 327 328 328 327 325 323 320 317 316 313 311 307 304 301 300 294 292
281 287 286 285 283 279 282 276 281 284 287 288 289 288 289 289 289 291 294 294 293 293 292 294 303 311 319 323 324 325 326 325 327 328 329 327 326 324 321 320 318 315 313 310 306 304 303 301 294
285 287 286 283 281 280 279 278 281 282 285 287 287 290 290 292 293 294 294 295 296 296 295 296 299 307 314 319 323 324 323 324 317 325 324 322 324 325 323 321 319 317 314 313 309 305 304 302 302
289 285 284 281 279 276 279 279 279 281 283 287 286 290 291 292 292 292 292 294 294 296 296 301 305 307 312 315 316 320 321 313 311 311 322 321 320 320 321 321 320 319 316 313 310 307 305 304 305
284 283 277 275 274 275 277 277 280 284 285 285 289 292 292 291 292 293 293 294 294 294 295 297 302 305 308 312 313 314 314 312 312 310 316 312 313 311 314 314 317 317 317 315 313 308 305 303 303
284 283 278 271 272 275 280 277 282 286 289 290 291 291 292 292 292 293 293 293 293 294 295 296 297 298 303 307 308 309 310 310 309 308 307 307 311 314 314 312 313 315 315 314 312 308 306 304 302
284 281 283 278 267 273 277 281 286 287 289 290 290 290 291 291 292 292 293 293 293 294 295 295 296 296 297 298 301 303 303 304 304 304 303 303 302 303 304 307 309 309 309 309 309 308 305 303 302
285 287 280 278 269 268 275 277 280 284 287 289 289 290 291 291 291 291 292 292 293 294 295 296 296 296 296 297 298 299 299 300 300 300 300 299 299 299 298 298 299 301 305 305 306 306 304 303 302
283 282 282 282 278 273 270 276 282 284 288 289 289 290 291 291 290 290 291 291 292 292 293 294 295 296 296 297 297 297 297 298 298 298 298 297 297 297 296 296 296 297 300 302 303 303 304 302 303
284 284 284 279 276 277 277 280 287 289 290 290 291 292 291 290 291 291 292 292 292 292 292 293 293 293 294 295 295 296 296 296 296 296 296 295 295 295 295 294 294 295 299 301 301 301 302 301 300

GFSSGP_sfc_thetae_099.txt.gz
Theta_e
318 312 312 309 301 296 293 295 300 300 301 304 309 304 306 305 303 298 326 334 334 339 346 346 348 347 343 343 343 344 345 345 345 346 345 343 342 340 339 340 342 340 341 342 338 338 337 337 338
314 312 309 302 296 290 291 296 297 300 304 305 305 306 306 305 318 324 328 334 336 342 345 346 345 347 345 343 343 344 345 345 344 344 345 343 341 340 338 339 340 337 340 339 337 337 336 335 336
311 308 306 298 291 291 291 295 299 301 303 302 304 307 308 309 318 326 331 335 340 342 345 346 345 347 345 343 343 344 344 344 344 343 344 343 341 340 338 337 340 337 336 339 337 337 336 335 335
307 304 300 295 293 295 295 296 299 299 301 301 305 304 310 318 322 329 335 338 339 341 345 344 346 347 346 345 343 343 343 342 344 342 344 344 341 339 337 336 338 336 337 338 336 336 335 335 335
303 300 294 292 294 295 295 298 298 298 299 301 303 303 309 322 328 333 334 337 337 340 344 346 345 346 346 345 343 343 343 343 343 343 343 345 341 339 337 336 336 335 336 338 338 336 335 335 335
299 298 292 290 292 295 297 299 298 298 299 300 303 304 311 319 329 331 334 336 339 340 343 345 339 341 343 343 343 343 342 342 343 342 343 344 341 339 337 335 335 334 335 338 337 335 335 335 335
298 295 292 291 291 295 298 298 297 297 298 300 305 302 308 316 328 332 333 337 339 340 342 344 344 340 336 339 339 340 341 341 341 342 343 342 341 340 338 335 334 334 334 336 335 334 334 335 334
297 295 291 290 291 293 296 298 298 298 298 302 307 301 302 316 329 331 333 335 338 339 341 342 343 343 342 341 333 334 336 337 338 338 337 335 335 334 333 331 333 333 334 335 333 333 333 333 331
300 293 290 291 291 294 295 296 297 299 299 299 303 303 309 324 329 329 329 331 333 335 338 338 340 341 341 340 334 331 331 332 332 332 328 329 335 333 331 328 331 333 333 333 332 331 330 327 326
296 292 292 294 293 294 295 296 298 298 298 299 301 306 317 325 327 324 325 326 328 330 333 336 337 339 340 338 336 336 334 335 334 334 333 331 330 330 329 325 327 330 330 332 331 328 322 320 321
295 293 294 293 294 296 296 295 297 296 295 299 300 302 315 322 324 325 326 328 329 331 332 334 335 338 339 338 335 335 333 332 331 331 331 328 327 328 329 328 327 328 322 328 326 320 319 319 320
293 293 293 296 296 295 295 296 295 295 298 299 299 303 314 320 322 325 325 327 330 331 332 334 334 336 338 338 335 334 332 330 328 329 328 326 326 326 326 325 324 324 323 322 319 318 318 317 317
292 293 293 294 294 293 295 293 294 294 297 297 299 306 311 319 322 325 327 328 331 329 331 333 334 335 336 336 336 335 333 329 327 326 326 326 324 324 323 323 322 321 319 318 316 316 316 316 316
292 293 292 294 294 294 293 291 293 293 294 294 296 300 307 314 319 319 322 325 327 330 331 333 334 335 336 335 335 335 334 331 327 325 325 325 324 323 322 321 320 319 318 315 315 315 315 314 315
294 291 291 292 293 293 294 290 292 293 293 294 294 295 299 308 313 318 323 324 326 330 332 333 333 335 335 335 334 334 334 332 328 324 324 324 323 322 320 320 319 318 317 313 312 312 312 312 311
290 288 286 289 292 292 291 286 290 293 291 293 294 294 294 295 304 313 317 321 323 326 328 333 333 333 334 334 334 334 334 333 331 326 322 322 322 321 319 318 317 316 316 313 311 310 310 310 310
287 283 284 286 292 292 290 287 291 293 293 293 294 294 294 295 296 297 305 315 319 323 325 329 332 332 333 334 333 333 333 332 332 329 323 321 321 320 319 319 317 314 313 311 309 308 306 305 305
283 283 283 282 288 289 288 289 292 293 292 293 293 293 293 294 296 298 298 300 310 316 321 326 330 333 333 333 333 332 331 331 332 330 325 323 320 319 319 318 317 314 311 308 307 305 303 304 304
286 284 282 285 289 289 289 288 291 293 291 292 293 294 294 294 296 296 297 297 297 305 313 319 325 330 332 330 329 329 328 329 330 330 328 324 322 318 318 316 314 314 311 310 307 303 301 298 299
285 285 284 286 288 288 286 288 290 291 292 293 293 292 292 292 294 296 296 296 296 297 306 313 319 325 330 331 330 331 330 330 330 330 329 326 323 320 317 316 313 313 311 308 305 304 299 300 298
284 284 283 284 285 285 284 285 285 288 288 290 291 291 291 291 291 292 294 295 296 295 296 306 314 320 327 330 331 327 329 327 328 328 328 327 324 322 320 317 316 314 312 309 307 305 304 300 296
282 287 286 285 284 280 283 278 283 285 287 288 290 291 291 292 293 295 296 298 298 298 297 296 304 314 322 327 328 326 325 325 328 329 330 328 326 323 322 319 317 315 314 313 310 307 305 306 298
285 287 286 284 282 281 281 279 282 283 286 287 289 291 293 293 294 295 295 296 297 298 299 302 298 304 314 323 326 326 326 327 326 329 328 327 325 325 323 321 319 317 315 314 312 308 305 306 305
288 285 284 282 280 277 279 280 279 282 284 285 288 292 293 293 294 294 295 296 296 297 299 305 307 307 311 318 322 324 325 320 319 319 325 324 323 324 323 322 321 319 317 314 314 310 307 306 305
285 283 278 277 275 276 278 278 281 284 285 286 289 294 293 292 293 294 294 295 295 296 297 299 304 307 311 315 317 320 321 318 319 318 321 320 318 314 316 318 319 319 318 316 314 310 307 305 305
284 284 279 273 273 275 279 277 282 287 290 291 292 293 292 292 293 293 293 294 295 296 297 298 298 299 304 310 312 314 315 315 314 315 314 314 314 314 315 315 314 316 316 316 314 312 309 308 305
284 282 283 277 267 273 278 281 285 287 289 290 291 291 291 291 292 292 293 293 295 295 296 297 298 298 299 300 304 306 308 310 310 310 310 310 309 308 310 312 312 312 312 312 311 311 308 306 305
285 286 281 278 270 269 276 277 280 285 288 290 290 291 291 291 291 291 291 292 293 294 295 297 297 297 298 299 299 300 301 302 304 304 305 304 304 303 303 303 304 306 309 309 308 307 306 305 305
283 282 281 282 279 273 270 277 282 284 288 290 290 291 290 290 291 291 292 292 292 293 293 294 295 295 296 297 298 298 298 299 300 300 300 301 301 301 300 300 300 301 301 303 304 304 305 304 304
284 283 283 279 276 277 277 279 287 286 289 291 291 290 290 291 291 291 292 291 291 292 292 292 292 293 293 295 295 295 295 296 296 296 296 297 297 297 298 297 297 298 299 301 302 302 303 302 302

GFSSGP_sfc_thetae_102.txt.gz
Theta_e
322 321 324 320 307 307 300 302 308 308 312 314 320 314 312 311 306 304 333 338 336 338 341 347 348 347 343 342 344 345 347 347 346 345 343 341 340 341 341 340 342 344 339 339 338 339 339 340 340
320 318 322 316 304 298 299 304 305 311 312 312 314 312 310 309 323 328 331 337 337 340 343 345 344 346 343 343 343 344 345 346 346 345 343 341 339 340 340 338 341 341 338 338 337 337 337 337 338
316 316 314 309 305 298 298 304 310 307 310 311 311 313 313 312 325 331 336 337 339 341 343 346 344 347 344 343 342 343 345 346 344 345 344 342 340 338 339 338 339 341 337 337 337 336 335 335 335
317 315 311 304 300 301 301 306 309 309 307 307 311 309 316 323 328 333 338 337 339 340 343 344 346 347 345 344 342 342 343 344 343 344 344 342 339 337 338 338 337 339 337 337 335 335 335 335 335
316 312 304 302 300 300 302 305 309 308 308 308 310 307 313 326 333 337 338 338 337 339 344 346 345 345 345 344 343 343 342 344 343 344 345 342 340 337 337 336 335 338 338 337 335 335 335 335 336
309 310 301 298 299 300 303 306 308 307 306 307 308 309 314 330 334 337 339 338 338 339 345 344 339 341 343 343 343 343 343 343 343 343 345 342 340 337 336 336 335 337 339 337 335 335 335 335 336
307 306 301 300 299 301 303 307 306 306 305 306 311 306 314 326 335 338 338 338 338 340 344 345 345 342 336 339 340 341 342 342 342 343 344 341 340 338 336 337 335 335 335 336 335 335 334 335 334
309 307 299 300 299 299 305 305 305 306 304 308 313 305 307 324 336 338 338 338 337 340 342 345 344 342 343 342 333 335 337 338 339 340 337 334 334 334 333 331 335 334 336 334 334 334 333 333 332
307 303 299 299 299 300 303 304 304 306 306 307 311 308 314 330 336 335 336 337 336 337 340 342 342 343 343 343 335 332 332 333 333 334 329 331 339 336 332 329 332 334 335 333 333 332 330 328 327
306 302 301 303 303 303 304 305 305 305 304 305 307 310 323 331 333 332 332 332 332 334 337 338 339 341 342 341 340 339 337 337 337 340 340 340 338 336 331 326 328 331 331 333 330 327 323 325 329
302 302 302 301 301 303 303 302 305 304 303 307 307 309 322 327 331 331 332 333 334 335 335 336 337 339 339 339 341 340 337 337 337 337 339 338 336 333 332 331 330 331 326 330 328 324 325 324 325
300 299 301 301 302 301 302 304 303 304 306 305 308 310 321 326 328 329 330 333 334 335 336 337 338 337 339 340 340 340 338 336 335 335 337 336 334 333 332 330 329 329 329 328 326 325 324 324 324
300 299 299 301 300 301 301 301 302 302 307 305 304 309 315 323 327 330 331 334 336 335 336 335 336 335 337 338 338 338 337 336 335 334 335 334 332 331 331 329 328 327 327 326 324 324 323 323 323
299 299 299 299 300 300 299 298 299 302 302 302 303 306 311 318 325 329 330 331 334 335 335 336 335 336 336 337 337 337 336 336 335 333 333 333 332 331 329 328 327 326 324 323 322 322 322 323 323
299 297 298 298 299 299 300 298 298 302 301 301 301 305 307 313 321 326 329 331 334 336 336 335 335 336 335 335 336 337 337 335 333 333 333 332 331 330 328 327 326 325 324 321 321 320 321 320 321
297 298 294 296 298 298 298 295 297 300 300 301 302 303 304 306 313 321 327 330 333 335 336 336 335 335 336 336 337 337 337 336 333 330 331 331 330 330 328 326 325 325 323 320 319 318 318 319 319
294 292 292 292 297 298 297 295 297 299 300 300 302 303 303 304 305 307 316 324 329 332 334 336 337 335 335 336 336 336 336 336 335 332 328 328 329 329 328 326 326 323 320 318 317 317 317 315 314
291 289 290 291 295 296 295 296 300 301 300 302 303 303 303 304 306 307 307 309 317 326 331 333 337 335 335 335 335 335 334 334 335 333 329 327 326 327 327 327 326 323 320 316 313 312 310 311 312
294 292 291 291 294 295 295 295 298 301 300 301 303 304 305 305 307 304 305 306 307 311 321 327 331 335 333 332 331 331 330 331 332 333 331 328 325 324 324 326 324 320 318 316 313 310 307 309 310
292 291 290 292 294 294 293 294 298 300 301 302 303 303 304 303 304 303 303 304 304 305 307 314 322 329 334 333 332 333 332 332 333 333 332 329 326 323 322 322 322 321 315 313 310 307 308 306 305
291 291 290 290 291 292 291 293 294 297 295 297 298 300 299 299 301 301 304 305 304 304 305 306 313 321 329 334 333 331 331 331 330 330 330 330 327 324 321 321 321 318 315 313 314 311 307 308 302
288 292 291 290 291 287 290 286 293 295 295 295 297 298 300 301 301 303 304 306 306 306 306 303 310 317 323 330 331 328 327 326 329 330 332 330 330 327 323 322 322 324 319 315 313 312 312 310 305
290 292 292 290 291 290 289 287 292 290 293 296 298 300 301 301 301 301 302 303 304 307 310 312 304 309 319 325 329 329 327 328 330 329 330 330 328 328 326 328 326 320 319 318 315 314 310 310 308
292 292 291 290 289 284 289 288 290 291 293 294 296 300 300 300 301 302 302 304 305 307 309 315 312 307 311 319 325 327 326 325 327 330 330 330 328 327 327 324 323 321 318 317 315 313 310 309 307
291 291 284 283 283 282 284 284 291 293 292 295 295 300 299 300 301 301 302 303 304 305 306 308 315 315 317 317 321 324 325 326 326 328 329 329 324 321 325 324 322 321 320 318 315 312 311 308 307
290 291 285 280 279 283 283 283 290 293 296 296 297 299 299 300 300 300 301 302 303 304 305 306 308 312 316 317 318 320 321 323 322 322 322 320 320 319 317 316 317 318 318 317 315 314 311 310 308
289 287 290 282 276 283 286 289 293 293 293 296 297 298 298 298 299 299 300 302 303 303 303 305 306 306 309 313 313 312 314 315 315 314 315 315 316 314 316 319 317 316 315 315 315 314 311 309 308
291 292 286 286 281 280 283 284 288 290 292 296 296 297 297 297 298 298 298 299 300 301 303 304 304 304 305 306 307 308 308 310 311 313 312 312 312 311 311 311 312 312 313 313 312 310 310 309 308
287 287 287 288 287 284 281 286 293 294 295 296 297 298 297 298 298 298 298 298 299 300 300 301 301 302 303 304 305 305 304 305 305 305 305 305 306 305 306 306 306 307 308 308 309 308 308 307 307
289 289 289 285 282 283 283 286 292 292 297 299 297 296 297 298 298 298 297 297 297 297 297 297 298 299 299 300 299 299 299 300 300 299 300 301 301 302 302 302 302 303 304 305 305 304 304 303 302

GFSSGP_sfc_thetae_105.txt.gz
Theta_e
324 321 323 321 308 306 302 303 311 309 310 316 317 313 312 312 308 308 335 337 335 338 343 347 347 345 343 345 344 346 348 347 345 343 340 342 342 340 340 342 342 340 339 339 341 342 342 341 341
320 319 321 316 304 299 300 307 306 311 315 317 318 315 310 312 323 328 332 337 337 339 341 345 344 345 343 343 344 346 347 346 345 344 341 340 341 339 339 342 342 339 338 338 338 338 338 339 339
320 318 315 309 305 300 300 305 310 312 315 316 314 316 313 314 326 330 336 336 337 338 342 345 344 346 343 343 343 343 346 346 345 343 341 339 339 339 338 339 341 338 338 337 337 336 336 336 337
316 315 315 304 301 305 303 306 312 311 311 313 313 310 317 325 329 334 337 336 338 340 343 342 345 346 343 343 343 343 344 344 345 344 343 339 338 338 337 337 339 339 336 336 336 336 335 335 336
317 314 305 302 303 304 305 309 312 310 310 311 312 308 314 326 335 337 336 337 338 339 345 345 345 345 345 343 342 343 343 344 343 345 342 340 338 338 336 337 338 338 336 335 335 335 336 336 336
308 311 302 300 302 303 305 309 311 310 310 310 309 308 316 331 334 335 336 337 338 339 345 345 339 341 343 343 344 343 343 343 343 345 342 340 338 337 337 335 338 339 336 335 335 334 336 336 336
308 305 302 303 302 301 304 310 309 309 307 307 312 306 317 327 335 337 337 337 338 340 343 341 344 340 337 340 340 342 342 343 343 344 343 341 339 338 338 336 336 338 335 335 334 334 335 335 335
310 308 303 304 301 300 306 308 310 308 306 311 313 306 309 324 336 338 337 336 337 340 342 341 342 342 340 341 334 336 338 339 340 341 337 334 334 333 333 333 335 336 335 334 335 333 333 333 332
311 303 301 302 302 302 307 305 308 309 307 309 312 310 317 331 335 335 334 334 335 337 340 342 341 342 339 339 335 332 333 334 334 334 330 329 336 334 330 330 333 336 335 333 333 332 331 329 328
306 303 304 307 306 304 306 306 306 305 306 306 309 315 324 331 332 332 333 332 332 334 337 341 340 340 341 338 338 337 337 337 338 340 339 339 336 334 331 328 328 331 332 332 330 328 327 327 329
306 303 306 305 306 307 306 306 308 305 304 307 307 311 323 328 328 329 331 333 334 335 336 339 338 340 341 338 338 337 337 337 336 338 339 338 336 334 331 330 329 330 326 328 326 323 324 324 325
302 303 305 304 304 305 305 307 305 306 306 309 311 313 321 325 326 327 327 330 335 336 336 338 339 338 340 340 339 337 338 337 336 336 338 336 335 334 332 329 329 330 329 328 326 325 324 324 324
302 301 302 304 303 305 305 304 305 305 309 308 309 311 317 322 325 327 329 330 333 335 337 337 339 337 338 338 338 337 336 337 336 336 336 335 334 333 332 330 328 328 328 326 324 324 323 323 323
303 302 301 301 302 302 303 303 302 306 307 307 307 309 313 318 322 325 327 328 331 334 336 338 338 338 336 337 338 337 337 337 337 336 335 335 333 333 331 329 327 326 325 324 323 322 322 323 324
302 298 300 300 301 300 302 299 300 306 304 303 304 306 309 312 318 323 327 328 330 333 335 337 337 336 335 337 337 337 337 336 335 335 335 334 333 332 331 329 327 326 325 323 322 322 322 322 322
299 300 295 299 300 301 300 297 304 304 303 303 304 305 306 309 313 320 325 328 331 332 333 336 337 336 335 335 337 336 337 336 336 334 334 334 333 332 330 329 327 327 325 321 320 320 319 320 320
296 291 294 294 300 299 299 298 302 302 302 302 304 305 305 306 309 314 320 325 328 331 333 334 336 335 334 334 336 336 336 336 335 334 332 333 333 332 330 329 328 327 324 321 320 319 319 319 319
291 293 293 294 297 298 297 297 300 302 302 303 304 305 305 305 307 309 310 314 323 327 331 333 336 336 334 335 335 335 335 335 336 335 331 330 330 330 330 330 329 327 323 321 320 318 319 317 316
297 294 293 296 296 296 296 297 299 302 302 302 304 305 306 306 309 310 310 310 311 314 323 328 331 335 333 333 332 332 331 333 334 335 333 330 328 327 327 328 328 328 323 319 317 315 311 310 312
296 294 293 294 296 296 296 296 299 301 301 303 303 305 306 307 308 307 307 308 309 309 311 319 325 330 335 332 333 333 333 333 334 335 334 330 327 326 325 325 325 326 323 320 316 311 308 307 310
294 293 293 293 294 295 294 293 296 300 302 303 303 305 306 305 305 306 305 307 309 308 309 309 312 321 328 334 332 332 332 332 331 331 332 331 328 326 324 324 323 322 320 317 314 312 310 311 307
289 294 294 292 292 288 293 287 296 298 298 298 300 301 302 303 304 304 306 308 309 310 310 309 309 312 319 329 333 330 328 326 329 331 332 331 330 326 324 323 324 321 321 317 317 315 313 309 306
292 295 293 293 292 291 290 288 293 294 294 297 299 302 303 304 305 305 305 306 307 310 313 315 307 311 316 323 330 332 325 330 330 329 330 330 329 328 326 325 324 323 324 322 319 313 311 311 310
295 293 293 293 291 284 289 289 290 293 294 296 299 302 303 303 304 305 305 307 308 311 314 318 310 307 314 320 325 328 328 327 327 328 328 328 328 327 326 325 325 326 324 320 317 315 312 311 310
294 291 285 283 284 283 287 286 291 296 295 298 298 302 303 303 304 305 305 306 307 308 310 314 317 315 312 314 320 324 326 326 322 324 324 326 325 323 325 326 323 323 321 319 317 314 312 309 308
292 292 287 281 281 285 285 283 290 296 298 297 297 302 303 303 303 304 304 306 306 307 308 310 314 317 317 318 319 322 324 324 321 321 321 323 321 321 320 318 318 318 318 318 316 314 313 311 309
290 287 292 285 281 285 288 291 295 295 295 297 298 300 302 302 303 303 303 305 306 306 307 308 309 313 316 315 316 316 317 317 317 316 316 317 316 313 317 319 318 317 315 314 314 313 311 310 309
292 294 286 287 283 281 285 287 289 292 293 296 297 299 300 301 301 301 302 303 304 305 306 307 307 307 309 311 311 311 313 314 315 316 314 314 313 312 312 312 313 313 314 314 314 312 311 310 309
289 288 289 290 289 286 283 286 294 295 297 296 299 300 300 300 300 300 301 302 302 303 303 304 305 305 305 306 307 306 306 307 307 306 306 306 307 306 306 306 307 307 308 309 309 310 308 306 306
292 291 290 286 284 286 285 287 294 295 298 300 300 300 300 300 300 300 300 301 300 300 300 300 301 300 301 301 301 301 301 301 301 300 300 301 301 302 301 301 302 302 303 304 304 304 305 304 302

GFSSGP_sfc_thetae_108.txt.gz
Theta_e
326 320 318 317 304 302 299 301 307 307 306 310 313 308 306 312 309 309 331 333 337 337 345 344 346 347 346 346 348 348 348 346 342 341 343 341 341 343 342 340 340 340 341 343 344 344 343 341 341
317 318 317 313 299 295 295 304 304 308 311 314 312 309 307 310 323 325 326 332 337 340 343 342 343 345 345 345 348 348 348 346 344 340 341 340 339 342 341 339 340 338 338 339 340 341 340 340 339
319 316 311 305 300 295 295 302 306 309 311 310 308 309 309 313 324 326 332 333 336 337 342 342 343 345 344 345 346 348 348 347 345 341 340 340 339 339 340 340 339 338 337 337 337 338 338 338 337
315 311 310 300 298 301 299 302 308 308 306 309 307 306 315 323 325 331 332 334 334 337 342 341 344 345 344 345 345 346 347 347 346 343 339 339 338 337 338 340 339 336 336 336 336 336 336 336 336
313 310 301 298 298 299 300 304 309 306 306 306 305 304 312 326 332 332 331 333 334 339 340 342 343 344 344 345 345 345 346 345 346 344 340 338 338 337 338 339 339 336 336 336 336 336 337 337 337
305 306 297 295 298 300 299 305 307 306 305 305 302 307 314 327 329 329 331 333 335 340 341 341 337 340 342 343 344 344 345 344 345 344 340 338 339 337 336 339 339 336 335 335 335 335 337 337 337
305 302 297 298 299 298 300 304 302 305 303 303 304 302 316 323 330 330 331 332 334 341 341 340 340 338 336 339 340 341 342 343 344 343 342 339 338 339 337 337 339 336 335 334 334 336 336 335 335
305 303 298 299 297 297 302 305 305 303 302 305 308 301 308 323 330 331 330 331 332 338 338 338 338 337 337 336 334 336 338 339 340 339 336 333 333 333 333 332 336 335 335 335 333 333 334 334 332
310 299 296 299 299 299 304 301 303 302 302 302 306 308 318 329 331 329 327 328 330 336 337 337 338 336 335 336 332 331 333 334 334 333 330 328 331 328 328 329 334 335 335 334 332 331 331 330 328
302 298 300 304 300 300 302 302 302 298 300 300 305 312 325 327 327 326 325 324 326 330 336 338 338 336 337 336 333 334 334 334 336 337 331 334 333 327 328 325 328 331 331 332 330 330 329 327 324
302 299 302 301 302 304 303 300 303 299 298 301 303 312 322 323 324 325 326 326 326 330 334 337 338 337 338 335 333 332 331 330 332 334 334 336 331 325 326 324 324 324 323 324 323 321 320 319 319
298 302 302 303 302 302 302 302 300 300 299 304 305 315 320 321 322 323 325 327 328 328 330 336 337 337 338 337 335 334 331 331 330 333 335 332 329 326 325 323 323 323 322 321 319 318 318 318 319
299 299 301 302 301 301 303 301 298 300 302 303 306 315 317 319 320 322 324 325 330 330 330 334 334 335 337 337 336 335 333 332 331 330 332 331 328 327 326 323 323 322 321 320 317 317 317 317 318
300 299 298 299 300 299 299 297 298 301 302 302 304 304 312 316 318 319 322 322 326 331 331 332 334 334 336 336 336 335 335 333 333 331 331 330 329 327 326 323 321 320 320 318 317 316 316 316 318
300 295 296 296 297 296 298 295 296 297 299 300 301 301 305 309 315 317 321 322 324 328 332 333 333 335 334 336 336 335 335 334 332 331 333 330 329 327 325 323 321 320 318 316 315 315 315 315 317
296 295 290 295 297 298 297 293 299 300 298 297 298 297 300 304 308 314 319 323 324 326 328 332 333 332 332 334 336 336 335 334 334 332 331 331 329 327 325 323 321 320 318 315 314 314 312 313 313
293 288 290 291 298 296 294 292 295 297 297 296 296 297 298 301 304 308 314 320 323 325 327 329 332 331 332 333 335 335 335 335 334 333 331 330 330 328 325 323 322 321 318 315 313 313 312 311 312
287 288 291 290 293 293 292 293 294 296 296 296 296 297 297 299 301 305 310 315 319 322 325 328 331 331 330 332 333 334 334 334 334 332 330 330 329 329 327 324 323 321 318 315 313 311 311 310 309
292 290 288 291 294 292 291 292 295 297 296 296 296 297 297 298 301 302 304 304 304 310 320 324 328 331 331 329 329 331 330 332 333 333 331 329 328 327 326 326 325 323 317 315 314 313 310 309 308
291 290 288 291 294 292 291 291 294 296 296 296 297 297 298 300 301 301 302 300 302 302 304 311 322 328 331 329 330 330 331 332 333 333 332 329 327 327 326 325 324 324 320 316 312 308 305 305 308
290 289 288 289 291 290 287 287 291 295 296 297 298 298 298 298 299 299 299 299 301 300 301 303 307 315 327 330 330 330 330 330 329 330 331 329 327 326 325 324 324 323 321 317 315 311 308 308 307
286 290 292 290 287 283 286 279 287 291 293 294 296 296 295 295 297 299 301 301 302 303 304 304 303 304 309 328 327 326 326 325 328 329 330 330 327 326 324 324 323 321 319 317 314 313 312 310 308
289 292 290 291 287 285 284 280 284 288 289 292 292 295 295 298 299 299 301 303 302 305 306 308 303 302 305 310 326 326 324 325 325 325 328 328 327 325 324 323 322 321 320 318 317 314 311 312 311
294 291 290 287 286 278 283 282 283 286 289 289 293 296 299 297 298 300 301 302 303 305 308 310 303 301 306 311 316 323 323 322 322 320 324 326 326 325 324 322 322 321 321 321 318 315 312 311 310
291 287 279 278 277 277 282 281 286 289 289 291 294 297 297 298 298 299 300 300 301 302 305 308 311 307 304 308 312 317 319 323 322 321 322 323 323 321 323 322 321 322 321 319 316 314 312 311 310
288 287 281 275 276 278 281 278 284 292 292 292 297 297 298 298 299 299 300 300 301 302 303 307 310 310 311 311 312 314 316 317 318 320 319 319 320 320 319 320 319 319 318 317 315 313 312 310 309
288 284 289 281 275 278 281 284 290 292 292 291 293 296 296 297 298 298 300 300 300 300 301 303 306 309 313 312 311 311 312 315 315 314 315 314 314 313 316 317 315 315 314 313 313 312 310 309 308
288 290 283 284 274 273 278 280 283 288 289 292 292 294 296 296 297 297 298 299 299 300 301 302 302 302 305 307 308 309 310 311 310 309 307 307 307 308 307 305 306 306 307 307 308 308 308 307 306
286 285 287 286 284 277 275 280 285 288 291 290 292 295 295 296 296 296 297 298 298 298 298 299 299 299 299 300 301 301 302 302 301 300 299 300 299 299 299 300 300 301 301 301 301 301 302 301 300
288 287 287 282 280 281 281 280 289 290 292 293 294 296 296 297 296 296 297 296 295 295 295 295 295 295 296 296 296 296 296 295 294 294 294 295 295 296 295 296 296 296 296 296 296 296 296 296 296

GFSSGP_sfc_thetae_111.txt.gz
Theta_e
322 313 311 310 299 296 293 297 303 303 304 305 308 309 310 310 312 304 328 334 336 342 344 344 347 348 346 348 348 348 346 343 343 342 342 343 343 341 339 339 341 343 345 346 345 344 343 341 341
314 315 311 305 294 290 291 298 302 304 307 309 310 306 308 311 321 323 325 334 341 342 343 342 344 347 346 349 348 348 347 344 342 341 339 342 342 340 339 339 340 339 341 343 343 342 341 339 340
314 314 305 299 294 291 291 297 303 305 308 308 304 308 309 315 322 324 330 339 341 341 341 341 343 346 346 347 349 348 347 344 341 341 340 340 341 340 339 338 338 336 337 338 338 339 338 338 339
309 305 303 295 292 296 295 300 305 303 304 306 305 306 313 321 324 327 334 337 336 339 340 341 344 346 346 346 348 348 347 345 343 340 339 338 339 339 338 337 337 336 337 336 337 337 336 337 340
306 302 295 292 292 295 295 304 305 302 302 302 304 304 311 325 329 329 331 334 337 337 339 341 343 344 345 346 347 346 347 346 344 340 339 338 338 339 339 338 336 335 335 335 335 337 337 339 338
299 299 291 289 291 294 297 303 305 302 301 302 306 309 312 326 326 326 331 335 338 336 339 340 336 339 342 344 345 345 345 346 344 341 339 338 337 338 340 339 336 335 334 335 335 337 337 337 336
298 296 292 292 293 294 297 302 302 300 301 301 304 307 315 322 325 327 330 337 338 339 338 338 338 336 336 338 339 341 343 344 343 342 340 339 339 338 338 339 336 334 334 335 336 336 336 335 334
301 298 292 292 293 294 299 301 301 300 299 303 305 304 310 320 326 327 328 336 337 337 337 336 335 336 336 335 333 335 338 339 340 337 334 332 332 332 333 332 335 335 335 333 333 335 334 333 332
304 294 292 293 295 296 300 298 300 300 301 302 306 307 316 326 326 324 324 329 334 335 336 335 334 334 334 333 331 330 332 333 334 332 328 326 327 328 328 329 334 335 335 332 331 332 331 329 328
296 295 297 300 299 297 299 299 299 297 298 300 307 321 325 326 324 322 322 325 330 330 332 335 334 332 333 336 331 331 331 332 333 334 328 330 327 326 327 325 328 331 331 331 332 331 329 325 322
298 295 299 299 300 302 299 298 299 297 294 300 304 317 322 322 322 322 321 323 327 332 333 333 333 334 331 331 330 330 329 330 331 332 329 333 327 324 323 322 322 322 322 322 323 321 319 317 318
295 300 298 300 301 300 299 300 297 298 299 303 308 320 320 320 321 322 322 323 325 331 333 334 333 335 335 332 330 329 329 327 330 330 331 333 326 322 321 320 321 320 320 317 315 315 316 316 318
296 297 299 300 300 299 301 297 298 297 298 303 310 319 318 319 320 322 325 325 325 326 333 333 333 335 337 334 332 331 328 328 328 330 330 331 325 323 322 321 320 320 319 318 316 315 315 315 316
298 297 297 298 297 297 298 295 297 298 299 304 312 314 317 318 318 318 321 322 326 328 331 332 332 334 337 336 335 333 333 332 332 329 329 329 327 325 323 320 320 319 318 317 315 315 314 314 316
298 294 295 295 296 295 297 294 294 295 298 299 301 304 312 315 317 317 319 320 327 329 330 331 331 332 333 335 335 335 334 333 331 331 331 328 327 326 324 320 319 318 317 316 314 313 313 313 315
294 292 289 292 296 296 295 290 296 296 296 296 297 297 300 306 313 315 318 320 322 328 329 331 333 331 332 334 335 335 335 333 332 331 331 331 328 325 323 321 319 318 316 313 312 312 311 311 312
289 284 287 290 296 295 294 290 294 295 295 294 294 294 296 298 302 309 314 319 321 326 327 330 331 331 330 331 335 335 334 334 333 332 330 329 330 327 323 321 320 319 316 313 312 311 310 309 309
284 284 287 288 293 293 290 290 292 294 295 295 295 294 294 296 300 304 308 317 320 322 325 329 331 330 329 330 333 334 334 334 334 333 331 330 328 329 326 322 321 319 315 313 311 309 309 308 308
289 288 286 287 293 292 291 290 292 294 293 292 293 295 294 295 299 301 306 311 316 318 322 326 329 329 329 326 328 330 330 331 332 332 331 329 329 328 326 326 324 321 317 314 313 311 309 307 308
290 287 285 288 292 290 289 289 292 293 293 294 295 295 295 294 297 298 300 300 302 303 311 318 327 329 329 328 328 329 330 331 332 333 331 330 328 328 327 325 324 323 319 317 315 309 307 307 307
288 287 285 286 288 288 285 285 288 293 294 294 295 295 296 296 296 297 297 298 299 298 298 301 307 324 329 328 326 325 330 330 329 330 330 329 328 326 326 325 325 323 321 318 314 310 309 309 308
286 290 290 288 285 280 283 278 283 287 290 292 294 294 295 295 295 296 297 298 299 301 302 302 302 302 313 326 326 325 324 324 327 328 329 329 327 326 325 324 324 323 322 319 317 314 312 311 309
288 291 289 288 286 282 281 279 284 285 286 291 292 293 293 295 296 298 299 300 302 303 304 306 305 301 301 320 325 324 320 322 322 326 327 327 326 325 324 323 323 321 320 319 316 313 311 311 311
293 290 289 286 283 278 280 280 279 284 289 287 290 292 295 295 296 297 299 301 302 303 305 307 304 299 301 305 318 322 320 322 321 322 323 325 325 324 323 322 321 321 320 318 317 316 313 312 312
290 286 279 277 276 276 279 279 283 287 288 292 292 294 294 294 295 297 298 299 300 301 304 309 307 306 302 307 311 317 320 322 321 320 322 322 322 321 322 321 320 320 320 319 318 315 312 311 309
287 286 280 274 274 276 280 278 284 289 289 291 294 295 295 296 297 297 298 298 299 300 302 307 307 307 308 309 310 311 313 317 319 319 319 319 320 320 320 320 320 319 319 318 316 314 312 311 309
286 284 289 281 273 276 279 282 288 290 289 291 293 294 293 295 296 297 297 298 298 298 300 303 306 307 308 307 307 308 310 312 314 314 314 313 313 312 315 315 315 314 314 313 313 311 310 309 308
288 290 283 283 273 272 277 278 281 287 288 289 291 292 293 294 296 296 296 297 297 298 299 300 301 302 303 303 303 303 304 305 306 306 305 304 305 305 305 305 305 305 304 304 304 303 304 302 303
285 284 285 285 282 275 274 278 285 287 289 289 290 292 293 294 294 295 295 296 296 296 297 297 297 297 297 299 300 300 300 300 299 299 299 299 298 298 297 297 297 297 296 297 297 297 297 297 297
287 286 286 281 279 280 279 280 288 288 291 291 291 293 293 294 294 294 294 294 294 294 294 293 294 294 294 294 294 293 294 294 293 292 293 293 293 293 293 293 293 293 293 293 292 291 292 291 291

GFSSGP_sfc_thetae_117.txt.gz
Theta_e
316 310 308 307 298 294 291 295 299 300 300 303 307 306 306 311 306 297 325 331 339 339 343 344 347 348 345 343 343 344 341 343 345 342 340 340 340 341 343 346 348 347 346 344 342 342 342 342 342
310 312 309 300 293 289 290 295 298 301 307 311 307 308 311 308 320 322 324 337 340 340 342 342 345 348 345 343 343 344 343 342 344 341 339 338 338 338 338 341 344 345 345 343 341 341 341 342 341
312 309 304 298 291 289 290 296 300 302 305 302 304 309 312 312 319 323 329 339 339 338 341 340 344 348 346 345 343 344 343 341 342 339 338 339 337 336 336 337 338 340 342 340 340 341 341 341 340
306 305 301 295 292 294 293 300 303 301 301 307 308 307 314 321 323 326 337 339 336 336 338 341 345 348 347 347 345 344 343 339 339 339 337 336 336 337 336 336 336 336 336 337 339 340 340 340 339
304 300 295 292 292 294 294 302 300 301 299 301 304 304 311 321 328 334 336 336 334 333 336 339 343 346 347 347 345 344 343 340 338 339 338 337 336 335 336 335 335 335 335 336 339 339 338 338 337
300 298 292 291 292 294 299 301 301 299 300 305 309 308 311 323 330 333 335 333 334 333 335 337 336 340 343 345 345 344 343 341 339 338 338 338 338 335 335 334 334 334 335 336 338 337 336 337 335
298 295 291 290 292 293 300 302 298 299 300 302 312 306 309 319 328 331 332 331 333 334 334 333 335 336 336 339 341 342 342 341 340 339 338 338 338 338 336 336 334 334 335 336 336 335 334 334 334
302 298 290 290 292 292 297 300 300 299 296 305 314 307 309 318 325 332 332 330 331 332 331 330 331 332 333 334 333 336 338 338 338 336 333 331 332 333 333 331 334 334 335 335 335 333 332 332 331
303 295 289 292 293 294 297 297 297 298 299 301 304 314 316 322 331 330 330 330 331 332 329 329 330 330 330 331 329 332 333 332 331 329 326 324 325 326 327 329 333 332 332 333 332 330 329 326 325
298 294 294 296 296 294 297 297 297 297 298 304 308 316 320 325 328 327 327 327 328 328 330 328 328 328 329 333 329 331 335 330 328 326 324 324 323 324 326 324 328 330 329 332 331 329 325 320 318
296 294 298 295 298 298 298 297 295 296 293 303 308 315 318 322 325 326 328 328 327 329 330 328 328 328 328 328 327 327 332 333 327 325 324 323 323 322 322 321 320 320 320 320 320 317 315 314 316
295 298 298 298 299 297 297 299 295 296 297 300 314 320 319 320 322 325 326 328 327 327 329 329 328 328 327 327 326 326 327 330 325 325 325 322 320 319 319 319 318 317 316 313 313 312 313 314 315
296 296 298 297 297 297 298 296 295 295 296 307 318 319 319 320 320 323 327 328 327 327 329 329 328 328 328 326 325 325 324 329 326 325 326 322 320 318 317 317 317 316 316 313 311 311 312 312 313
298 298 296 296 296 297 296 294 295 296 298 314 317 317 319 319 320 318 320 324 326 329 329 330 329 329 329 326 325 325 324 325 326 326 325 326 321 319 318 316 316 316 315 316 314 312 312 311 312
297 294 294 292 294 295 296 291 294 295 300 312 315 316 317 319 319 320 321 324 327 329 330 330 329 330 329 328 326 327 326 326 324 327 327 325 323 320 319 317 316 317 316 314 312 311 311 310 311
293 292 288 291 293 293 294 289 296 295 300 306 310 311 313 316 319 320 320 322 325 329 329 331 331 329 330 329 328 329 329 327 327 326 329 330 327 324 321 319 317 317 315 313 311 310 309 308 308
294 285 285 289 293 291 292 290 294 295 297 298 304 309 312 314 314 317 319 321 322 326 329 330 330 329 330 330 330 330 332 331 331 330 330 330 329 327 325 320 318 316 314 312 310 309 309 307 307
291 286 286 287 290 290 289 290 291 292 293 296 299 302 305 309 314 317 317 318 320 324 327 330 331 330 329 329 328 328 332 332 332 331 329 329 329 327 326 323 322 319 314 311 309 309 309 310 307
290 288 286 288 291 289 288 291 294 293 290 291 293 293 293 299 307 307 311 316 316 320 324 328 329 329 328 325 326 323 324 329 331 332 331 329 329 328 325 324 323 321 317 316 314 312 311 309 307
290 287 286 288 290 289 287 289 291 290 291 292 293 292 292 292 294 296 299 305 312 317 323 326 328 328 328 329 328 325 324 324 327 331 331 330 328 328 326 325 323 321 319 317 315 312 308 309 309
289 287 284 286 288 288 285 287 287 290 291 291 293 292 292 294 294 294 295 299 307 312 318 324 326 327 328 329 325 321 322 323 325 325 329 329 329 328 327 326 325 322 321 318 316 313 312 311 307
287 289 289 287 285 282 284 282 284 286 289 290 293 292 294 293 294 294 294 296 298 301 303 313 319 322 326 326 325 325 323 322 321 322 324 326 328 328 327 326 325 324 322 320 319 315 314 313 310
288 291 290 287 284 282 281 278 283 281 284 287 291 292 295 293 293 293 293 295 296 299 300 299 300 306 319 324 325 324 319 320 320 323 325 326 325 326 326 325 324 323 322 321 319 315 313 313 312
292 290 288 285 283 278 281 280 280 281 286 287 288 290 292 291 292 292 295 299 299 301 303 303 303 301 299 314 321 323 322 320 321 323 323 323 324 323 324 323 323 322 320 319 318 317 315 313 313
289 287 278 277 277 277 278 278 286 286 286 287 289 290 289 290 293 294 296 298 299 300 303 302 301 300 298 298 312 321 320 321 321 323 321 320 321 321 322 321 320 319 320 318 318 316 315 313 311
285 285 279 273 273 276 279 277 283 288 287 288 289 289 291 291 293 295 296 297 298 299 302 303 303 301 301 304 302 314 316 320 318 317 316 320 319 319 319 319 319 319 318 318 316 314 313 312 310
284 284 286 280 275 278 279 280 286 287 288 290 290 291 291 292 293 295 296 296 297 299 301 302 303 302 303 304 305 307 312 313 313 313 314 314 313 311 313 313 311 311 311 312 311 309 308 307 306
286 289 282 281 273 272 277 277 280 283 288 289 290 290 291 292 293 294 295 295 296 297 299 301 302 302 302 302 303 303 305 307 308 310 306 307 306 306 306 304 303 302 302 303 303 300 299 297 295
282 282 282 284 281 276 273 278 284 288 287 288 291 292 292 293 293 294 294 295 295 296 297 297 298 298 298 299 298 299 299 299 300 301 301 300 300 299 298 297 296 295 294 294 292 291 291 290 290
284 285 286 281 278 279 279 281 285 286 288 289 291 292 292 292 293 294 294 293 294 295 295 295 295 295 295 294 294 294 294 294 294 294 294 295 294 294 293 293 291 289 289 289 289 288 288 287 287

GFSSGP_sfc_thetae_120.txt.gz
Theta_e
315 309 307 305 297 294 290 294 297 299 299 303 306 305 307 309 304 297 323 331 336 339 341 343 346 344 342 344 343 343 344 344 341 340 339 341 342 346 347 347 348 347 343 343 343 343 343 341 340
310 310 308 300 293 289 290 294 298 300 307 310 307 309 309 306 317 320 323 336 338 339 341 341 344 345 342 343 344 343 344 345 340 338 338 340 338 339 342 344 347 345 343 341 341 343 342 341 340
310 308 303 296 290 288 290 294 298 303 308 301 306 310 310 311 318 322 327 337 338 338 339 340 344 346 343 343 343 342 343 342 340 338 338 337 337 337 337 338 342 342 342 341 341 341 341 340 339
306 305 300 293 290 292 293 296 301 302 300 307 308 307 312 321 323 326 337 336 335 335 337 340 345 346 345 343 343 341 340 341 339 338 337 337 336 336 336 335 336 337 339 340 339 340 340 339 338
304 302 295 291 292 294 294 302 301 299 299 301 304 305 309 320 327 334 336 335 332 332 335 338 344 345 346 344 343 342 340 339 340 337 336 335 336 335 335 334 334 334 336 339 339 339 339 337 336
300 298 292 291 292 293 297 302 300 297 300 306 309 309 311 321 329 333 333 331 332 332 334 337 336 340 343 344 343 343 341 339 339 338 337 336 335 335 334 334 335 334 335 338 337 337 337 336 334
299 296 292 289 291 293 300 301 298 298 301 302 312 306 308 317 327 332 331 330 331 332 333 332 334 336 336 339 340 340 340 339 339 339 339 338 337 337 335 336 335 334 337 337 335 335 335 334 333
301 299 292 289 292 293 298 300 300 299 298 308 312 306 309 317 327 330 329 328 329 329 330 329 330 333 333 335 333 335 336 337 337 335 333 331 332 332 332 330 334 335 335 335 334 333 332 331 330
302 296 291 293 293 294 297 297 297 298 304 300 305 311 314 324 330 329 329 330 329 330 328 328 327 329 330 331 330 330 331 332 331 328 326 324 325 325 326 328 332 333 334 333 331 330 328 325 325
299 294 294 297 297 294 296 297 297 298 298 302 307 314 320 327 327 325 325 325 325 326 328 327 327 327 328 332 333 334 330 327 326 325 322 323 323 323 325 324 327 329 330 332 331 327 322 319 317
298 294 297 297 297 298 296 295 297 297 295 302 307 312 319 324 325 325 325 326 325 325 327 327 326 326 326 327 328 333 334 326 324 322 321 321 322 321 321 320 319 318 319 318 318 314 313 314 315
295 298 299 299 298 297 296 297 295 297 298 300 309 316 320 322 323 324 325 327 327 327 327 326 326 326 325 326 325 329 331 331 324 322 322 320 319 318 318 317 316 315 314 313 313 311 312 312 314
297 298 298 298 297 297 297 296 295 295 295 301 315 317 318 321 323 325 327 328 328 326 327 326 326 326 325 324 324 324 328 330 324 323 323 322 319 317 317 316 315 314 313 311 310 310 311 311 312
299 299 296 296 295 296 295 293 295 296 301 312 315 315 316 319 321 322 324 326 326 327 326 327 326 327 326 325 324 324 323 327 325 323 323 323 320 318 316 315 315 314 314 314 312 311 311 310 310
297 296 296 294 295 295 296 291 293 294 300 311 313 314 315 317 318 320 324 325 326 327 327 328 327 327 326 325 325 324 324 324 324 324 324 324 321 319 318 316 315 315 315 313 312 310 310 309 310
294 293 290 291 294 294 295 289 296 295 299 307 310 311 313 315 317 320 322 325 326 328 327 328 330 327 327 326 325 325 325 323 323 324 325 326 327 324 320 318 317 316 315 313 311 309 308 308 307
292 286 285 289 293 292 292 290 295 293 297 299 307 309 312 313 315 317 319 322 324 328 328 327 329 327 327 327 327 326 326 325 325 324 325 329 329 327 324 322 320 316 314 312 310 309 308 307 307
288 286 286 287 291 289 289 291 294 292 294 297 300 306 309 311 315 318 317 319 320 325 328 329 329 329 328 328 326 326 330 330 330 329 329 329 329 328 326 324 323 319 316 314 311 309 310 310 309
294 291 286 287 291 290 289 291 295 292 290 290 293 297 302 305 313 313 315 317 317 319 322 328 328 328 328 326 326 325 328 330 330 331 330 329 329 327 326 325 323 321 318 317 315 313 312 310 309
288 287 291 290 291 289 286 288 292 290 291 291 292 292 296 298 298 297 303 309 313 316 321 323 327 328 328 329 329 325 325 323 325 328 330 330 328 328 326 325 323 322 319 317 315 312 310 310 309
286 284 284 287 289 289 286 286 289 289 290 291 291 292 292 294 296 294 295 297 305 311 316 322 325 328 328 329 325 320 322 321 325 326 326 327 329 328 327 326 325 323 321 319 317 314 312 311 309
287 290 289 287 287 284 284 281 286 288 288 290 292 291 292 293 293 293 293 292 296 307 312 320 322 325 327 327 326 325 325 324 324 325 326 323 324 327 327 327 326 324 322 320 319 316 315 314 311
287 291 289 287 285 283 281 278 283 284 286 286 290 292 293 295 294 293 293 293 294 299 303 310 316 318 321 326 326 324 322 324 319 320 323 324 325 326 326 325 325 323 322 321 319 315 315 314 314
292 289 289 286 284 279 285 280 280 284 287 288 289 293 295 296 292 292 291 294 296 297 298 299 302 308 315 320 323 323 322 318 319 320 323 324 324 323 324 323 323 322 321 320 319 318 315 313 314
290 288 279 279 278 277 277 278 286 287 286 288 290 290 290 289 290 292 293 295 297 299 300 302 301 300 299 304 320 322 322 319 320 321 322 321 321 320 321 321 320 320 320 319 318 317 315 313 311
289 288 279 272 272 276 279 277 283 288 290 288 289 289 290 290 290 292 294 296 297 299 301 301 300 300 299 297 298 312 323 323 322 320 320 319 317 319 319 319 319 319 319 318 317 315 312 312 311
285 284 288 279 270 273 277 280 286 287 288 288 290 290 291 291 292 293 295 296 296 299 301 302 302 301 301 302 302 301 315 318 318 317 315 316 314 313 314 313 312 312 312 312 311 309 307 305 303
287 289 281 280 270 270 276 277 281 282 288 290 288 291 291 291 293 293 294 295 295 297 300 300 301 301 302 302 304 305 310 315 315 314 311 310 308 308 307 305 304 303 302 304 303 301 299 296 293
283 283 282 284 279 274 271 277 283 287 287 287 289 291 292 292 293 293 294 294 295 296 298 298 298 299 299 299 301 304 305 306 307 306 305 303 302 301 299 298 297 296 295 295 294 293 291 289 288
283 284 285 281 278 277 278 280 284 286 286 288 289 291 291 292 293 294 294 294 294 295 295 296 296 296 296 295 295 297 297 298 298 297 296 298 295 295 294 293 291 291 290 290 288 287 287 287 286

GFSSGP_sfc_thetae_123.txt.gz
Theta_e
319 311 312 309 300 299 296 299 303 303 303 307 311 311 313 314 310 303 328 334 339 341 345 345 345 345 344 343 345 346 344 341 341 341 342 345 347 347 347 347 346 345 345 344 343 341 341 340 339
313 311 310 303 296 293 294 299 301 304 311 312 311 313 313 313 322 323 328 335 342 342 344 344 342 345 344 343 344 346 344 342 341 339 339 342 344 346 346 345 346 344 342 342 343 341 341 339 338
312 310 306 298 293 292 293 299 303 308 311 306 310 315 315 316 322 326 331 339 341 341 343 343 343 344 343 343 343 344 342 341 341 338 339 338 338 339 340 342 342 344 342 342 341 340 339 338 336
308 309 303 294 296 298 297 301 305 307 306 310 312 312 318 324 325 329 338 340 339 340 342 343 344 344 343 343 343 343 341 341 338 337 337 337 337 336 336 336 339 341 342 340 339 338 339 337 335
306 305 298 293 296 299 298 303 305 302 304 307 309 311 315 324 329 335 336 338 335 338 341 344 343 344 344 343 341 342 341 340 339 336 337 336 335 335 335 335 336 339 340 339 340 339 338 335 334
302 302 296 294 294 297 299 304 303 302 304 309 312 314 318 327 330 332 335 335 337 337 340 343 337 340 341 343 342 341 341 340 338 337 336 335 335 335 335 335 335 337 338 338 339 337 336 334 332
303 300 296 295 295 296 302 303 302 302 305 307 315 310 316 322 330 333 334 334 335 337 338 340 342 340 336 338 339 339 339 340 340 339 337 338 337 336 336 335 335 335 336 336 336 336 335 333 332
304 300 295 294 294 296 302 302 303 304 303 312 315 308 313 321 330 332 332 332 333 334 334 336 336 339 341 340 333 334 336 336 337 335 333 331 331 332 332 331 335 336 336 335 334 333 332 331 330
306 297 294 296 295 297 300 300 301 302 309 305 310 313 316 327 329 330 329 329 329 330 331 334 335 336 338 339 332 331 332 331 330 329 326 327 331 331 330 328 332 335 335 332 331 330 328 325 327
301 295 296 300 299 298 298 300 300 301 304 304 311 317 323 326 326 324 324 324 324 326 328 331 334 334 334 336 336 336 333 333 330 329 329 329 329 330 330 325 326 329 330 332 329 325 322 323 324
300 297 299 300 299 300 299 298 299 299 300 304 307 314 321 324 324 324 325 326 325 327 328 330 331 332 333 331 335 336 334 331 330 327 327 328 328 329 329 327 326 327 321 325 322 320 321 321 323
302 300 300 301 300 299 299 298 297 299 302 303 309 318 322 323 324 324 325 326 325 326 327 328 330 331 331 332 331 334 333 331 329 327 327 327 327 327 326 326 325 323 322 322 321 320 319 319 320
297 298 301 300 299 298 299 297 297 297 299 303 314 319 321 323 324 326 327 328 328 326 327 327 330 330 330 330 330 331 332 332 330 328 328 327 326 325 325 324 324 323 322 319 319 318 319 318 318
299 300 298 297 297 298 297 296 296 298 303 311 315 316 320 322 324 324 326 327 327 328 327 328 328 329 329 329 329 328 330 330 330 329 329 328 326 325 324 322 322 323 322 322 321 320 319 318 318
297 297 300 298 296 296 297 293 294 297 303 309 312 314 316 320 322 324 326 327 328 328 327 327 328 329 329 328 328 328 328 328 328 329 329 329 327 325 324 323 322 323 322 321 321 319 318 318 317
293 295 294 297 296 295 296 291 298 297 300 305 311 312 313 316 320 324 325 328 329 328 328 329 329 328 328 328 327 328 328 328 329 330 330 329 329 327 325 323 323 323 323 322 320 319 318 317 316
291 285 288 291 294 294 294 292 297 296 297 297 306 311 312 314 316 319 322 326 327 329 328 329 329 328 328 328 328 328 328 328 328 329 330 330 330 329 325 324 323 321 320 320 319 318 317 316 315
287 285 285 287 292 292 291 292 296 295 295 296 297 308 311 313 316 319 319 321 325 328 329 329 330 329 329 329 328 328 328 328 328 328 328 330 331 329 327 326 325 321 319 317 315 314 313 313 313
292 289 286 287 291 291 290 291 294 295 293 293 293 297 308 311 316 317 318 320 321 324 328 329 328 330 329 328 327 327 327 329 330 330 330 330 330 329 328 327 325 322 320 319 317 315 315 314 313
291 291 290 292 290 290 288 289 292 292 293 294 294 294 297 306 306 308 314 316 318 321 323 327 328 329 329 330 330 330 330 331 332 332 331 331 330 329 328 327 325 324 321 320 318 315 313 313 312
286 288 285 289 288 288 288 292 290 293 291 293 293 294 294 297 301 301 301 308 315 318 320 323 327 329 329 330 329 325 326 326 327 328 329 330 330 330 329 327 326 324 323 321 320 317 315 314 311
286 291 288 287 286 283 288 285 288 294 291 291 293 292 293 294 295 298 299 299 303 313 318 322 324 328 329 330 328 328 327 326 328 330 330 329 330 330 329 329 327 326 324 323 321 319 318 317 315
288 291 289 287 284 283 281 280 283 288 289 291 292 293 294 296 296 297 295 297 297 300 310 317 322 325 327 328 329 327 327 328 328 325 326 325 327 327 327 327 327 326 324 323 321 318 317 317 316
290 289 291 287 284 280 283 281 281 285 289 291 291 294 295 296 296 296 294 294 295 297 303 310 317 320 324 326 328 327 326 325 323 323 324 326 326 326 326 325 324 325 324 322 321 320 318 315 315
288 287 281 281 278 279 278 279 289 288 287 290 292 293 294 292 292 293 293 294 295 298 300 302 307 314 318 323 326 326 326 324 324 324 325 325 323 323 325 323 323 322 323 321 320 319 317 315 313
286 288 281 274 274 277 279 278 284 288 294 290 289 290 290 292 292 291 292 294 296 298 301 302 301 302 303 309 319 323 325 324 324 324 324 324 323 322 322 322 323 321 321 320 318 316 314 313 311
285 285 288 280 269 274 278 280 286 288 287 288 289 289 290 291 293 294 294 296 298 299 302 303 302 302 301 300 300 302 312 321 322 321 321 320 319 316 318 318 315 315 315 314 312 310 306 305 304
289 290 283 283 271 270 276 277 281 284 287 289 288 289 290 292 293 294 296 297 298 300 302 303 303 302 303 304 305 304 303 314 318 318 315 314 313 311 310 308 307 305 304 305 305 302 300 298 297
284 285 282 286 279 274 271 278 283 286 286 287 287 288 291 292 293 294 295 295 296 299 301 302 302 302 302 304 306 308 308 311 313 312 311 308 307 305 303 302 300 299 299 298 296 295 293 292 291
284 286 284 280 276 278 278 279 286 285 285 287 289 290 290 292 293 294 295 295 296 298 299 300 300 300 299 299 301 301 302 304 304 303 302 302 300 299 297 295 294 293 292 292 292 290 290 289 289

GFSSGP_sfc_thetae_126.txt.gz
Theta_e
323 319 323 321 309 311 303 304 309 309 310 313 319 315 316 319 313 309 336 337 340 341 344 343 345 345 343 343 345 344 344 344 344 345 347 347 347 346 345 345 347 346 344 341 341 340 340 339 338
319 317 323 316 305 300 302 306 306 309 313 318 318 318 316 315 326 329 331 338 341 340 344 341 343 344 343 345 345 344 342 341 341 341 343 346 347 346 344 344 346 345 342 341 340 340 339 337 335
316 318 316 309 306 300 301 306 310 313 314 314 314 320 319 319 328 330 336 340 341 340 343 340 343 344 342 344 344 342 342 340 339 339 339 340 340 342 344 343 345 344 342 340 340 339 337 335 334
316 319 314 304 300 302 304 309 312 312 312 312 317 314 323 328 330 334 338 341 338 339 343 341 343 344 342 343 342 342 341 340 339 338 338 338 336 337 340 342 343 343 341 339 340 338 336 334 333
317 316 308 303 301 304 305 309 314 310 310 314 315 314 320 329 334 337 337 340 336 337 343 341 342 343 343 343 343 342 341 338 337 337 337 336 336 336 335 338 342 340 340 341 339 337 335 333 332
311 312 304 301 299 303 306 311 313 310 311 314 315 318 322 332 334 336 338 338 337 338 343 342 336 340 341 342 342 341 341 339 337 336 336 336 336 336 335 336 339 339 338 338 337 336 334 332 331
310 307 303 302 301 301 307 312 309 309 310 312 321 316 322 327 334 336 338 337 337 339 342 341 341 338 336 338 338 340 340 339 337 338 337 336 336 336 335 336 338 337 337 337 336 335 334 332 330
307 311 301 301 300 299 308 309 309 310 309 318 321 311 317 328 332 334 337 336 336 337 340 340 342 340 340 340 332 334 336 337 336 335 333 331 331 332 332 332 335 337 335 335 334 332 332 331 329
312 306 304 302 301 302 308 307 307 309 312 315 317 316 322 332 332 331 331 332 332 334 337 340 339 341 341 339 334 331 331 331 330 330 326 328 331 332 332 329 333 335 334 332 331 329 327 328 326
313 302 306 306 306 304 306 308 308 307 311 310 314 321 328 331 329 326 326 327 328 329 332 337 338 339 341 337 339 339 336 333 334 335 334 333 331 332 330 326 326 329 330 329 327 325 324 327 329
305 308 306 305 303 304 303 304 307 306 307 311 312 319 324 327 328 328 329 329 328 330 331 334 336 338 340 337 337 337 337 335 332 333 334 333 332 332 331 330 330 332 325 329 327 327 327 327 328
306 306 305 302 304 302 303 304 303 306 310 309 315 322 326 326 327 327 328 329 329 328 329 333 335 336 337 337 336 336 337 336 334 331 332 333 332 332 330 328 327 329 331 329 328 326 325 326 325
307 304 305 303 303 302 302 302 303 304 309 308 315 322 325 327 328 329 330 331 330 329 329 331 334 335 335 336 334 334 333 334 335 332 332 333 333 332 330 329 328 326 326 326 326 324 325 324 323
307 303 302 302 302 302 302 301 301 305 306 309 315 320 323 326 327 328 329 329 329 330 330 330 332 334 335 334 334 333 334 332 333 334 333 333 333 332 331 329 328 327 326 326 326 327 326 325 324
302 302 304 306 302 301 302 299 300 307 307 308 312 317 322 325 327 327 329 329 331 331 331 331 330 333 333 334 334 334 333 332 330 334 335 335 334 333 332 331 329 329 328 328 328 326 326 325 323
303 302 298 305 303 300 301 302 306 306 305 307 311 315 319 323 326 328 329 330 332 332 332 331 330 331 332 332 333 333 333 332 332 334 335 335 334 334 333 332 332 331 330 329 328 327 326 325 323
299 299 299 301 300 299 298 301 305 304 304 305 308 313 317 319 324 328 330 331 332 332 331 330 333 330 331 331 332 332 333 332 333 333 334 334 334 335 333 331 328 326 325 325 326 326 325 325 323
295 299 294 299 297 296 296 297 301 302 302 304 306 309 314 317 320 325 328 331 332 333 333 334 334 333 332 331 332 332 332 332 332 332 332 333 334 335 334 329 328 325 324 322 321 320 318 318 319
301 299 298 296 296 295 297 297 299 303 300 302 304 305 309 315 320 323 326 329 330 332 333 333 333 334 333 331 329 328 328 331 332 333 331 332 334 334 331 329 328 326 325 325 322 320 319 319 317
296 295 294 297 296 296 297 296 299 299 300 302 303 304 305 308 316 320 323 325 326 328 330 333 333 334 333 333 332 332 332 334 335 334 333 331 333 332 330 330 328 327 325 324 322 319 318 318 317
294 296 295 296 294 295 296 298 301 304 301 300 301 303 305 306 308 314 319 323 326 326 327 330 333 334 334 335 334 332 334 333 333 333 334 334 334 334 333 332 331 328 327 325 323 320 319 319 316
293 296 295 293 294 292 294 290 299 303 304 301 300 302 302 303 304 308 313 317 322 326 329 329 331 333 334 335 333 330 328 327 331 333 335 335 332 333 335 334 334 332 329 327 327 323 321 320 318
296 296 295 293 292 290 291 289 295 298 298 301 303 303 303 305 303 304 306 310 315 320 325 328 329 330 332 333 334 332 331 333 333 333 335 335 335 334 334 331 332 332 331 328 328 323 323 321 322
296 293 293 293 291 286 292 289 292 296 297 300 303 304 304 304 304 304 306 306 307 310 314 321 324 327 330 332 333 332 331 332 332 332 331 333 332 330 329 328 329 329 329 328 325 324 322 322 319
296 292 285 284 284 284 285 287 293 298 298 298 298 302 303 304 304 304 302 300 302 304 306 309 315 320 326 329 331 332 332 332 331 331 332 332 331 330 330 328 328 328 326 326 325 323 321 318 316
291 293 288 281 281 286 283 285 292 296 297 296 301 300 298 298 300 300 301 302 303 304 305 306 308 313 321 326 328 330 329 330 331 331 331 331 332 331 331 329 327 326 326 324 322 320 317 316 315
290 288 293 283 277 282 286 289 294 296 296 296 296 297 299 300 299 300 301 301 300 303 304 306 307 309 314 320 322 324 325 326 327 329 330 329 330 326 327 327 324 325 325 320 316 312 309 308 307
293 295 286 288 281 279 284 284 289 294 294 296 297 298 299 299 299 300 301 302 302 304 306 308 308 308 309 310 314 318 317 322 325 325 324 322 322 321 318 320 314 313 310 309 307 304 304 303 300
290 289 290 292 287 283 282 288 294 294 293 294 297 298 298 298 299 300 301 302 303 306 308 308 308 306 307 308 309 309 309 309 320 323 323 321 318 316 310 310 306 306 303 301 301 300 298 296 295
294 291 291 287 282 287 283 287 293 294 294 295 296 297 298 298 299 300 301 301 302 305 307 308 308 307 307 308 309 309 311 311 314 317 315 311 308 308 306 304 301 300 299 299 298 293 293 292 292